[[{"header":{"parameterUnit":"m.s-1","parameterCategory":1,"la1":30.6,"la2":28.766,"lo1":-90.7593,"lo2":-88.6598,"dy":0.0162,"dx":0.0183,"nx":116,"ny":114,"refTime":"2023-04-28T18:00:00:Z","depth":0,"parameterNumber":2,"parameterNumberName":"U-component_of_WINDS"},"data":[0.0,0.0,0.0,0.0,0.0,0.0,0.0,0.0,0.0,0.0,0.0,0.0,0.0,0.0,0.0,0.0,0.0,0.0,0.0,0.0,0.0,0.0,0.0,0.0,0.0,0.0,0.0,0.0,0.0,0.0,0.0,0.0,0.0,0.0,0.0,0.0,0.0,0.0,0.0,0.0,0.0,0.0,0.0,0.0,0.0,0.0,0.0,0.0,0.0,0.0,0.0,0.0,0.0,0.0,0.0,0.0,0.0,0.0,0.0,0.0,0.0,0.0,0.0,0.0,0.0,0.0,0.0,0.0,0.0,0.0,0.0,0.0,0.0,0.0,0.0,0.0,0.0,0.0,0.0,0.0,0.0,0.0,0.0,0.0,0.0,0.0,0.0,0.0,0.0,0.0,0.0,0.0,0.0,0.0,0.0,0.0,0.0,0.0,0.0,0.0,0.0,0.0,0.0,0.0,0.0,0.0,0.0,0.0,0.0,0.0,0.0,0.0,0.0,0.0,0.0,0.0,0.0,0.0,0.0,0.0,0.0,0.0,0.0,0.0,0.0,0.0,0.0,0.0,0.0,0.0,0.0,0.0,0.0,0.0,0.0,0.0,0.0,0.0,0.0,0.0,0.0,0.0,0.0,0.0,0.0,0.0,0.0,0.0,0.0,0.0,0.0,0.0,0.0,0.0,0.0,0.0,0.0,0.0,0.0,0.0,0.0,0.0,0.0,0.0,0.0,0.0,0.0,0.0,0.0,0.0,0.0,0.0,0.0,0.0,0.0,0.0,0.0,0.0,0.0,0.0,0.0,0.0,0.0,0.0,0.0,0.0,0.0,0.0,0.0,0.0,0.0,0.0,0.0,0.0,0.0,0.0,0.0,0.0,0.0,0.0,0.0,0.0,0.0,0.0,0.0,0.0,0.0,0.0,0.0,0.0,0.0,0.0,0.0,0.0,0.0,0.0,0.0,0.0,0.0,0.0,0.0,0.0,0.0,0.0,0.0,0.0,0.0,0.0,0.0,0.0,0.0,0.0,0.0,0.0,0.0,0.0,0.0,0.0,0.0,0.0,0.0,0.0,0.0,0.0,0.0,0.0,0.0,0.0,0.0,0.0,0.0,0.0,0.0,0.0,0.0,0.0,0.0,0.0,0.0,0.0,0.0,0.0,0.0,0.0,0.0,0.0,0.0,0.0,0.0,0.0,0.0,0.0,0.0,0.0,0.0,0.0,0.0,0.0,0.0,0.0,0.0,0.0,0.0,0.0,0.0,0.0,0.0,0.0,0.0,0.0,0.0,0.0,0.0,0.0,0.0,0.0,0.0,0.0,0.0,0.0,0.0,0.0,0.0,0.0,0.0,0.0,0.0,0.0,0.0,0.0,0.0,0.0,0.0,0.0,0.0,0.0,0.0,0.0,0.0,0.0,0.0,0.0,0.0,0.0,0.0,0.0,0.0,0.0,0.0,0.0,0.0,0.0,0.0,0.0,0.0,0.0,0.0,0.0,0.0,0.0,0.0,0.0,0.0,0.0,0.0,0.0,0.0,0.0,0.0,0.0,0.0,0.0,0.0,0.0,0.0,0.0,0.0,0.0,0.0,0.0,0.0,0.0,0.0,0.0,0.0,0.0,0.0,0.0,0.0,0.0,0.0,0.0,0.0,0.0,0.0,0.0,0.0,0.0,0.0,0.0,0.0,0.0,0.0,0.0,0.0,0.0,0.0,0.0,0.0,0.0,0.0,0.0,0.0,0.0,0.0,0.0,0.0,0.0,0.0,0.0,0.0,0.0,0.0,0.0,0.0,0.0,0.0,0.0,0.0,0.0,0.0,0.0,0.0,0.0,0.0,0.0,0.0,0.0,0.0,0.0,0.0,0.0,0.0,0.0,0.0,0.0,0.0,0.0,0.0,0.0,0.0,0.0,0.0,0.0,0.0,0.0,0.0,0.0,0.0,0.0,0.0,0.0,0.0,0.0,0.0,0.0,0.0,0.0,0.0,0.0,0.0,0.0,0.0,0.0,0.0,0.0,0.0,0.0,0.0,0.0,0.0,0.0,0.0,0.0,0.0,0.0,0.0,0.0,0.0,0.0,0.0,0.0,0.0,0.0,0.0,0.0,0.0,0.0,0.0,0.0,0.0,0.0,0.0,0.0,0.0,0.0,0.0,0.0,0.0,0.0,0.0,0.0,0.0,0.0,0.0,0.0,0.0,0.0,0.0,0.0,0.0,0.0,0.0,0.0,0.0,0.0,0.0,0.0,0.0,0.0,0.0,0.0,0.0,0.0,0.0,0.0,0.0,0.0,0.0,0.0,0.0,0.0,0.0,0.0,0.0,0.0,0.0,0.0,0.0,0.0,0.0,0.0,0.0,0.0,0.0,0.0,0.0,0.0,0.0,0.0,0.0,0.0,0.0,0.0,0.0,0.0,0.0,0.0,0.0,0.0,0.0,0.0,0.0,0.0,0.0,0.0,0.0,0.0,0.0,0.0,0.0,0.0,0.0,0.0,0.0,0.0,0.0,0.0,0.0,0.0,0.0,0.0,0.0,0.0,0.0,0.0,0.0,0.0,0.0,0.0,0.0,0.0,0.0,0.0,0.0,0.0,0.0,0.0,0.0,0.0,0.0,0.0,0.0,0.0,0.0,0.0,0.0,0.0,0.0,0.0,0.0,0.0,0.0,0.0,0.0,0.0,0.0,0.0,0.0,0.0,0.0,0.0,0.0,0.0,0.0,0.0,0.0,0.0,0.0,0.0,0.0,0.0,0.0,0.0,0.0,0.0,0.0,0.0,0.0,0.0,0.0,0.0,0.0,0.0,0.0,0.0,0.0,0.0,0.0,0.0,0.0,0.0,0.0,0.0,0.0,0.0,0.0,0.0,0.0,0.0,0.0,0.0,0.0,0.0,0.0,0.0,0.0,0.0,0.0,0.0,0.0,0.0,0.0,0.0,0.0,0.0,0.0,0.0,0.0,0.0,0.0,0.0,0.0,0.0,0.0,0.0,0.0,0.0,0.0,0.0,0.0,0.0,0.0,0.0,0.0,0.0,0.0,0.0,0.0,0.0,0.0,0.0,0.0,0.0,0.0,0.0,0.0,0.0,0.0,0.0,0.0,0.0,0.0,0.0,0.0,0.0,0.0,0.0,0.0,0.0,0.0,0.0,0.0,0.0,0.0,0.0,0.0,0.0,0.0,0.0,0.0,0.0,0.0,0.0,0.0,0.0,0.0,0.0,0.0,0.0,0.0,0.0,0.0,0.0,0.0,0.0,0.0,0.0,0.0,0.0,0.0,0.0,0.0,0.0,0.0,0.0,0.0,0.0,0.0,0.0,0.0,0.0,0.0,0.0,0.0,0.0,0.0,0.0,0.0,0.0,0.0,0.0,0.0,0.0,0.0,0.0,0.0,0.0,0.0,0.0,0.0,0.0,0.0,0.0,0.0,0.0,0.0,0.0,0.0,0.0,0.0,0.0,0.0,0.0,0.0,0.0,0.0,0.0,0.0,0.0,0.0,0.0,0.0,0.0,0.0,0.0,0.0,0.0,0.0,0.0,0.0,0.0,0.0,0.0,0.0,0.0,0.0,0.0,0.0,0.0,0.0,0.0,0.0,0.0,0.0,0.0,0.0,0.0,0.0,0.0,0.0,0.0,0.0,0.0,0.0,0.0,0.0,0.0,0.0,0.0,0.0,0.0,0.0,0.0,0.0,0.0,0.0,0.0,0.0,0.0,0.0,0.0,0.0,0.0,0.0,0.0,0.0,0.0,0.0,0.0,0.0,0.0,0.0,0.0,0.0,0.0,0.0,0.0,0.0,0.0,0.0,0.0,0.0,0.0,0.0,0.0,0.0,0.0,0.0,0.0,0.0,0.0,0.0,0.0,0.0,0.0,0.0,0.0,0.0,0.0,0.0,0.0,0.0,0.0,0.0,0.0,0.0,0.0,0.0,0.0,0.0,0.0,0.0,0.0,0.0,0.0,0.0,0.0,0.0,0.0,0.0,0.0,0.0,0.0,0.0,0.0,0.0,0.0,0.0,0.0,0.0,0.0,0.0,0.0,0.0,0.0,0.0,0.0,0.0,0.0,0.0,0.0,0.0,0.0,0.0,0.0,0.0,0.0,0.0,0.0,0.0,0.0,0.0,0.0,0.0,0.0,0.0,0.0,0.0,0.0,0.0,0.0,0.0,0.0,0.0,0.0,0.0,0.0,0.0,0.0,0.0,0.0,0.0,0.0,0.0,0.0,0.0,0.0,0.0,0.0,0.0,0.0,0.0,0.0,0.0,0.0,0.0,0.0,0.0,0.0,0.0,0.0,0.0,0.0,0.0,0.0,0.0,0.0,0.0,0.0,0.0,0.0,0.0,0.0,0.0,0.0,0.0,0.0,0.0,0.0,0.0,0.0,0.0,0.0,0.0,0.0,0.0,0.0,0.0,0.0,0.0,0.0,0.0,0.0,0.0,0.0,0.0,0.0,0.0,0.0,0.0,0.0,0.0,0.0,0.0,0.0,0.0,0.0,0.0,0.0,0.0,0.0,0.0,0.0,0.0,0.0,0.0,0.0,0.0,0.0,0.0,0.0,0.0,0.0,0.0,0.0,0.0,0.0,0.0,0.0,0.0,0.0,0.0,0.0,0.0,0.0,0.0,0.0,0.0,0.0,0.0,0.0,0.0,0.0,0.0,0.0,0.0,0.0,0.0,0.0,0.0,0.0,0.0,0.0,0.0,0.0,0.0,0.0,0.0,0.0,0.0,0.0,0.0,0.0,0.0,0.0,0.0,0.0,0.0,0.0,0.0,0.0,0.0,0.0,0.0,0.0,0.0,0.0,0.0,0.0,0.0,0.0,0.0,0.0,0.0,0.0,0.0,0.0,0.0,0.0,0.0,0.0,0.0,0.0,0.0,0.0,0.0,0.0,0.0,0.0,0.0,0.0,0.0,0.0,0.0,0.0,0.0,0.0,0.0,0.0,0.0,0.0,0.0,0.0,0.0,0.0,0.0,0.0,0.0,0.0,0.0,0.0,0.0,0.0,0.0,0.0,0.0,0.0,0.0,0.0,0.0,0.0,0.0,0.0,0.0,0.0,0.0,0.0,0.0,0.0,0.0,0.0,0.0,0.0,0.0,0.0,0.0,0.0,0.0,0.0,0.0,0.0,0.0,0.0,0.0,0.0,0.0,0.0,0.0,0.0,0.0,0.0,0.0,0.0,0.0,0.0,0.0,0.0,0.0,0.0,0.0,0.0,0.0,0.0,0.0,0.0,0.0,0.0,0.0,0.0,0.0,0.0,0.0,0.0,0.0,0.0,0.0,0.0,0.0,0.0,0.0,0.0,0.0,0.0,0.0,0.0,0.0,0.0,0.0,0.0,0.0,0.0,0.0,0.0,0.0,0.0,0.0,0.0,0.0,0.0,0.0,0.0,0.0,0.0,0.0,0.0,0.0,0.0,0.0,0.0,0.0,0.0,0.0,0.0,0.0,0.0,0.0,0.0,0.0,0.0,0.0,0.0,0.0,0.0,0.0,0.0,0.0,0.0,0.0,0.0,0.0,0.0,0.0,0.0,0.0,0.0,0.0,0.0,0.0,0.0,0.0,0.0,0.0,0.0,0.0,0.0,0.0,0.0,0.0,0.0,0.0,0.0,0.0,0.0,0.0,0.0,0.0,0.0,0.0,0.0,0.0,0.0,0.0,0.0,0.0,0.0,0.0,0.0,0.0,0.0,0.0,0.0,0.0,0.0,0.0,0.0,0.0,0.0,0.0,0.0,0.0,0.0,0.0,0.0,0.0,0.0,0.0,0.0,0.0,0.0,0.0,0.0,0.0,0.0,0.0,0.0,0.0,0.0,0.0,0.0,0.0,0.0,0.0,0.0,0.0,0.0,0.0,0.0,0.0,0.0,0.0,0.0,0.0,0.0,0.0,0.0,0.0,0.0,0.0,0.0,0.0,0.0,0.0,0.0,0.0,0.0,0.0,0.0,0.0,0.0,0.0,0.0,0.0,0.0,0.0,0.0,0.0,0.0,0.0,0.0,0.0,0.0,0.0,0.0,0.0,0.0,0.0,0.0,0.0,0.0,0.0,0.0,0.0,0.0,0.0,0.0,0.0,0.0,0.0,0.0,3.919,0.0,0.0,0.0,0.0,0.0,0.0,0.0,0.0,0.0,0.0,0.0,0.0,0.0,0.0,0.0,0.0,0.0,0.0,0.0,0.0,0.0,0.0,0.0,0.0,0.0,0.0,0.0,0.0,0.0,0.0,0.0,0.0,0.0,0.0,0.0,0.0,0.0,0.0,0.0,0.0,0.0,0.0,0.0,0.0,0.0,0.0,0.0,0.0,0.0,0.0,0.0,0.0,0.0,0.0,0.0,0.0,0.0,0.0,0.0,0.0,0.0,0.0,0.0,0.0,0.0,0.0,0.0,0.0,0.0,0.0,0.0,0.0,0.0,0.0,0.0,0.0,0.0,0.0,0.0,0.0,0.0,0.0,0.0,0.0,0.0,0.0,0.0,0.0,0.0,0.0,0.0,0.0,0.0,0.0,0.0,0.0,0.0,0.0,0.0,0.0,0.0,0.0,0.0,0.0,0.0,0.0,0.0,0.0,0.0,0.0,0.0,0.0,0.0,0.0,0.0,0.0,3.9841,0.0,0.0,0.0,0.0,0.0,0.0,0.0,0.0,0.0,0.0,0.0,0.0,0.0,0.0,0.0,0.0,0.0,0.0,0.0,0.0,0.0,0.0,0.0,0.0,0.0,0.0,0.0,0.0,0.0,0.0,0.0,0.0,0.0,0.0,0.0,0.0,0.0,0.0,0.0,0.0,0.0,0.0,0.0,0.0,0.0,0.0,0.0,0.0,0.0,0.0,0.0,0.0,0.0,0.0,0.0,0.0,0.0,0.0,0.0,0.0,0.0,0.0,0.0,0.0,0.0,0.0,0.0,0.0,0.0,0.0,0.0,0.0,0.0,0.0,0.0,0.0,0.0,0.0,0.0,0.0,0.0,0.0,0.0,0.0,0.0,0.0,0.0,0.0,0.0,0.0,0.0,0.0,0.0,0.0,0.0,0.0,0.0,0.0,0.0,0.0,0.0,0.0,0.0,0.0,0.0,0.0,0.0,0.0,0.0,4.223,4.2378,4.1537,4.1953,4.3177,4.2891,4.121,3.8767,0.0,0.0,0.0,0.0,0.0,0.0,0.0,0.0,0.0,0.0,0.0,0.0,0.0,0.0,0.0,0.0,0.0,0.0,0.0,0.0,0.0,0.0,0.0,0.0,0.0,0.0,0.0,0.0,0.0,0.0,0.0,0.0,0.0,0.0,0.0,0.0,0.0,0.0,0.0,0.0,0.0,0.0,0.0,0.0,0.0,0.0,0.0,0.0,0.0,0.0,0.0,0.0,0.0,0.0,0.0,0.0,0.0,0.0,0.0,0.0,0.0,0.0,0.0,0.0,0.0,0.0,0.0,0.0,0.0,0.0,0.0,0.0,0.0,0.0,0.0,0.0,0.0,0.0,0.0,0.0,0.0,0.0,0.0,0.0,0.0,0.0,0.0,3.8717,3.8781,0.0,0.0,0.0,0.0,0.0,0.0,0.0,0.0,0.0,0.0,0.0,0.0,0.0,0.0,4.2204,4.326,4.3387,4.251,4.3105,4.2925,4.2303,4.2353,4.2566,4.2705,4.3089,0.0,4.215,4.0285,0.0,0.0,0.0,0.0,0.0,0.0,0.0,0.0,0.0,0.0,0.0,0.0,0.0,0.0,0.0,0.0,0.0,0.0,0.0,0.0,0.0,0.0,0.0,0.0,0.0,0.0,0.0,0.0,0.0,0.0,0.0,0.0,0.0,0.0,0.0,0.0,0.0,0.0,0.0,0.0,0.0,0.0,0.0,0.0,0.0,0.0,0.0,0.0,0.0,0.0,0.0,0.0,0.0,0.0,0.0,0.0,0.0,0.0,0.0,0.0,0.0,0.0,0.0,0.0,0.0,0.0,0.0,0.0,0.0,0.0,0.0,0.0,0.0,0.0,0.0,0.0,0.0,0.0,0.0,0.0,0.0,0.0,0.0,0.0,0.0,3.8065,3.8992,3.8273,3.8485,3.7947,0.0,0.0,0.0,0.0,0.0,0.0,0.0,0.0,0.0,4.2856,4.3462,4.3737,4.3721,4.5134,4.5846,4.5795,4.6197,4.6352,4.6036,4.6117,4.6001,4.5583,4.593,4.5892,4.5237,4.2476,4.0533,3.9191,0.0,0.0,0.0,0.0,0.0,3.784,0.0,0.0,0.0,0.0,0.0,0.0,0.0,0.0,0.0,0.0,0.0,0.0,0.0,0.0,0.0,0.0,0.0,0.0,0.0,0.0,0.0,0.0,0.0,0.0,0.0,0.0,0.0,0.0,0.0,0.0,0.0,0.0,0.0,0.0,0.0,0.0,0.0,0.0,0.0,0.0,0.0,0.0,0.0,0.0,0.0,0.0,0.0,0.0,0.0,0.0,0.0,0.0,0.0,0.0,0.0,0.0,0.0,0.0,0.0,0.0,0.0,0.0,0.0,0.0,0.0,0.0,0.0,0.0,0.0,0.0,0.0,0.0,0.0,0.0,0.0,0.0,0.0,3.8916,0.0,3.8061,3.9368,3.9523,0.0,0.0,0.0,0.0,0.0,0.0,4.3848,4.4812,4.49,4.4116,4.5233,4.5691,4.5182,4.6501,4.763,4.8439,4.8681,4.9004,4.9277,4.931,4.8923,4.8423,4.8595,4.826,4.7353,4.4642,4.2433,4.0974,4.1638,4.1134,4.0099,4.0224,4.0275,4.035,0.0,0.0,0.0,0.0,0.0,0.0,0.0,0.0,0.0,0.0,0.0,0.0,0.0,0.0,0.0,0.0,0.0,0.0,0.0,0.0,0.0,0.0,0.0,0.0,0.0,0.0,0.0,0.0,0.0,0.0,0.0,0.0,0.0,0.0,0.0,0.0,0.0,0.0,0.0,0.0,0.0,0.0,0.0,0.0,0.0,0.0,0.0,0.0,0.0,0.0,0.0,0.0,0.0,0.0,0.0,0.0,0.0,0.0,0.0,0.0,0.0,0.0,0.0,0.0,0.0,0.0,0.0,0.0,0.0,0.0,0.0,0.0,0.0,0.0,0.0,0.0,0.0,0.0,0.0,3.912,4.3011,0.0,0.0,0.0,0.0,4.2741,4.4498,4.5272,4.4298,4.5574,4.6017,4.5542,4.6251,4.6768,4.6993,4.7557,4.814,4.8553,4.8986,4.9527,4.9854,5.0359,5.017,4.9272,4.9667,4.9205,4.8012,4.5788,4.4505,4.3744,4.1885,4.1212,4.1304,4.0869,4.0818,4.1003,0.0,0.0,0.0,0.0,0.0,0.0,0.0,0.0,0.0,0.0,0.0,0.0,0.0,0.0,0.0,0.0,0.0,0.0,0.0,0.0,0.0,0.0,0.0,0.0,0.0,0.0,0.0,0.0,0.0,0.0,0.0,0.0,0.0,0.0,0.0,0.0,0.0,0.0,0.0,0.0,0.0,0.0,0.0,0.0,0.0,0.0,0.0,0.0,0.0,0.0,0.0,0.0,0.0,0.0,0.0,0.0,0.0,0.0,0.0,0.0,0.0,0.0,0.0,0.0,0.0,0.0,0.0,0.0,0.0,0.0,0.0,0.0,0.0,0.0,0.0,0.0,0.0,0.0,0.0,4.266,4.5279,0.0,0.0,4.4724,4.549,4.5791,4.7364,4.8359,4.8754,4.9109,4.9194,4.8916,4.8942,4.8707,4.8321,4.9119,4.9834,5.0123,5.0601,5.113,5.1417,5.1897,5.1729,5.1274,5.1537,5.1462,5.0768,4.924,4.7508,4.5755,4.4948,4.4739,4.4768,4.4255,4.4302,4.4642,0.0,0.0,0.0,0.0,0.0,0.0,0.0,0.0,0.0,0.0,0.0,0.0,0.0,0.0,0.0,0.0,0.0,0.0,0.0,0.0,0.0,0.0,0.0,0.0,0.0,0.0,0.0,0.0,0.0,0.0,0.0,0.0,0.0,0.0,0.0,0.0,0.0,0.0,0.0,0.0,0.0,0.0,3.6133,0.0,0.0,0.0,0.0,0.0,0.0,0.0,0.0,0.0,0.0,0.0,0.0,0.0,0.0,0.0,0.0,0.0,0.0,0.0,0.0,0.0,0.0,0.0,0.0,0.0,0.0,0.0,0.0,0.0,0.0,0.0,0.0,0.0,0.0,0.0,4.5429,4.4995,4.7733,4.9088,4.7516,4.7783,4.8554,4.9544,5.0124,5.0765,5.1506,5.1352,5.1008,5.0435,5.0396,5.0142,4.9513,5.0156,5.0787,5.1526,5.184,5.223,5.2694,5.2986,5.2986,5.2548,5.2816,5.272,5.2235,5.1513,5.0095,4.8267,4.7714,4.7521,4.7449,4.692,4.6824,4.6848,0.0,0.0,0.0,0.0,0.0,0.0,0.0,0.0,0.0,0.0,0.0,0.0,0.0,0.0,0.0,0.0,0.0,0.0,0.0,0.0,0.0,0.0,0.0,0.0,0.0,0.0,0.0,0.0,0.0,0.0,0.0,0.0,0.0,0.0,0.0,0.0,0.0,0.0,0.0,0.0,0.0,0.0,4.0891,0.0,0.0,0.0,0.0,0.0,0.0,0.0,0.0,0.0,0.0,0.0,0.0,0.0,0.0,0.0,0.0,0.0,0.0,0.0,0.0,0.0,0.0,0.0,0.0,0.0,0.0,0.0,0.0,0.0,0.0,0.0,0.0,0.0,4.203,4.613,4.8457,4.6075,5.0519,5.2729,5.0067,5.1432,5.2989,5.3668,5.2766,5.2185,5.2259,5.2048,5.1221,4.9985,5.0421,5.0572,5.056,5.0537,5.1107,5.2307,5.2369,5.2928,5.3544,5.3755,5.3558,5.3101,5.3101,5.2812,5.2331,5.2307,5.2018,5.1393,4.9782,4.9157,4.9084,4.8555,4.8026,4.7473,0.0,0.0,0.0,0.0,0.0,0.0,0.0,0.0,0.0,0.0,0.0,0.0,0.0,0.0,0.0,0.0,0.0,0.0,0.0,0.0,0.0,0.0,0.0,0.0,0.0,0.0,0.0,0.0,0.0,0.0,0.0,0.0,0.0,0.0,0.0,0.0,0.0,0.0,0.0,0.0,0.0,0.0,4.0445,0.0,0.0,0.0,0.0,0.0,0.0,0.0,0.0,0.0,0.0,0.0,0.0,0.0,0.0,0.0,0.0,0.0,0.0,0.0,0.0,0.0,0.0,0.0,0.0,0.0,0.0,0.0,0.0,0.0,0.0,0.0,0.0,4.6192,4.6465,4.8964,5.0989,5.1975,5.352,5.4468,5.4461,5.4476,5.4762,5.5115,5.4684,5.4223,5.3966,5.3352,5.2764,5.247,5.1931,5.1754,5.214,5.2377,5.2641,5.2941,5.3234,5.3606,5.3755,5.375,5.375,5.3606,5.3606,5.3534,5.3365,5.3004,5.298,5.3029,5.1441,5.084,5.0768,5.0239,4.9445,4.8628,0.0,0.0,0.0,0.0,0.0,0.0,0.0,0.0,0.0,0.0,0.0,0.0,0.0,0.0,0.0,0.0,0.0,0.0,0.0,0.0,0.0,0.0,0.0,0.0,0.0,0.0,0.0,0.0,0.0,0.0,0.0,0.0,0.0,0.0,0.0,0.0,0.0,0.0,0.0,0.0,0.0,0.0,4.3218,4.1595,4.0765,4.0127,3.8435,3.7517,3.6975,3.6043,0.0,0.0,0.0,0.0,0.0,0.0,0.0,0.0,0.0,0.0,0.0,0.0,0.0,0.0,0.0,0.0,0.0,0.0,0.0,0.0,0.0,0.0,0.0,0.0,4.6948,4.9436,5.0703,5.1689,5.2798,5.4055,5.4915,5.5546,5.6175,5.5516,5.5386,5.6245,5.523,5.4571,5.4491,5.3717,5.3156,5.3101,5.2853,5.2946,5.3561,5.372,5.3885,5.4191,5.4103,5.4159,5.4135,5.3918,5.3822,0.0,5.3822,5.3822,5.3798,5.351,5.3558,0.0,0.0,0.0,0.0,0.0,5.0816,5.0046,0.0,0.0,0.0,0.0,0.0,0.0,0.0,0.0,0.0,0.0,0.0,0.0,0.0,0.0,0.0,0.0,0.0,0.0,0.0,0.0,0.0,0.0,0.0,0.0,0.0,0.0,0.0,0.0,0.0,0.0,0.0,0.0,0.0,0.0,0.0,0.0,0.0,0.0,0.0,0.0,0.0,0.0,4.7292,4.3561,4.2946,4.3448,4.0084,3.8526,3.8016,3.7467,0.0,0.0,0.0,0.0,0.0,0.0,0.0,0.0,0.0,0.0,0.0,0.0,0.0,0.0,0.0,0.0,0.0,0.0,0.0,0.0,0.0,0.0,0.0,0.0,4.9883,5.2134,5.4119,5.4023,5.376,5.3888,5.5135,5.5998,5.6155,5.528,5.5381,5.6861,5.5018,5.4048,5.4351,0.0,0.0,0.0,0.0,5.403,5.4884,5.4812,5.5099,5.5385,5.4928,5.4688,5.4688,5.4159,5.3918,5.3918,5.3846,5.3822,5.3822,5.3822,5.3822,5.3774,5.3341,5.3149,5.3101,5.262,5.2115,5.161,0.0,0.0,0.0,0.0,0.0,0.0,0.0,0.0,0.0,0.0,0.0,0.0,0.0,0.0,0.0,0.0,0.0,0.0,0.0,0.0,0.0,0.0,0.0,0.0,0.0,0.0,0.0,0.0,0.0,0.0,0.0,0.0,0.0,0.0,0.0,0.0,0.0,0.0,0.0,0.0,0.0,0.0,4.7914,4.7085,4.6439,4.5869,4.4253,4.3144,4.2204,4.0373,3.9402,3.8825,3.8007,0.0,0.0,0.0,0.0,0.0,0.0,0.0,0.0,0.0,0.0,0.0,0.0,0.0,0.0,0.0,0.0,0.0,0.0,0.0,0.0,4.8776,5.0878,5.274,5.399,5.4123,5.4469,5.5542,5.5359,5.5368,5.5998,5.5131,5.5137,5.6465,5.5532,5.4882,5.4927,5.4714,0.0,5.4499,5.4485,5.4846,5.5407,5.5315,5.5385,5.5385,0.0,0.0,5.5217,5.4688,5.4447,5.4423,5.3991,5.3822,5.3822,5.3822,5.3822,5.3822,5.3702,5.3678,5.3654,5.3558,5.3197,5.274,0.0,0.0,0.0,0.0,0.0,0.0,0.0,0.0,0.0,0.0,0.0,0.0,0.0,0.0,0.0,0.0,0.0,0.0,0.0,0.0,0.0,0.0,0.0,0.0,0.0,0.0,0.0,0.0,0.0,0.0,0.0,0.0,0.0,0.0,0.0,0.0,0.0,0.0,0.0,0.0,0.0,0.0,5.0108,4.9576,4.9077,4.8628,4.8098,4.6945,4.5787,4.4617,4.3168,4.1777,4.1163,3.9868,3.8428,0.0,0.0,0.0,0.0,0.0,0.0,0.0,0.0,0.0,0.0,0.0,0.0,0.0,0.0,4.1813,0.0,0.0,4.9025,5.1467,5.3152,5.4445,5.5221,5.5178,5.5061,5.5098,5.531,5.5569,5.631,5.5788,5.5719,5.6491,5.6327,5.5953,5.5438,5.5973,5.6159,5.606,5.596,5.6279,5.6678,5.6574,5.6468,5.6203,5.6203,5.6083,5.5794,5.5241,5.5001,5.4977,5.4736,5.4447,5.4183,5.3918,5.3822,5.3822,5.3822,5.3822,5.3822,5.3822,5.3654,5.3413,0.0,0.0,0.0,0.0,0.0,0.0,0.0,0.0,0.0,0.0,0.0,0.0,0.0,0.0,0.0,0.0,0.0,0.0,0.0,0.0,0.0,0.0,0.0,0.0,0.0,0.0,0.0,0.0,0.0,0.0,0.0,0.0,0.0,0.0,0.0,0.0,0.0,0.0,0.0,0.0,0.0,0.0,5.2473,5.1537,5.1034,5.0842,5.0746,4.9581,4.7959,4.7982,4.6377,4.4336,4.421,4.2812,4.0871,3.9504,3.9014,0.0,0.0,0.0,0.0,0.0,0.0,0.0,0.0,0.0,4.0749,4.302,4.4111,4.532,4.7359,4.9795,5.2154,5.4178,5.5245,5.6067,5.6585,5.6185,5.5738,5.5111,5.5506,5.6067,5.6608,5.6655,5.6702,5.6796,5.7267,5.7125,5.6371,5.7055,5.7525,5.7305,5.7424,5.7587,5.7814,5.7911,5.7742,5.7333,5.7237,5.6949,5.6516,5.5866,5.5554,5.5554,5.5337,5.5049,5.4712,5.4087,5.387,5.3966,5.387,5.3822,5.3822,5.3822,5.3822,5.375,0.0,0.0,0.0,0.0,0.0,0.0,0.0,0.0,0.0,0.0,0.0,0.0,0.0,0.0,0.0,0.0,0.0,0.0,0.0,0.0,0.0,0.0,0.0,0.0,0.0,0.0,0.0,0.0,0.0,0.0,0.0,0.0,0.0,0.0,0.0,0.0,0.0,0.0,0.0,0.0,0.0,0.0,5.3695,5.31,5.2292,5.1388,5.0646,4.9389,4.8097,4.7836,4.7092,4.6518,4.6472,4.5318,4.345,4.1542,0.0,3.758,3.5719,0.0,0.0,4.0342,4.1065,4.2667,0.0,0.0,4.7841,5.0101,5.1321,5.1945,5.2088,5.3708,5.5216,5.5569,5.6044,5.6608,5.7125,5.7077,5.7238,5.7454,5.6819,5.6632,5.7149,5.7196,5.7384,5.7854,5.7834,5.7905,5.8427,5.8447,5.818,5.7814,5.8271,5.8295,5.7814,5.8271,5.8488,5.8416,5.7935,5.7694,5.7598,5.6588,5.6131,5.6083,5.5121,5.4928,5.5241,5.4231,5.4087,5.4471,5.3991,5.3822,5.3822,5.3822,5.3822,5.3822,0.0,0.0,0.0,0.0,0.0,0.0,0.0,0.0,0.0,0.0,0.0,0.0,0.0,0.0,0.0,0.0,0.0,0.0,0.0,0.0,0.0,0.0,0.0,0.0,0.0,0.0,0.0,0.0,0.0,0.0,0.0,0.0,0.0,0.0,0.0,0.0,0.0,0.0,0.0,0.0,0.0,0.0,5.3832,5.3466,5.1858,4.9793,4.899,4.8403,0.0,0.0,4.5989,4.5599,4.6173,4.5064,4.317,4.0968,3.9684,0.0,3.9539,0.0,0.0,0.0,4.5305,4.6969,4.9382,4.985,5.0336,5.298,5.4175,5.5015,5.5516,5.7132,5.8352,0.0,5.926,5.969,5.9928,5.9404,5.883,5.8734,5.8092,5.7973,5.8497,5.8831,5.8974,5.8903,5.9404,5.9452,5.9069,5.9308,5.9426,5.9185,5.9113,5.8945,5.8728,5.8945,5.8897,5.8608,5.8367,5.8103,5.779,5.7045,5.6684,5.6636,5.553,5.5193,5.5313,5.4255,5.3942,5.4135,5.3918,5.3822,5.3822,5.3822,5.3822,5.3822,0.0,0.0,0.0,0.0,0.0,0.0,0.0,0.0,0.0,0.0,0.0,0.0,0.0,0.0,0.0,0.0,0.0,0.0,0.0,0.0,0.0,0.0,0.0,0.0,0.0,0.0,0.0,0.0,0.0,0.0,0.0,0.0,0.0,0.0,0.0,0.0,0.0,0.0,0.0,0.0,0.0,0.0,5.36,5.2875,5.0957,4.8545,4.7586,4.6772,0.0,0.0,4.4382,4.4354,4.4718,4.384,4.2143,3.9983,3.8943,3.8919,4.159,0.0,0.0,4.6665,4.8913,5.0871,5.1196,5.1895,5.3132,5.5878,5.6997,5.7862,5.8921,6.0171,0.0,6.1374,6.1758,6.2023,6.2023,6.0941,6.0027,5.9642,5.9017,5.8752,5.9137,5.9642,5.9931,5.9834,6.0532,6.0628,5.9691,6.0195,6.0267,5.9787,5.9714,5.9546,5.9378,5.9522,5.9402,5.9041,5.8872,5.8536,5.8007,5.7333,5.7021,5.6973,5.6035,5.5626,5.5554,5.4471,5.4111,5.4231,5.3942,5.3918,5.4015,5.387,5.3822,5.3822,0.0,0.0,0.0,0.0,0.0,0.0,0.0,0.0,0.0,0.0,0.0,0.0,0.0,0.0,0.0,0.0,0.0,0.0,0.0,0.0,0.0,0.0,0.0,0.0,0.0,0.0,0.0,0.0,0.0,0.0,0.0,0.0,0.0,0.0,0.0,0.0,0.0,0.0,0.0,0.0,0.0,0.0,5.3155,5.1393,4.996,4.8474,4.6611,0.0,0.0,0.0,4.2472,4.3461,4.2719,4.1969,0.0,3.915,3.6939,0.0,0.0,0.0,4.3742,4.794,5.0984,5.3485,5.5554,5.6419,5.755,6.0219,6.0796,6.1157,6.2239,6.2889,6.3081,6.2624,6.2552,6.2576,6.2576,6.1181,6.0171,6.0147,5.9233,5.8608,0.0,5.9113,5.9834,6.0845,6.0941,6.0794,6.0258,6.077,6.0291,5.876,5.9715,5.9907,5.9402,5.9883,6.0147,6.0123,5.9594,5.9089,5.8536,5.7502,5.7021,5.6997,5.6444,5.6203,5.6131,5.5025,5.488,5.5241,5.4231,5.4135,5.452,5.4015,5.3822,5.3822,0.0,0.0,0.0,0.0,0.0,0.0,0.0,0.0,0.0,0.0,0.0,0.0,0.0,0.0,0.0,0.0,0.0,0.0,0.0,0.0,0.0,0.0,0.0,0.0,0.0,0.0,0.0,0.0,0.0,0.0,0.0,0.0,0.0,0.0,0.0,0.0,0.0,0.0,0.0,0.0,0.0,5.3295,5.1365,5.0022,4.7092,4.3473,0.0,0.0,0.0,0.0,0.0,0.0,4.0106,0.0,0.0,3.756,3.8556,4.0687,0.0,0.0,4.9336,5.298,5.476,5.6155,5.7935,5.9017,5.9883,6.0772,5.9332,5.7763,5.7432,5.7479,5.7763,5.8474,6.0839,6.2817,6.3514,6.2841,6.1758,6.0339,5.9546,0.0,0.0,0.0,0.0,5.9907,6.0917,6.1374,6.0818,6.0965,6.0965,6.0818,6.0796,6.0796,6.0989,6.0796,6.07,6.0676,5.945,5.8392,5.755,5.7189,5.7021,5.6997,5.6468,5.6227,5.6179,5.5433,5.5025,5.4832,5.4471,5.4231,5.4111,5.4279,5.4351,5.4303,0.0,0.0,0.0,0.0,0.0,0.0,0.0,0.0,0.0,0.0,0.0,0.0,0.0,0.0,0.0,0.0,0.0,0.0,0.0,0.0,0.0,0.0,0.0,0.0,0.0,0.0,0.0,0.0,0.0,0.0,0.0,0.0,0.0,0.0,0.0,0.0,0.0,0.0,0.0,0.0,5.2864,5.0788,4.8498,4.7642,4.4697,0.0,0.0,0.0,0.0,0.0,0.0,0.0,0.0,3.7405,3.7096,3.7418,3.9855,4.3286,0.0,5.007,5.276,5.6468,5.7886,5.8752,5.9955,6.0917,6.1542,6.1542,5.9046,5.6513,5.5671,5.5452,5.5239,5.4905,5.8283,6.1102,6.1764,6.1604,6.1178,6.0556,5.9642,0.0,0.0,0.0,0.0,5.9666,6.0989,6.1638,6.1106,6.1614,6.1807,6.1634,6.1446,6.1446,6.1807,6.1253,6.0869,6.0676,5.9257,5.8247,5.7574,5.7189,5.7021,5.6997,5.666,5.6419,5.6227,5.6059,5.5674,5.5193,5.5193,5.4977,5.4712,5.4832,5.488,5.4832,0.0,0.0,0.0,0.0,0.0,0.0,0.0,0.0,0.0,0.0,0.0,0.0,0.0,0.0,0.0,0.0,0.0,0.0,0.0,0.0,0.0,0.0,0.0,0.0,0.0,0.0,0.0,0.0,0.0,0.0,0.0,0.0,0.0,0.0,0.0,0.0,0.0,0.0,0.0,5.1369,4.9594,4.7377,4.5029,4.4487,0.0,0.0,0.0,0.0,0.0,0.0,0.0,0.0,0.0,0.0,3.6954,3.929,4.1208,4.3915,5.008,5.2339,5.4119,5.856,6.0315,6.1157,6.171,6.2215,6.2552,6.2408,5.9643,5.7162,0.0,0.0,5.4988,5.2627,5.5555,5.8071,5.8183,5.8188,5.9117,0.0,0.0,0.0,0.0,0.0,0.0,6.0147,0.0,6.161,6.1161,6.2617,6.2713,6.1233,6.1682,6.1855,6.1879,6.1301,6.0724,6.0171,5.9113,5.8584,5.8512,5.7502,5.7021,5.7021,5.7021,5.6732,5.6323,5.6804,5.6732,5.6275,5.6251,5.6227,5.6179,5.5626,5.5433,5.5433,0.0,0.0,0.0,0.0,0.0,0.0,0.0,0.0,0.0,0.0,0.0,0.0,0.0,0.0,0.0,0.0,0.0,0.0,0.0,0.0,0.0,0.0,0.0,0.0,0.0,0.0,0.0,0.0,0.0,0.0,0.0,0.0,0.0,0.0,0.0,0.0,0.0,0.0,4.9405,4.9937,0.0,4.5594,4.4549,0.0,0.0,0.0,0.0,0.0,0.0,0.0,0.0,0.0,0.0,0.0,4.2042,4.469,4.7495,5.0837,5.4865,5.7045,5.8993,6.1662,6.1951,6.1831,6.272,6.2744,6.185,5.8969,5.495,5.0956,0.0,0.0,0.0,5.0557,5.6091,0.0,6.2848,6.3193,0.0,0.0,0.0,6.1662,6.0484,6.0364,0.0,0.0,6.1398,6.2119,6.2737,6.3025,6.3394,6.3336,6.2793,6.2552,6.2937,6.2047,6.1109,6.0171,5.9113,5.8392,5.7983,5.7333,5.7021,5.7021,5.7021,5.6949,5.6828,5.6973,5.6949,5.678,5.6395,5.6227,5.6227,5.6083,5.6011,5.6083,0.0,0.0,0.0,0.0,0.0,0.0,0.0,0.0,0.0,0.0,0.0,0.0,0.0,0.0,0.0,0.0,0.0,0.0,0.0,0.0,0.0,0.0,0.0,0.0,0.0,0.0,0.0,0.0,0.0,0.0,0.0,0.0,0.0,0.0,0.0,0.0,0.0,0.0,0.0,0.0,0.0,0.0,0.0,0.0,0.0,0.0,0.0,0.0,0.0,0.0,0.0,4.1354,4.2315,4.3813,4.5988,4.9097,0.0,5.4841,5.8209,6.0291,6.1951,6.361,6.3586,6.2889,6.1658,6.101,5.9213,5.4452,5.0387,0.0,0.0,0.0,0.0,0.0,0.0,0.0,6.1803,6.2872,6.3576,0.0,6.3803,0.0,6.2095,6.1807,6.1879,0.0,0.0,6.272,6.3298,6.3995,6.4404,6.4476,6.3682,6.3057,6.2672,6.2095,6.1253,6.0171,5.9113,5.844,5.8127,5.7357,5.7021,5.7021,0.0,5.7141,5.7357,5.7357,5.7357,5.7333,5.7045,5.678,5.6588,5.6588,5.6588,5.6612,0.0,0.0,0.0,0.0,0.0,0.0,0.0,0.0,0.0,0.0,0.0,0.0,0.0,0.0,0.0,0.0,0.0,0.0,0.0,0.0,0.0,0.0,0.0,0.0,0.0,0.0,0.0,0.0,0.0,0.0,0.0,0.0,0.0,0.0,0.0,0.0,0.0,0.0,0.0,0.0,0.0,0.0,0.0,0.0,0.0,0.0,0.0,0.0,0.0,0.0,4.3575,4.3333,4.5023,4.7111,4.9581,5.3219,5.5397,5.7461,6.0748,6.26,6.3899,6.4957,6.5005,6.3875,5.9954,5.8283,5.5842,4.9507,0.0,0.0,4.2456,0.0,4.6194,4.5989,0.0,5.7762,5.9389,6.0869,6.2752,6.5005,6.4428,6.3827,6.3754,6.3298,6.337,6.426,6.3923,6.3658,6.3658,6.4957,6.5438,6.4837,6.4235,6.3298,6.2023,6.1807,6.1253,6.0388,5.9233,5.8704,5.8656,5.7598,5.7117,5.7117,0.0,0.0,5.7694,5.7694,5.779,5.7911,5.7766,5.7502,5.7213,5.7069,5.7021,5.7021,0.0,0.0,0.0,0.0,0.0,0.0,0.0,0.0,0.0,0.0,3.4259,3.4649,0.0,0.0,0.0,0.0,0.0,0.0,0.0,0.0,0.0,0.0,0.0,0.0,0.0,0.0,0.0,0.0,0.0,0.0,0.0,0.0,0.0,0.0,0.0,0.0,0.0,0.0,0.0,0.0,0.0,0.0,0.0,0.0,0.0,0.0,0.0,0.0,0.0,0.0,4.7671,4.8991,5.1348,5.3186,5.5186,5.876,6.0241,6.1398,6.4139,6.5077,6.5534,6.6616,6.5558,6.3336,6.0337,5.7261,0.0,0.0,0.0,4.1882,4.0209,0.0,0.0,5.0559,0.0,0.0,0.0,0.0,6.5967,0.0,0.0,0.0,0.0,0.0,0.0,0.0,0.0,0.0,6.5294,6.5558,6.527,6.4284,6.3346,6.2937,6.3081,6.1758,6.1253,6.1494,5.9979,5.9257,5.9209,5.8151,5.767,5.7646,0.0,0.0,5.7165,5.7165,5.767,5.8367,5.7502,5.7646,5.8223,5.7333,5.7021,5.7021,0.0,0.0,0.0,0.0,0.0,0.0,0.0,3.1809,3.2796,3.3717,3.4219,3.4495,3.4558,3.4459,3.4605,0.0,0.0,0.0,0.0,0.0,0.0,0.0,0.0,0.0,0.0,0.0,0.0,0.0,0.0,0.0,0.0,0.0,0.0,0.0,0.0,0.0,0.0,0.0,0.0,0.0,0.0,0.0,0.0,0.0,0.0,0.0,0.0,0.0,0.0,0.0,4.7364,5.1537,5.4216,5.6067,5.7616,6.0632,6.2051,6.3217,6.5197,6.6328,6.6953,6.6881,6.5702,6.2953,5.7071,0.0,0.0,0.0,0.0,3.911,3.9278,0.0,0.0,0.0,0.0,0.0,0.0,0.0,0.0,0.0,0.0,0.0,0.0,0.0,0.0,0.0,0.0,0.0,6.5318,6.5294,6.4933,6.4163,6.337,6.2961,6.2961,6.1927,6.1398,6.135,6.0291,5.9642,5.9353,5.8584,5.8223,5.8199,5.767,0.0,5.779,5.7237,5.7478,5.8103,5.7333,5.7333,5.7718,5.7213,5.7021,5.7021,0.0,0.0,0.0,0.0,0.0,0.0,0.0,3.197,3.2788,3.3966,3.4156,3.4403,3.4813,3.4078,3.3931,0.0,0.0,0.0,0.0,0.0,0.0,0.0,0.0,0.0,0.0,0.0,0.0,0.0,0.0,0.0,0.0,0.0,0.0,0.0,0.0,0.0,0.0,0.0,0.0,0.0,0.0,0.0,0.0,0.0,0.0,0.0,0.0,0.0,0.0,0.0,4.5845,5.0596,5.4247,5.6435,5.8351,6.1126,6.2545,6.3624,6.5438,6.7049,6.7987,6.6785,6.5534,6.2449,5.4193,5.032,0.0,0.0,0.0,0.0,0.0,0.0,0.0,0.0,0.0,0.0,0.0,0.0,0.0,0.0,0.0,0.0,0.0,0.0,0.0,0.0,0.0,0.0,0.0,6.5029,6.4716,6.4308,6.3562,6.3033,6.2744,6.2119,6.1638,6.1301,6.0652,6.0123,5.969,5.9065,5.8752,5.8728,5.8199,0.0,0.0,5.7526,5.743,5.7766,5.7237,5.7093,5.7189,5.7069,5.7093,5.7165,0.0,0.0,0.0,0.0,0.0,0.0,0.0,3.1137,3.1772,3.3975,3.4726,3.531,3.6182,3.3818,3.2147,0.0,0.0,0.0,0.0,0.0,0.0,0.0,0.0,0.0,0.0,0.0,0.0,0.0,0.0,0.0,0.0,0.0,0.0,0.0,0.0,0.0,0.0,0.0,0.0,0.0,0.0,0.0,0.0,0.0,0.0,0.0,0.0,0.0,0.0,0.0,0.0,4.4737,5.0474,5.4107,5.7204,6.0629,0.0,0.0,6.5645,6.7602,6.8444,6.6881,6.4981,6.1556,5.461,0.0,0.0,0.0,0.0,3.7111,3.9209,0.0,0.0,0.0,0.0,5.0654,0.0,0.0,0.0,0.0,0.0,0.0,0.0,0.0,0.0,0.0,0.0,0.0,0.0,6.5438,6.4885,6.4837,6.3418,6.2841,6.3274,6.2287,6.2023,6.2432,6.1398,6.0869,6.0772,5.9762,5.9305,5.9281,0.0,0.0,0.0,5.779,5.7766,5.7766,5.7237,5.7309,5.767,5.7189,5.7333,5.767,0.0,0.0,0.0,0.0,0.0,0.0,3.1942,3.1272,3.1625,3.4424,3.4123,3.4212,3.5709,3.3795,3.2695,3.3399,0.0,0.0,0.0,0.0,0.0,0.0,0.0,0.0,0.0,0.0,0.0,0.0,0.0,0.0,0.0,0.0,0.0,0.0,0.0,0.0,0.0,0.0,0.0,0.0,0.0,0.0,0.0,0.0,0.0,0.0,0.0,0.0,0.0,0.0,0.0,0.0,4.6339,4.8962,0.0,0.0,6.1006,6.3126,6.5437,6.7568,6.8898,6.6531,6.4187,6.0532,5.4226,0.0,0.0,0.0,3.8343,3.7867,3.9632,3.9361,4.039,4.4681,4.5371,0.0,0.0,0.0,0.0,0.0,0.0,0.0,0.0,0.0,0.0,0.0,0.0,0.0,0.0,6.5197,6.4452,6.4452,6.3249,6.2841,6.3346,6.2624,6.2384,6.2576,6.2143,6.1782,6.1446,6.0676,6.0339,6.0291,0.0,0.0,0.0,5.8416,5.8271,5.8271,5.8055,5.8103,5.8223,5.7694,5.7838,5.8175,0.0,0.0,0.0,0.0,0.0,3.1571,3.2946,3.1981,3.2215,3.506,3.406,3.3859,3.5776,3.4248,3.3557,3.4805,3.3171,0.0,0.0,0.0,0.0,0.0,0.0,0.0,0.0,0.0,0.0,0.0,0.0,0.0,0.0,0.0,0.0,0.0,0.0,0.0,0.0,0.0,0.0,0.0,0.0,0.0,0.0,0.0,0.0,0.0,0.0,0.0,0.0,0.0,0.0,0.0,0.0,0.0,0.0,0.0,5.8648,6.1982,6.3399,6.6324,6.837,6.5537,6.2776,5.9233,0.0,0.0,0.0,0.0,3.8927,3.8586,3.9904,3.9523,4.0073,4.2959,4.3625,4.5572,0.0,0.0,0.0,0.0,0.0,0.0,0.0,0.0,0.0,0.0,0.0,0.0,0.0,6.5294,6.4524,6.4356,6.3346,6.2985,6.3346,6.2985,6.2817,6.2817,6.2504,6.2239,6.1999,6.1133,6.082,6.0917,0.0,0.0,0.0,5.8993,5.8728,5.8608,5.8608,5.8608,5.856,5.8175,5.8367,5.8704,0.0,0.0,0.0,0.0,0.0,0.0,3.3933,3.3543,3.3795,3.5941,3.4997,3.4946,3.6903,3.5259,3.4443,3.5429,3.3079,0.0,0.0,0.0,0.0,0.0,0.0,0.0,0.0,0.0,0.0,0.0,0.0,0.0,0.0,0.0,0.0,0.0,0.0,0.0,0.0,0.0,0.0,0.0,0.0,0.0,0.0,0.0,0.0,0.0,0.0,0.0,0.0,0.0,0.0,0.0,0.0,0.0,0.0,0.0,5.4473,5.8505,5.8998,6.3602,6.7246,6.3538,6.0892,5.7476,0.0,0.0,0.0,0.0,3.8809,3.8842,3.9601,4.0062,4.0944,4.2963,4.3088,4.4743,5.0355,0.0,0.0,0.0,0.0,0.0,0.0,0.0,0.0,0.0,0.0,0.0,0.0,0.0,6.5438,6.4933,6.3875,6.3346,6.3346,6.3346,6.3322,6.3322,6.2287,6.2071,6.2528,6.0917,6.046,0.0,0.0,0.0,0.0,5.9378,5.9065,5.8608,5.8608,5.8608,5.8608,5.8584,5.8921,5.9305,0.0,0.0,0.0,0.0,0.0,0.0,0.0,3.2765,3.2905,3.425,3.4152,3.4282,3.5133,3.5202,3.4986,3.4573,3.2988,0.0,0.0,0.0,0.0,0.0,0.0,0.0,0.0,0.0,0.0,0.0,0.0,0.0,0.0,0.0,0.0,0.0,0.0,0.0,0.0,0.0,0.0,0.0,0.0,0.0,0.0,0.0,0.0,0.0,0.0,0.0,0.0,0.0,0.0,0.0,0.0,0.0,0.0,0.0,0.0,0.0,5.5584,5.8648,6.0949,5.8521,5.6424,5.3967,5.0416,0.0,0.0,0.0,3.9779,3.912,3.9909,3.9937,4.0831,4.3437,4.4383,4.595,0.0,0.0,0.0,0.0,0.0,0.0,0.0,0.0,0.0,0.0,0.0,0.0,0.0,0.0,6.5462,6.4933,6.4235,6.3706,6.3346,6.3346,6.3346,6.3346,6.3009,6.2937,6.3057,6.1831,0.0,0.0,0.0,0.0,0.0,6.0075,5.9834,5.9666,5.9666,5.9666,5.9642,5.9257,5.9474,5.9786,0.0,0.0,0.0,0.0,0.0,0.0,0.0,3.3642,3.3616,3.4439,3.4018,3.3938,3.469,3.507,3.5279,3.5162,3.423,0.0,0.0,0.0,0.0,0.0,0.0,0.0,0.0,0.0,0.0,3.5172,3.4401,3.4513,3.5522,3.4865,0.0,0.0,0.0,0.0,0.0,0.0,0.0,0.0,0.0,0.0,3.6523,0.0,0.0,0.0,0.0,0.0,0.0,0.0,0.0,0.0,0.0,0.0,0.0,0.0,4.6248,0.0,0.0,5.4962,5.7192,5.5331,5.3406,0.0,0.0,0.0,0.0,0.0,0.0,4.0514,4.0569,4.0982,4.1816,4.3758,4.5119,4.6693,4.906,0.0,0.0,0.0,0.0,0.0,0.0,0.0,0.0,0.0,0.0,0.0,0.0,0.0,6.5751,6.5221,6.4692,6.4163,6.3634,6.3634,6.3538,6.3346,6.2937,6.2841,6.3009,6.1734,0.0,0.0,0.0,0.0,0.0,6.0315,6.0171,6.0171,6.0171,6.0171,6.0123,5.981,5.9883,6.0075,0.0,0.0,0.0,0.0,0.0,0.0,0.0,3.5467,3.5574,3.6002,3.4447,3.3834,3.5178,3.491,3.5205,3.6604,0.0,0.0,0.0,0.0,0.0,0.0,0.0,0.0,0.0,3.371,3.3804,3.4865,3.3469,3.3411,3.4606,3.3896,3.4007,3.4865,0.0,0.0,0.0,0.0,0.0,0.0,0.0,0.0,0.0,0.0,0.0,0.0,0.0,0.0,0.0,0.0,0.0,0.0,0.0,0.0,0.0,0.0,0.0,0.0,0.0,0.0,0.0,0.0,0.0,0.0,0.0,0.0,0.0,0.0,0.0,0.0,0.0,4.2736,4.3746,4.395,4.5202,4.7018,0.0,0.0,0.0,0.0,0.0,0.0,0.0,0.0,0.0,0.0,0.0,0.0,0.0,0.0,6.6256,6.5727,6.5221,6.4692,6.4139,6.4091,6.3827,6.3322,6.2336,6.2119,6.2528,6.1037,0.0,0.0,0.0,0.0,0.0,6.0243,6.0195,6.0171,6.0171,6.0171,6.0171,6.0171,6.0171,6.0171,0.0,0.0,0.0,0.0,0.0,0.0,0.0,0.0,0.0,0.0,3.4552,3.4095,3.3249,3.4658,3.5588,0.0,0.0,0.0,0.0,0.0,0.0,0.0,0.0,0.0,0.0,3.3791,3.3985,3.4774,3.4236,3.4428,3.5189,3.5057,3.4891,3.4748,3.427,0.0,0.0,0.0,0.0,0.0,0.0,0.0,0.0,0.0,0.0,0.0,3.5057,3.5957,0.0,0.0,0.0,0.0,0.0,0.0,0.0,0.0,4.3301,4.4511,4.5573,0.0,4.9087,4.916,0.0,0.0,0.0,0.0,0.0,0.0,0.0,0.0,0.0,0.0,4.4816,4.5055,4.6256,4.7691,0.0,0.0,0.0,0.0,0.0,0.0,0.0,0.0,0.0,0.0,0.0,0.0,0.0,0.0,6.6256,6.5727,6.5582,6.5077,6.4139,6.373,6.3466,6.3346,6.3081,6.2841,6.2576,6.2191,0.0,0.0,0.0,0.0,6.1374,6.0965,6.0532,6.0171,6.0171,6.0171,6.0171,6.0171,6.0171,6.0171,0.0,0.0,0.0,0.0,0.0,0.0,0.0,0.0,0.0,0.0,0.0,0.0,0.0,0.0,0.0,0.0,0.0,0.0,0.0,0.0,0.0,0.0,0.0,0.0,0.0,3.3286,3.3368,3.3776,3.3532,3.3957,3.5086,3.5249,3.4977,3.4564,3.4147,0.0,0.0,0.0,0.0,0.0,3.4121,0.0,0.0,0.0,0.0,0.0,3.566,3.6379,0.0,3.9112,3.9983,4.0834,0.0,0.0,0.0,0.0,4.3188,4.4014,4.452,4.5418,4.6447,4.7558,4.6995,0.0,0.0,0.0,0.0,0.0,0.0,0.0,0.0,0.0,0.0,0.0,4.6993,0.0,0.0,0.0,0.0,0.0,0.0,0.0,0.0,0.0,0.0,0.0,0.0,0.0,0.0,0.0,6.5991,6.5702,6.5221,6.4716,6.4139,6.3851,6.3586,6.3346,6.3105,6.272,6.2215,6.2215,6.2095,0.0,0.0,0.0,6.1398,6.1085,6.0652,6.0171,6.0171,6.0171,6.0171,6.0171,6.0171,6.0171,0.0,0.0,0.0,0.0,0.0,0.0,0.0,0.0,0.0,0.0,0.0,0.0,0.0,0.0,0.0,0.0,0.0,0.0,0.0,0.0,0.0,0.0,0.0,0.0,3.3462,3.3038,3.2881,3.2857,3.2696,3.3271,3.4574,3.5006,3.4895,3.4397,3.3894,0.0,0.0,0.0,0.0,0.0,3.3379,0.0,0.0,0.0,0.0,0.0,0.0,0.0,0.0,4.0292,4.1149,4.1566,4.3199,0.0,0.0,0.0,0.0,0.0,4.443,4.4969,4.5863,4.7612,4.7131,4.6515,0.0,0.0,0.0,0.0,0.0,0.0,0.0,0.0,0.0,0.0,0.0,0.0,0.0,0.0,0.0,0.0,0.0,0.0,0.0,0.0,0.0,0.0,0.0,0.0,0.0,0.0,0.0,6.5462,6.4596,6.4091,6.4019,6.4019,6.3779,6.3346,6.2913,6.2384,6.1807,6.1951,6.1686,0.0,0.0,0.0,6.1085,6.1085,6.0724,6.0171,6.0171,6.0171,6.0171,6.0171,6.0171,6.0171,0.0,0.0,0.0,0.0,0.0,0.0,0.0,0.0,0.0,0.0,0.0,0.0,0.0,0.0,0.0,0.0,0.0,0.0,0.0,0.0,0.0,0.0,0.0,3.6556,3.6511,3.516,3.4179,3.356,3.4473,3.4527,3.3829,3.5221,3.5304,3.4397,3.3725,3.3556,3.3725,0.0,0.0,0.0,0.0,0.0,0.0,0.0,0.0,0.0,0.0,0.0,0.0,3.9481,4.0576,4.1528,4.1329,0.0,0.0,0.0,0.0,0.0,4.3813,4.4662,4.6035,4.8322,4.8397,0.0,0.0,0.0,0.0,0.0,0.0,0.0,0.0,0.0,0.0,0.0,0.0,0.0,0.0,0.0,0.0,0.0,0.0,0.0,0.0,0.0,0.0,0.0,0.0,0.0,0.0,0.0,0.0,6.438,6.4211,6.3923,6.3466,6.3466,6.3418,6.3346,6.3274,6.272,6.1831,6.2696,6.2576,0.0,0.0,6.2552,6.1662,6.1662,6.1085,6.0171,6.0171,6.0171,6.0171,6.0171,6.0171,6.0171,0.0,0.0,0.0,0.0,0.0,0.0,0.0,0.0,0.0,0.0,0.0,0.0,0.0,0.0,0.0,0.0,0.0,0.0,0.0,0.0,0.0,0.0,3.7655,3.7246,3.7389,3.6142,3.5278,3.479,3.4787,3.4866,3.4974,3.5197,3.5223,3.5059,3.3894,3.3641,3.4063,3.3979,0.0,0.0,0.0,0.0,0.0,0.0,0.0,0.0,0.0,0.0,0.0,0.0,4.1086,4.2274,4.2178,0.0,0.0,0.0,0.0,0.0,4.2905,4.4138,4.5885,4.7865,4.8161,0.0,0.0,0.0,0.0,0.0,0.0,0.0,0.0,0.0,0.0,0.0,0.0,0.0,0.0,0.0,0.0,0.0,0.0,0.0,0.0,0.0,0.0,0.0,0.0,0.0,0.0,0.0,0.0,0.0,6.3851,6.3586,6.3346,6.3346,6.3346,6.3346,6.3346,6.2793,6.1831,6.2576,6.2528,6.1831,0.0,6.2239,6.1782,6.147,6.0893,6.0171,6.0171,6.0171,6.0171,6.0171,6.0171,6.0123,0.0,0.0,0.0,0.0,0.0,0.0,0.0,0.0,0.0,0.0,0.0,0.0,0.0,0.0,0.0,0.0,0.0,0.0,0.0,0.0,3.7748,3.802,3.8048,3.8106,3.8164,3.6825,3.6195,3.6223,3.537,3.5499,3.635,3.5386,3.5223,3.5548,3.4147,3.381,3.423,3.3894,3.3979,3.4314,0.0,0.0,0.0,0.0,0.0,0.0,0.0,0.0,0.0,0.0,0.0,0.0,0.0,0.0,0.0,4.2518,4.2396,4.2582,4.2164,4.3733,4.5629,0.0,0.0,0.0,0.0,0.0,0.0,0.0,0.0,0.0,0.0,0.0,0.0,0.0,0.0,0.0,0.0,0.0,0.0,0.0,0.0,0.0,0.0,0.0,0.0,0.0,0.0,0.0,0.0,0.0,0.0,0.0,6.349,6.3346,6.3346,6.3346,6.3274,6.3153,6.2977,6.2497,6.1807,6.2041,6.1993,6.1807,6.1807,6.1734,6.1566,6.1133,6.0652,6.0171,6.0171,6.0171,6.0147,6.0027,5.9979,5.9763,0.0,0.0,0.0,0.0,0.0,0.0,0.0,0.0,0.0,0.0,0.0,0.0,0.0,0.0,0.0,0.0,0.0,0.0,0.0,0.0,3.8386,3.9508,3.9711,3.977,3.9858,3.7699,3.688,3.7557,3.7393,3.7326,3.7211,3.6111,3.5548,3.5386,3.4481,3.3894,3.381,3.3979,3.4063,3.4173,3.459,0.0,0.0,0.0,0.0,0.0,0.0,0.0,0.0,0.0,0.0,0.0,0.0,0.0,4.2628,4.2282,4.2219,4.219,4.2065,4.3539,4.4944,0.0,0.0,0.0,0.0,0.0,0.0,0.0,0.0,0.0,0.0,0.0,0.0,0.0,0.0,0.0,0.0,0.0,0.0,0.0,0.0,0.0,0.0,0.0,0.0,0.0,0.0,0.0,0.0,0.0,0.0,0.0,0.0,6.3346,6.3346,6.3346,6.3105,6.2648,6.2274,6.1987,6.1807,6.1311,6.1485,6.1807,6.1807,6.1494,6.1013,6.0989,6.0652,6.0171,6.0171,6.0171,6.0123,5.9618,5.9093,5.8927,0.0,0.0,0.0,0.0,0.0,0.0,0.0,0.0,0.0,0.0,0.0,0.0,0.0,0.0,0.0,0.0,0.0,0.0,0.0,0.0,3.783,3.8292,3.8378,3.8819,3.9557,3.7949,3.7454,3.8034,3.7482,3.7118,3.69,3.579,3.5656,3.6138,3.4977,3.4812,3.5386,3.5059,3.4977,3.5059,3.5168,3.5059,0.0,0.0,0.0,0.0,0.0,0.0,0.0,0.0,3.9897,4.1125,4.1409,4.1904,4.2199,4.2207,4.2045,4.1895,4.1895,4.3326,0.0,0.0,0.0,0.0,0.0,0.0,0.0,0.0,0.0,0.0,0.0,0.0,0.0,0.0,0.0,0.0,0.0,0.0,0.0,0.0,0.0,0.0,0.0,0.0,0.0,0.0,0.0,0.0,0.0,0.0,0.0,0.0,0.0,6.2384,6.2384,6.2384,6.2119,6.159,6.2089,6.1946,6.1277,6.1106,6.1106,6.1253,6.0941,6.0845,6.0941,6.0604,6.0364,6.0147,5.9476,5.9332,5.9308,5.9117,5.8498,5.7952,0.0,0.0,0.0,0.0,0.0,0.0,0.0,0.0,0.0,0.0,0.0,0.0,0.0,0.0,0.0,0.0,0.0,0.0,0.0,3.7284,3.7528,3.7528,3.7908,3.8206,3.845,3.784,3.7676,3.8089,3.7318,3.6924,3.6978,3.5951,3.5898,3.6563,3.5467,3.5467,3.6138,3.5656,3.5467,3.5467,3.5331,3.4977,0.0,0.0,0.0,0.0,0.0,0.0,0.0,0.0,3.9897,4.1191,4.1504,4.1962,4.227,4.2071,4.1913,4.165,4.1607,4.3198,0.0,0.0,0.0,0.0,0.0,0.0,0.0,0.0,0.0,0.0,0.0,0.0,0.0,0.0,0.0,0.0,0.0,0.0,0.0,0.0,0.0,0.0,0.0,0.0,0.0,0.0,0.0,0.0,0.0,0.0,0.0,0.0,0.0,6.1277,6.1106,6.1446,6.1253,6.0555,6.1298,6.125,6.0531,6.0531,6.0531,6.0507,6.0339,6.0291,6.0267,6.0243,6.0075,5.9715,5.9022,5.8426,5.8284,5.8118,5.7881,5.7738,0.0,0.0,0.0,0.0,0.0,0.0,0.0,0.0,0.0,0.0,0.0,0.0,0.0,0.0,0.0,0.0,0.0,0.0,0.0,3.8066,3.7501,3.7528,3.864,3.8423,3.6659,3.7229,3.7612,3.7811,3.701,3.6978,3.7548,3.6772,3.6405,3.6405,3.5898,3.571,3.571,3.5467,3.5331,3.5112,3.4948,3.4865,3.4944,0.0,0.0,0.0,0.0,0.0,0.0,0.0,3.9897,4.1017,4.0803,4.1707,4.2679,4.1895,4.1723,4.1629,4.1389,0.0,0.0,0.0,0.0,0.0,0.0,0.0,0.0,0.0,0.0,0.0,0.0,0.0,0.0,0.0,0.0,0.0,0.0,0.0,0.0,0.0,0.0,0.0,0.0,0.0,0.0,0.0,0.0,0.0,0.0,0.0,0.0,0.0,0.0,5.9979,5.9473,6.0507,6.0507,5.9473,5.9473,5.9473,5.9473,5.9473,5.9473,5.9473,5.9979,5.9691,5.8736,5.9787,5.9524,5.8712,5.8688,5.8047,5.7219,5.6702,5.7149,5.821,0.0,0.0,0.0,0.0,0.0,0.0,0.0,0.0,0.0,0.0,0.0,0.0,0.0,0.0,0.0,0.0,0.0,0.0,0.0,3.8695,3.8195,3.7555,3.6872,3.6764,3.7202,3.7799,3.7585,3.6551,3.6702,3.6587,3.627,3.6111,3.6218,3.6405,3.6058,3.6191,3.6587,3.6377,3.6551,3.6985,3.6901,3.6989,3.698,0.0,0.0,0.0,0.0,0.0,0.0,0.0,0.0,0.0,4.1233,4.1692,4.1914,4.3172,4.2924,4.2431,4.2918,0.0,0.0,0.0,0.0,0.0,0.0,0.0,0.0,0.0,0.0,0.0,0.0,0.0,0.0,0.0,0.0,0.0,0.0,0.0,0.0,0.0,0.0,0.0,0.0,0.0,0.0,0.0,0.0,0.0,0.0,0.0,0.0,0.0,5.8993,5.89,5.8379,5.9044,5.9044,5.8379,5.8379,5.876,5.9427,5.8712,5.8545,5.8924,5.945,5.9522,5.926,5.9619,5.9356,5.8664,5.7642,5.6841,5.6373,5.621,5.6043,5.6249,0.0,0.0,0.0,0.0,0.0,0.0,0.0,0.0,0.0,0.0,0.0,0.0,0.0,0.0,0.0,0.0,0.0,0.0,0.0,0.0,3.8532,3.7153,3.6578,3.6659,3.7372,3.7922,3.7731,3.6789,3.6869,3.6758,3.635,3.635,3.6508,3.6615,3.6429,3.6587,3.6978,3.6615,3.6987,3.7895,3.7424,3.7584,3.8134,0.0,0.0,0.0,0.0,0.0,0.0,0.0,0.0,0.0,4.0286,4.0911,4.1719,4.2572,4.2404,4.2255,0.0,0.0,0.0,0.0,0.0,0.0,0.0,0.0,0.0,0.0,0.0,0.0,0.0,0.0,0.0,0.0,0.0,0.0,0.0,0.0,0.0,0.0,0.0,0.0,0.0,0.0,0.0,0.0,0.0,0.0,0.0,0.0,0.0,0.0,5.7983,5.7797,5.7309,5.8012,5.7945,5.729,5.7503,5.7928,5.8569,5.7905,5.7762,5.814,5.883,5.9331,5.9714,5.9308,5.883,5.833,5.7311,5.6415,5.5924,5.5507,5.5293,5.5777,0.0,0.0,0.0,0.0,0.0,0.0,0.0,0.0,0.0,0.0,0.0,0.0,0.0,0.0,0.0,0.0,0.0,0.0,0.0,0.0,3.8663,3.6571,3.7346,3.7648,3.718,3.778,3.805,3.799,3.756,3.7306,3.7211,3.7056,3.6978,3.69,3.69,3.6985,3.7147,3.638,3.7043,3.8338,3.7094,3.7537,3.8746,3.8282,0.0,0.0,0.0,0.0,0.0,0.0,0.0,0.0,3.8566,3.996,4.1985,4.0893,4.111,0.0,0.0,0.0,0.0,0.0,0.0,0.0,0.0,0.0,0.0,0.0,0.0,0.0,0.0,0.0,0.0,0.0,0.0,0.0,0.0,0.0,0.0,0.0,0.0,0.0,0.0,0.0,0.0,0.0,0.0,0.0,0.0,0.0,0.0,0.0,5.6861,5.6702,5.6245,5.718,5.7233,0.0,5.6961,5.7196,5.7149,5.7243,5.7313,5.755,5.8332,5.9332,6.0147,5.9141,5.8592,5.8163,5.7525,5.6814,5.5817,5.4898,5.5151,5.6069,0.0,0.0,0.0,0.0,0.0,0.0,0.0,0.0,0.0,0.0,0.0,0.0,0.0,0.0,0.0,0.0,0.0,0.0,0.0,0.0,3.8827,3.7178,3.7731,3.7731,3.7016,3.867,3.9116,3.8419,3.8159,3.7517,0.0,3.6665,3.6693,3.6536,3.6111,3.6902,3.844,3.7289,3.8198,4.0211,3.9491,3.9687,4.0383,3.9419,3.9096,0.0,0.0,0.0,0.0,0.0,0.0,0.0,3.8399,4.0188,4.236,4.2128,4.277,0.0,0.0,0.0,0.0,0.0,0.0,0.0,0.0,0.0,0.0,0.0,0.0,0.0,0.0,0.0,0.0,0.0,0.0,0.0,0.0,0.0,0.0,0.0,0.0,0.0,0.0,0.0,0.0,0.0,0.0,0.0,0.0,0.0,0.0,5.6013,5.6013,5.5715,5.5392,5.5809,5.5879,0.0,5.6257,5.6303,5.5603,5.6395,5.7311,5.8379,5.8998,5.969,6.0171,5.9523,5.9069,5.8521,5.8092,5.7285,5.6411,5.6179,5.6336,5.6597,0.0,0.0,0.0,0.0,0.0,0.0,0.0,0.0,0.0,0.0,0.0,0.0,0.0,0.0,0.0,0.0,0.0,0.0,0.0,0.0,0.0,3.7507,3.6896,3.6869,3.7396,3.8089,3.8256,3.8086,3.7833,0.0,0.0,0.0,0.0,3.7703,3.7813,3.8367,3.9117,3.8367,3.9222,4.1146,4.0332,4.0549,4.1435,4.1087,4.0567,3.996,3.9644,0.0,0.0,0.0,0.0,0.0,0.0,0.0,4.0851,4.1187,4.1808,0.0,0.0,0.0,0.0,0.0,0.0,0.0,0.0,0.0,0.0,0.0,0.0,0.0,0.0,0.0,0.0,0.0,0.0,0.0,0.0,0.0,0.0,0.0,0.0,0.0,0.0,0.0,0.0,0.0,0.0,0.0,0.0,5.6762,5.6482,5.5691,5.5691,5.553,5.5392,5.553,5.553,5.5067,5.5766,5.5999,5.5481,5.6202,5.7215,5.8401,5.8997,5.9595,6.0171,5.9642,5.933,5.9045,5.864,5.8042,5.7612,5.7121,5.6926,5.7075,0.0,0.0,0.0,0.0,0.0,0.0,0.0,0.0,0.0,0.0,0.0,0.0,0.0,0.0,0.0,0.0,0.0,0.0,0.0,0.0,0.0,3.7585,3.6253,3.6248,3.7798,3.7334,3.7146,3.7585,0.0,0.0,0.0,0.0,0.0,3.9197,3.9781,4.0006,3.9897,0.0,0.0,4.1691,4.0813,4.0976,4.1746,4.2323,4.1808,4.0641,4.0626,3.9509,3.8054,3.73,0.0,0.0,0.0,0.0,3.9307,3.9797,4.0291,0.0,0.0,0.0,0.0,0.0,0.0,0.0,0.0,0.0,0.0,0.0,0.0,0.0,0.0,0.0,0.0,0.0,0.0,0.0,0.0,0.0,0.0,0.0,0.0,0.0,0.0,0.0,0.0,0.0,0.0,0.0,5.6861,5.6861,5.651,5.5553,5.553,5.553,5.553,5.553,5.5368,5.4905,5.5345,5.5689,5.6099,5.6174,5.6977,5.8089,5.8606,5.9327,6.0003,5.9666,5.9473,5.928,5.8997,5.878,5.8724,5.8021,5.764,5.7677,0.0,0.0,0.0,0.0,0.0,0.0,0.0,0.0,0.0,0.0,0.0,0.0,0.0,0.0,0.0,0.0,0.0,0.0,3.8936,0.0,0.0,3.7585,3.82,3.8283,3.7641,3.8004,3.8004,3.7613,0.0,0.0,0.0,0.0,0.0,3.9704,0.0,0.0,4.2032,0.0,0.0,0.0,0.0,4.1585,4.1121,4.1708,4.1361,4.0513,4.0172,3.9672,3.8912,3.7596,3.7682,0.0,0.0,0.0,4.0065,3.9912,4.0624,0.0,0.0,0.0,0.0,0.0,0.0,0.0,0.0,0.0,0.0,0.0,0.0,0.0,0.0,0.0,0.0,0.0,0.0,0.0,0.0,0.0,0.0,0.0,0.0,0.0,0.0,0.0,0.0,0.0,0.0,0.0,5.5346,5.5346,5.5137,5.4579,5.4579,5.4579,5.4579,5.4579,5.4579,5.4416,5.4485,5.5178,5.6434,5.5662,5.6318,5.8089,5.909,5.9473,5.9642,5.9473,5.9327,5.8988,5.9233,5.9087,5.8818,5.9161,5.8992,5.8554,0.0,0.0,0.0,0.0,0.0,0.0,0.0,0.0,0.0,0.0,0.0,0.0,0.0,0.0,0.0,4.1651,4.0377,3.9419,3.8916,3.8211,3.7777,3.7798,3.778,3.7727,3.7613,3.7318,3.7071,0.0,0.0,0.0,0.0,3.786,3.8605,0.0,0.0,0.0,0.0,0.0,0.0,0.0,0.0,0.0,0.0,4.2113,4.1873,4.095,4.126,4.0521,3.9387,3.8431,3.8303,3.8336,3.7872,0.0,0.0,0.0,0.0,0.0,0.0,0.0,0.0,0.0,0.0,0.0,0.0,0.0,0.0,0.0,0.0,0.0,0.0,0.0,0.0,0.0,0.0,0.0,0.0,0.0,0.0,0.0,0.0,0.0,0.0,0.0,0.0,0.0,0.0,5.5812,5.5486,5.5486,5.523,5.4326,5.4441,5.4441,5.4326,5.4441,5.4416,5.4416,5.4416,5.4809,5.5412,5.5481,5.6252,5.7642,5.816,5.854,5.9069,5.904,5.8988,5.8841,5.9327,5.9304,5.9327,5.9666,5.9666,5.9158,0.0,0.0,0.0,0.0,0.0,0.0,0.0,0.0,0.0,0.0,0.0,0.0,0.0,0.0,0.0,0.0,4.1157,3.9967,3.8703,3.8016,3.7796,3.7811,3.7372,3.7214,3.7494,3.6764,0.0,0.0,0.0,0.0,3.7922,3.8382,3.9399,0.0,4.1361,0.0,0.0,0.0,0.0,0.0,0.0,0.0,0.0,0.0,4.1978,4.0973,4.1761,4.1059,3.9687,3.9168,3.8843,3.864,3.8378,3.8774,0.0,0.0,0.0,0.0,0.0,0.0,0.0,0.0,0.0,0.0,0.0,0.0,0.0,0.0,0.0,0.0,0.0,0.0,0.0,0.0,0.0,0.0,0.0,0.0,0.0,0.0,0.0,0.0,0.0,0.0,0.0,0.0,0.0,5.5461,5.5461,5.5461,5.5113,5.4372,5.4372,5.4395,5.4349,5.4395,5.4416,5.4416,5.4416,5.4416,5.4416,5.5299,5.6022,5.6914,5.7238,5.7831,5.8546,5.8418,5.846,5.863,5.9111,5.9304,5.9473,6.0003,6.0003,5.9642,0.0,0.0,0.0,0.0,0.0,0.0,0.0,0.0,0.0,0.0,0.0,0.0,0.0,4.5477,4.4982,4.2611,4.2326,4.1215,3.876,3.7813,3.7394,3.7577,3.7962,0.0,3.7374,0.0,0.0,0.0,0.0,0.0,3.82,3.8808,3.9747,4.0935,4.1542,4.2306,4.3166,0.0,0.0,0.0,0.0,4.2602,0.0,0.0,0.0,0.0,0.0,0.0,3.9961,3.9481,3.9469,3.9557,3.906,3.9661,4.048,0.0,0.0,0.0,0.0,0.0,0.0,0.0,0.0,0.0,0.0,0.0,0.0,0.0,0.0,0.0,0.0,0.0,0.0,0.0,0.0,0.0,0.0,0.0,0.0,0.0,0.0,0.0,0.0,0.0,0.0,0.0,0.0,5.4462,5.4462,5.4462,5.4416,5.437,5.4393,5.4393,5.437,5.4393,5.4416,5.4416,5.4416,5.4416,5.4416,5.4928,5.5438,5.5832,5.6867,5.7479,5.7999,5.7518,5.7729,5.8113,5.863,5.9158,5.9473,6.0003,6.0171,6.0171,0.0,0.0,0.0,0.0,0.0,0.0,0.0,0.0,0.0,0.0,0.0,0.0,0.0,4.5514,4.4646,4.3688,4.2902,4.1932,4.094,4.0032,3.9073,3.8005,3.767,3.736,3.7134,0.0,0.0,0.0,0.0,3.7868,3.8394,3.955,4.0254,4.0666,4.0768,4.1854,4.3806,4.3336,0.0,0.0,4.3144,4.2072,4.0867,0.0,0.0,0.0,0.0,0.0,0.0,3.9941,4.0133,4.0595,3.9741,3.9707,3.9943,3.959,4.0064,4.1004,0.0,0.0,0.0,0.0,0.0,0.0,0.0,0.0,0.0,0.0,0.0,0.0,0.0,0.0,0.0,0.0,0.0,0.0,0.0,0.0,0.0,0.0,0.0,0.0,0.0,0.0,0.0,0.0,0.0,0.0,5.4416,5.4416,5.4418,5.4257,5.4395,5.4416,5.4416,5.4416,5.4416,5.4416,5.4416,5.4416,5.4416,5.5206,5.553,5.5715,5.6439,5.698,5.7288,5.7337,5.7215,5.7261,5.7944,5.8493,5.8685,5.9883,6.0171,6.0171,0.0,0.0,0.0,0.0,0.0,0.0,0.0,0.0,0.0,0.0,0.0,0.0,0.0,0.0,4.5132,4.5005,4.3698,4.2951,4.2872,4.1853,4.0881,3.977,3.8732,3.8178,3.8295,0.0,0.0,0.0,0.0,0.0,0.0,0.0,4.0873,4.1333,4.0932,0.0,0.0,0.0,0.0,4.4111,0.0,4.2544,4.1646,0.0,0.0,0.0,0.0,0.0,0.0,0.0,4.0989,4.1302,4.0356,3.9897,3.983,4.0267,4.0844,4.1437,4.2333,0.0,0.0,0.0,0.0,0.0,0.0,0.0,0.0,0.0,0.0,0.0,0.0,0.0,0.0,0.0,0.0,0.0,0.0,0.0,0.0,0.0,0.0,0.0,0.0,0.0,0.0,0.0,0.0,0.0,5.4882,5.4882,5.4743,5.4418,5.4395,5.4416,5.4416,5.4416,5.4416,5.4416,5.4416,5.4416,5.4416,5.5368,5.5691,5.5691,5.6382,5.6733,5.709,5.696,5.7125,5.7313,5.7998,5.8496,5.8853,5.9883,6.0075,5.9931,0.0,0.0,0.0,0.0,0.0,0.0,0.0,0.0,0.0,0.0,0.0,0.0,0.0,0.0,0.0,4.6326,4.4929,4.4154,4.4347,4.3183,4.2503,4.2688,4.1261,4.0572,4.1029,0.0,0.0,0.0,0.0,0.0,0.0,0.0,4.1435,0.0,4.2122,4.2351,4.3396,0.0,4.4914,4.4065,0.0,4.3889,4.276,0.0,0.0,0.0,4.2475,4.2,0.0,0.0,0.0,0.0,4.086,4.0387,4.0282,4.1923,4.2671,4.2796,0.0,0.0,0.0,0.0,0.0,0.0,0.0,0.0,0.0,0.0,0.0,0.0,0.0,0.0,0.0,0.0,0.0,0.0,0.0,0.0,0.0,0.0,0.0,0.0,0.0,0.0,0.0,0.0,0.0,5.6654,5.5852,5.5691,5.5368,5.4416,5.4416,5.4416,5.4416,5.4416,5.4416,5.4416,5.4416,5.4416,5.4416,5.5368,5.5691,5.5691,5.6678,5.7021,5.6909,5.6604,5.7265,5.8608,5.864,5.9332,6.0123,6.0171,5.9834,5.945,0.0,0.0,0.0,0.0,0.0,0.0,0.0,0.0,0.0,0.0,0.0,0.0,0.0,0.0,4.5832,4.6691,4.5615,4.4923,4.5035,4.4472,4.3608,4.2747,4.1363,4.0774,4.0944,4.0003,0.0,0.0,0.0,0.0,0.0,0.0,0.0,0.0,4.2535,4.3257,4.4248,4.4166,0.0,0.0,4.4022,4.3339,0.0,0.0,0.0,0.0,0.0,4.2216,0.0,0.0,4.2409,4.1502,0.0,0.0,4.1111,4.041,4.0803,4.1463,4.1781,0.0,0.0,0.0,0.0,0.0,0.0,0.0,0.0,0.0,0.0,0.0,0.0,0.0,0.0,0.0,0.0,0.0,0.0,0.0,0.0,0.0,0.0,0.0,0.0,0.0,0.0,0.0,5.7424,5.6813,5.6654,5.6013,5.5368,5.4416,5.4416,5.4416,5.4416,5.4416,5.4416,5.4416,5.4416,5.4416,5.4416,5.5368,5.5691,5.5691,5.6678,5.7021,5.7045,5.6548,5.6691,5.7066,5.7785,5.8236,5.8617,5.9715,5.9834,5.9402,0.0,0.0,0.0,0.0,0.0,0.0,0.0,0.0,0.0,0.0,0.0,0.0,0.0,0.0,4.61,4.7133,4.6561,4.6058,4.5943,4.5717,4.5191,4.417,4.251,4.1849,4.2278,4.0984,4.0404,0.0,0.0,0.0,0.0,0.0,0.0,0.0,0.0,0.0,0.0,0.0,0.0,0.0,4.4044,0.0,0.0,4.2811,4.2537,0.0,0.0,0.0,4.315,4.4207,4.3623,0.0,0.0,0.0,0.0,4.095,4.1518,4.2247,4.1911,0.0,0.0,0.0,0.0,0.0,0.0,0.0,0.0,0.0,0.0,0.0,0.0,0.0,0.0,0.0,0.0,0.0,0.0,0.0,0.0,0.0,0.0,0.0,0.0,0.0,0.0,5.8359,5.7917,5.7702,5.7582,5.6334,5.5436,5.4581,5.4464,5.4324,5.4117,5.4301,5.4416,5.4416,5.4416,5.4416,5.4416,5.5368,5.5691,5.5691,5.6678,5.7021,5.7021,5.6702,5.6845,5.7108,5.7706,5.8208,5.8663,5.9451,5.9642,5.9426,0.0,0.0,0.0,0.0,0.0,0.0,0.0,0.0,0.0,0.0,0.0,0.0,0.0,0.0,0.0,4.7332,4.7336,4.7076,4.6812,4.6725,4.652,4.599,4.4002,4.3304,4.4081,4.235,4.1535,4.1882,0.0,0.0,0.0,0.0,0.0,0.0,0.0,0.0,0.0,0.0,0.0,4.5111,4.4439,4.4573,0.0,0.0,4.43,0.0,4.554,4.5067,4.3832,4.532,4.4914,0.0,0.0,0.0,0.0,0.0,4.3351,0.0,0.0,4.2712,4.3176,0.0,0.0,0.0,4.198,4.3623,0.0,0.0,0.0,0.0,0.0,0.0,0.0,0.0,0.0,0.0,0.0,0.0,0.0,0.0,0.0,0.0,0.0,5.7851,5.8127,5.8679,5.873,5.8573,5.8172,5.678,5.5611,5.4845,5.4696,5.428,5.3704,5.4326,5.4579,5.4416,5.4416,5.4416,5.4579,5.5368,5.5691,5.5852,5.6678,5.7021,5.7021,5.7021,5.7285,5.7742,5.779,5.8416,5.9305,5.9305,5.9329,5.945,4.3872,0.0,0.0,0.0,4.5233,0.0,0.0,0.0,0.0,0.0,0.0,0.0,0.0,0.0,0.0,4.6215,4.6721,4.6694,4.59,4.5697,4.5288,4.4414,4.3631,4.3133,4.3158,4.2575,4.2312,4.2334,0.0,0.0,0.0,0.0,0.0,0.0,0.0,0.0,0.0,0.0,0.0,4.3922,4.5633,0.0,4.4176,4.4591,4.4342,4.3928,4.4699,4.4255,4.3218,0.0,4.3355,4.4203,0.0,0.0,0.0,0.0,0.0,0.0,0.0,0.0,0.0,0.0,0.0,0.0,4.2644,4.2986,0.0,0.0,0.0,0.0,0.0,0.0,0.0,0.0,0.0,0.0,0.0,0.0,0.0,0.0,0.0,0.0,0.0,5.7625,5.8127,5.8679,5.9009,5.8832,5.7849,5.752,5.6553,5.4751,5.5721,5.5486,5.3704,5.4812,5.5044,5.4416,5.4416,5.4579,5.4905,5.553,5.5876,5.6221,5.6861,5.7021,5.7021,5.7021,5.7093,5.7213,5.7646,5.8199,5.8752,5.8752,5.9017,5.9329,4.4452,0.0,0.0,0.0,4.552,4.5927,0.0,0.0,0.0,0.0,0.0,0.0,0.0,0.0,0.0,4.7318,4.6933,4.652,4.5933,4.5815,4.5493,4.5025,4.4177,4.371,4.3887,4.2621,4.1964,4.1964,0.0,0.0,0.0,0.0,0.0,0.0,0.0,0.0,0.0,0.0,4.5331,4.5411,4.5525,0.0,4.3429,4.4036,4.4194,4.4242,4.4518,4.4497,4.4128,4.3028,4.3624,0.0,0.0,4.2762,4.2997,0.0,4.2278,4.2504,0.0,0.0,0.0,4.2261,0.0,0.0,0.0,4.147,0.0,0.0,0.0,0.0,0.0,0.0,0.0,0.0,0.0,0.0,0.0,0.0,0.0,0.0,0.0,0.0,0.0,5.6793,5.7145,5.8126,5.8579,5.8755,5.8301,5.7976,5.7073,5.5893,5.6651,5.6202,5.4453,5.5493,5.555,5.4672,5.4789,5.4905,5.5067,5.5715,5.6221,5.6405,5.6861,5.7021,5.7021,5.7021,5.7021,5.7045,5.7309,5.7742,5.8223,5.8512,5.8921,5.9353,4.5065,0.0,0.0,0.0,4.5777,4.583,4.5793,4.645,0.0,0.0,0.0,0.0,0.0,0.0,0.0,0.0,4.6427,4.5781,0.0,0.0,0.0,4.5219,4.478,4.4407,4.3977,4.2768,4.1994,4.1736,0.0,0.0,0.0,0.0,0.0,0.0,0.0,0.0,0.0,0.0,0.0,4.6387,0.0,4.4096,4.3609,4.4102,4.432,4.4432,4.4317,4.4744,4.5121,4.3992,0.0,4.4591,4.381,4.3516,0.0,0.0,0.0,0.0,0.0,0.0,0.0,0.0,0.0,4.0843,0.0,0.0,0.0,0.0,0.0,0.0,0.0,0.0,0.0,0.0,0.0,0.0,0.0,0.0,0.0,0.0,0.0,0.0,0.0,5.5541,5.5867,5.7258,5.7769,5.8396,5.8738,5.8269,5.7596,5.6969,5.7423,5.689,5.5175,5.6312,5.6367,5.5074,5.5296,5.5392,5.5392,5.606,5.6405,5.6566,5.6861,5.7021,5.7021,5.7021,5.7021,5.7021,5.7021,5.7333,5.7838,5.8175,5.8752,5.9378,4.5155,4.5663,0.0,0.0,4.6897,4.6429,4.6262,4.6756,0.0,0.0,0.0,0.0,0.0,0.0,0.0,0.0,0.0,0.0,4.447,0.0,4.3455,4.2621,4.4633,4.4145,4.091,4.3256,4.3921,4.2792,0.0,0.0,0.0,0.0,0.0,0.0,4.3094,0.0,0.0,0.0,4.4414,0.0,4.4917,4.5449,0.0,4.6009,4.5322,4.3857,4.3386,4.384,4.4508,0.0,4.296,4.3407,0.0,4.3023,4.3176,4.3211,0.0,0.0,0.0,0.0,0.0,0.0,4.2395,0.0,0.0,0.0,0.0,0.0,0.0,0.0,0.0,0.0,0.0,0.0,0.0,0.0,0.0,0.0,0.0,0.0,0.0,0.0,0.0,0.0,5.5359,5.6192,5.6813,5.7461,5.7991,5.8278,5.7939,5.6801,5.836,5.8196,5.5603,5.8017,5.8098,5.5998,5.655,5.6678,5.6245,5.6405,5.6542,5.6861,5.7021,5.7021,5.7021,5.7021,5.7021,5.7021,5.7021,5.7333,5.7766,5.7357,5.8127,5.9329,4.4995,4.5759,0.0,0.0,4.7222,4.681,4.6411,4.7013,0.0,0.0,0.0,0.0,0.0,0.0,0.0,0.0,0.0,0.0,0.0,0.0,4.3702,4.5006,0.0,0.0,4.4349,4.4673,4.4443,4.3573,4.4834,0.0,0.0,0.0,0.0,0.0,4.3101,0.0,4.3659,0.0,0.0,0.0,0.0,0.0,0.0,4.5045,4.4036,4.3371,4.345,4.374,4.3991,0.0,4.3541,0.0,0.0,0.0,0.0,0.0,0.0,0.0,0.0,0.0,0.0,0.0,0.0,0.0,4.0453,0.0,4.0075,0.0,0.0,0.0,0.0,0.0,0.0,0.0,4.4395,0.0,0.0,0.0,0.0,0.0,0.0,0.0,0.0,0.0,0.0,0.0,5.5957,5.6778,5.725,5.7703,5.8016,5.7759,5.8848,5.8843,5.7562,5.8453,5.8401,5.7555,5.7023,5.7,5.7156,5.6861,5.6861,5.7021,5.7021,5.7021,5.7021,5.7021,5.7021,5.7021,5.7021,5.7165,5.7357,5.7454,5.7886,5.844,4.4971,0.0,0.0,0.0,0.0,0.0,4.7043,4.707,0.0,0.0,0.0,0.0,4.8711,4.7669,0.0,0.0,0.0,4.367,0.0,0.0,4.377,0.0,0.0,0.0,0.0,4.5598,4.5198,4.424,4.5039,0.0,0.0,0.0,0.0,0.0,0.0,4.3707,4.3702,0.0,0.0,4.6196,4.584,4.5787,4.5686,4.3771,4.2947,4.3011,4.3263,4.3539,4.3765,4.384,4.4284,0.0,4.5311,0.0,0.0,0.0,0.0,0.0,4.2644,0.0,0.0,0.0,0.0,0.0,0.0,0.0,0.0,0.0,0.0,0.0,0.0,0.0,4.2522,4.2721,0.0,4.4207,0.0,0.0,0.0,0.0,0.0,0.0,0.0,0.0,0.0,5.3385,5.4791,5.5874,5.6425,5.7111,5.7686,5.8261,5.8993,5.9137,5.8693,5.8808,5.8777,5.8706,5.7967,5.7696,5.808,5.7789,5.7473,5.7314,5.7314,5.7156,5.7021,5.7021,5.7021,5.7021,5.7021,5.7021,5.7069,5.7454,5.7694,5.7814,4.4971,4.601,0.0,0.0,0.0,0.0,0.0,0.0,0.0,0.0,0.0,0.0,0.0,0.0,0.0,0.0,0.0,4.1894,4.297,0.0,4.302,0.0,0.0,0.0,0.0,0.0,4.6766,4.485,4.5671,0.0,0.0,0.0,0.0,0.0,0.0,4.4759,4.4962,4.422,4.3599,4.3136,4.2809,4.2592,4.2427,0.0,4.295,4.2911,4.2384,0.0,0.0,4.4053,4.4428,0.0,0.0,0.0,0.0,0.0,0.0,0.0,0.0,0.0,0.0,4.47,0.0,0.0,0.0,0.0,3.9914,0.0,0.0,0.0,3.9362,4.086,4.1723,4.0389,4.341,0.0,0.0,0.0,0.0,0.0,0.0,0.0,0.0,0.0,0.0,5.1582,5.3243,5.4567,5.5417,5.6373,5.7085,5.766,5.8784,5.9098,5.8549,5.9647,5.9783,5.9045,5.9485,5.9718,5.9483,5.9508,5.9018,5.8212,5.8212,5.7765,5.7021,5.7021,5.7021,5.7021,5.7021,5.7021,5.7021,5.7045,5.7357,5.7814,0.0,0.0,0.0,0.0,0.0,0.0,0.0,4.7052,0.0,0.0,0.0,0.0,0.0,0.0,4.5263,0.0,0.0,4.351,4.344,4.4077,0.0,0.0,0.0,4.7874,0.0,0.0,0.0,0.0,0.0,0.0,0.0,0.0,0.0,0.0,0.0,4.5272,0.0,0.0,0.0,0.0,0.0,4.3713,4.3624,0.0,0.0,4.3438,4.2886,4.3162,0.0,4.4788,4.4786,4.4738,4.6509,4.6142,4.5389,4.6061,4.5526,0.0,0.0,0.0,4.4643,4.4811,0.0,0.0,0.0,0.0,0.0,0.0,0.0,0.0,0.0,4.0535,4.0702,4.0893,4.2108,4.2788,0.0,0.0,0.0,0.0,0.0,0.0,0.0,0.0,0.0,4.9082,5.1611,5.3113,5.3531,5.4942,5.6118,5.7059,5.7843,5.8497,5.9072,5.9098,5.9528,6.0353,5.9702,5.9664,6.0278,5.9817,5.9018,5.8212,5.8212,5.7765,5.7021,5.7021,5.7021,5.7021,5.7021,5.7021,5.7021,5.7021,5.7141,5.7381,4.4235,0.0,0.0,0.0,0.0,0.0,0.0,0.0,0.0,0.0,4.8139,0.0,4.8246,0.0,4.6853,0.0,4.5477,4.4753,4.4173,4.4678,0.0,4.413,4.649,0.0,0.0,0.0,0.0,0.0,0.0,4.7455,0.0,0.0,0.0,0.0,0.0,0.0,0.0,0.0,4.3436,0.0,0.0,4.3162,0.0,0.0,4.3058,4.4193,0.0,4.3363,4.374,4.5271,4.5269,4.4979,4.6828,4.6509,4.5642,4.6205,4.5554,4.4583,4.5258,4.5137,0.0,4.4882,4.4193,0.0,4.2756,0.0,4.1826,0.0,0.0,0.0,4.0926,4.0514,4.0307,4.0771,4.1145,4.1267,0.0,4.0534,0.0,0.0,0.0,0.0,0.0,0.0,4.7606,4.773,5.0069,5.1549,0.0,0.0,5.4707,5.5857,5.685,5.7817,5.8758,5.8601,5.9176,6.0483,5.9713,5.9979,6.0909,6.0482,5.9946,5.9148,5.9148,5.8393,5.7473,5.7473,5.7314,5.7021,5.7021,5.7021,5.7021,5.7021,5.7141,5.7405,0.0,0.0,0.0,0.0,4.5868,0.0,0.0,0.0,4.8108,0.0,4.8789,4.8138,4.8676,4.7766,4.6872,4.6299,4.5897,0.0,4.5069,4.5599,0.0,0.0,4.4678,4.4388,4.1455,0.0,0.0,0.0,0.0,0.0,0.0,0.0,0.0,0.0,4.7902,0.0,4.4309,4.3987,4.245,4.0078,4.042,4.0877,4.143,4.1957,4.3365,4.5004,4.4105,4.3438,4.3363,4.5522,4.5899,4.5529,4.6437,4.6637,4.639,4.5552,4.5724,4.5946,4.5773,4.5874,4.5874,4.513,4.4694,0.0,0.0,0.0,4.3222,0.0,0.0,0.0,4.1235,4.067,4.0245,4.0019,4.0387,4.0368,3.9485,3.8817,3.8641,0.0,0.0,0.0,0.0,4.5204,4.6781,4.7344,4.8634,0.0,0.0,0.0,5.2981,5.4131,5.583,5.7007,5.7608,5.8183,5.8758,5.9333,5.9934,6.0535,6.1136,6.1711,6.1495,6.0737,6.0737,5.9792,5.8212,5.8212,5.7765,5.7021,5.7021,5.7021,5.7021,5.7021,5.7381,5.7838,4.5457,4.5639,4.552,0.0,4.5725,4.6727,0.0,0.0,0.0,0.0,4.8872,4.8599,4.8342,4.7973,4.7622,4.7056,4.678,0.0,0.0,0.0,0.0,4.4338,4.6247,4.6482,4.449,4.6764,0.0,4.7539,0.0,0.0,4.8747,0.0,0.0,0.0,0.0,0.0,4.4335,4.4176,4.2499,3.9759,3.989,4.0864,0.0,0.0,4.2922,4.4393,4.3563,4.3363,4.3815,4.5221,4.5204,4.4842,4.6637,4.6315,4.5428,4.5963,4.5421,4.4812,4.5181,4.5035,4.4744,4.4606,4.4344,4.4102,0.0,0.0,0.0,0.0,0.0,0.0,0.0,4.0567,3.9809,3.9933,3.9143,3.8814,3.9731,3.9244,0.0,3.8589,0.0,4.3325,4.2454,4.3626,4.4954,4.5842,4.7308,0.0,0.0,0.0,0.0,5.3556,5.4863,5.6013,5.7007,5.7582,5.8157,5.8732,5.9751,6.0535,6.1136,6.1711,6.1495,6.0737,6.0737,6.0125,5.9173,5.8525,5.8055,5.7765,5.7156,5.7021,5.7021,5.7021,5.7598,5.8392,4.464,0.0,0.0,4.4141,0.0,0.0,4.6061,0.0,0.0,4.7673,4.8568,0.0,4.8328,4.8154,4.7841,4.7256,4.6642,0.0,0.0,0.0,0.0,4.5641,4.5721,4.5109,4.3679,4.4732,0.0,4.7028,0.0,0.0,4.9014,0.0,0.0,0.0,0.0,4.7026,0.0,4.3258,4.1817,4.0533,3.9989,0.0,0.0,4.1544,4.209,4.295,4.2675,4.2849,4.3412,4.4786,4.4768,4.4501,4.5822,4.5575,4.4839,4.532,4.4929,4.4419,4.4708,4.4587,4.4275,4.4329,4.4256,4.413,4.4153,4.4152,4.3901,0.0,4.3501,4.3219,0.0,0.0,4.0083,3.9017,3.779,3.7339,3.8032,3.8549,0.0,0.0,4.0644,4.2208,4.1613,4.3068,4.4265,4.4751,4.5681,0.0,0.0,0.0,0.0,5.1944,5.4209,5.5647,5.6066,5.7608,5.8314,5.8157,5.9542,6.0405,6.0744,6.1581,6.1672,6.1193,6.1193,6.0737,5.9946,5.9173,5.8525,5.8055,5.7314,5.7021,5.7021,5.7021,5.7186,5.7385,0.0,0.0,0.0,0.0,0.0,0.0,0.0,4.6775,0.0,4.6678,0.0,4.8792,4.8289,4.7962,4.7606,4.7029,0.0,4.593,4.7221,4.6188,4.5824,4.6604,4.4306,4.2553,4.1594,4.1367,0.0,0.0,0.0,0.0,0.0,0.0,0.0,0.0,0.0,0.0,0.0,4.1644,4.0757,4.1291,3.9964,3.9545,3.979,4.0722,4.1163,4.1359,4.1938,4.2248,4.2747,4.4259,4.4507,4.424,4.4646,4.4717,4.4717,4.4347,4.4347,4.4347,4.4347,4.4347,4.4347,4.4347,4.4347,4.435,4.4329,4.4352,4.4352,4.4352,4.4394,4.4468,4.4257,0.0,4.0848,3.8412,3.7298,3.6708,0.0,0.0,0.0,3.8395,3.9685,0.0,4.0516,4.2474,4.373,4.3746,0.0,0.0,0.0,0.0,0.0,5.0364,5.3766,5.5465,5.5203,0.0,5.8523,5.7791,5.9281,6.0091,6.0248,6.1372,6.1894,6.1973,6.1973,6.1495,6.0737,5.9971,5.9018,5.8055,5.7314,5.7021,5.7021,5.7021,5.6326,5.5504,0.0,0.0,0.0,0.0,0.0,4.4997,4.4705,4.6062,4.7219,4.7466,4.7519,4.7409,4.7293,4.7227,4.7004,4.6451,4.6205,0.0,0.0,0.0,0.0,4.6307,4.4525,4.3438,4.3241,4.1913,4.2276,0.0,0.0,0.0,0.0,0.0,0.0,0.0,0.0,0.0,4.2919,4.0433,0.0,3.8688,3.8379,3.8779,3.9709,4.0099,4.0595,4.1281,4.1834,4.2381,4.2988,4.3727,4.3983,4.4134,4.4646,4.4594,4.4347,4.4347,4.4347,4.4347,4.4347,4.4347,4.4347,4.4347,4.4347,4.4323,4.435,4.4326,4.4326,4.4326,4.4304,4.4329,4.4077,0.0,0.0,4.1328,4.0007,0.0,0.0,0.0,0.0,4.036,4.1301,4.1154,3.8994,4.0145,4.1544,0.0,0.0,0.0,0.0,0.0,0.0,0.0,5.2772,0.0,0.0,0.0,5.7137,5.8366,5.8679,5.9307,6.0248,6.0953,6.1529,6.1973,6.1973,6.1973,6.1672,6.0889,5.9637,5.8055,5.7314,5.7021,5.7021,5.7021,5.5484,5.3593,0.0,0.0,0.0,0.0,0.0,0.0,0.0,4.5613,0.0,4.6192,4.6509,4.6773,4.6773,4.6728,4.6513,4.624,4.5576,4.5428,4.5768,4.5428,4.5428,4.5768,4.4399,0.0,4.3211,4.1433,4.1932,4.5171,0.0,0.0,0.0,0.0,0.0,0.0,0.0,4.5337,0.0,0.0,0.0,3.9913,3.8838,3.8719,3.9248,3.9913,4.0443,4.0812,4.1419,4.1995,4.2482,4.2842,4.3476,4.3966,4.4086,4.4229,4.4347,4.4347,4.4347,4.4347,4.4347,4.4347,4.4347,4.4347,4.4347,4.4419,4.4683,4.4539,4.4419,4.4708,4.4539,4.4183,4.3629,4.3312,0.0,0.0,0.0,0.0,0.0,0.0,4.1504,4.1003,4.1448,4.1052,3.8932,3.9091,0.0,0.0,0.0,0.0,0.0,0.0,0.0,0.0,0.0,0.0,0.0,0.0,0.0,5.7163,5.8078,5.881,5.9385,6.0588,6.1267,6.1555,6.1842,6.1973,6.1973,6.1041,5.9637,5.8212,5.7765,5.7314,5.7021,5.7021,5.5135,5.2752,0.0,4.393,0.0,0.0,4.5311,0.0,4.5755,4.5478,4.5154,4.4799,4.5557,4.5994,4.5994,4.5892,4.5821,4.5821,4.4836,4.457,4.5037,4.457,4.4594,4.5037,4.4038,4.3289,4.276,4.0787,4.1434,0.0,4.2997,4.3953,0.0,4.741,0.0,0.0,0.0,0.0,0.0,0.0,4.0301,4.073,3.9237,3.8791,3.908,3.9922,4.0355,4.0643,4.1172,4.1677,4.2252,4.2462,4.3044,4.3796,4.3747,4.3914,4.4202,4.4323,4.4347,4.4347,4.4347,4.4419,4.4491,4.4371,4.4443,4.4635,4.5044,4.4732,4.4491,4.502,4.4804,4.4328,4.3844,4.3837,0.0,0.0,0.0,0.0,0.0,0.0,4.255,4.1778,4.1436,4.0765,3.9625,0.0,0.0,0.0,0.0,0.0,0.0,0.0,0.0,0.0,0.0,5.3008,5.327,0.0,5.6196,5.6118,5.7373,5.8157,5.8549,5.9934,6.0771,6.1136,6.1581,6.1868,6.1973,6.1041,5.9946,5.8681,5.8525,5.7922,5.7314,5.7314,5.5206,5.2385,0.0,0.0,0.0,0.0,0.0,0.0,0.0,4.6509,4.5621,4.5098,4.4763,4.4497,4.4497,4.447,4.4419,4.4419,4.4371,4.4347,4.4347,4.4347,4.4347,4.4347,4.3818,4.3289,4.276,4.1148,4.0538,0.0,4.2294,4.2796,0.0,4.6017,0.0,0.0,0.0,0.0,0.0,3.9511,3.8669,3.7621,3.7902,3.8647,3.9537,3.9657,4.0282,4.1172,4.1701,4.223,4.2687,4.2806,4.2879,4.312,4.3962,4.3962,4.3697,4.4202,4.4347,4.4347,4.4347,4.4683,4.4948,4.4467,4.4708,4.5068,4.5116,4.4732,4.4491,4.502,4.5092,4.5227,4.5764,4.5355,4.5132,0.0,0.0,0.0,0.0,4.4247,4.4106,4.3585,4.1834,4.0771,4.1021,4.0736,0.0,0.0,4.0771,0.0,0.0,0.0,0.0,4.7739,0.0,5.1654,5.2958,5.3948,5.5203,5.6719,5.6327,5.6981,5.8523,5.8679,5.962,6.111,6.1189,6.1476,6.1973,6.1041,6.0584,6.0431,5.9637,5.8862,5.8055,5.8055,5.5882,5.2777,0.0,0.0,0.0,0.0,0.0,0.0,0.0,4.6235,4.5621,4.478,4.4491,4.4347,4.4347,4.4347,4.4347,4.4347,4.4347,4.4347,4.4347,4.4347,4.4347,4.4347,4.413,4.3625,4.2784,4.1509,4.1038,0.0,0.0,0.0,0.0,0.0,0.0,0.0,0.0,4.0917,4.0757,3.9128,3.8364,3.8214,3.8743,3.9224,3.9681,4.0306,4.0812,4.1244,4.1774,4.211,4.2375,4.3,4.3433,4.3721,4.3818,4.3914,4.4058,4.4275,4.4347,4.4419,4.4732,4.4972,4.5164,4.5261,4.5213,4.5309,4.5934,4.5188,4.4587,4.5429,4.5597,4.5773,4.6353,4.6406,4.6357,4.648,0.0,0.0,0.0,4.4439,4.3457,4.319,4.2208,4.1041,3.9841,4.0727,0.0,0.0,0.0,0.0,0.0,0.0,0.0,4.7325,0.0,5.033,5.1859,5.3061,5.4155,5.5099,5.595,5.6824,5.7529,5.8549,5.9777,6.1136,6.1476,6.1764,6.1973,6.1672,6.1193,6.0737,6.0278,5.9328,5.8212,5.8212,5.6363,5.3638,4.9496,0.0,4.9929,0.0,4.8557,4.81,4.7164,4.6754,4.6135,4.4948,4.4683,4.4515,4.4371,4.4347,4.4347,4.4347,4.4347,4.4347,4.4347,4.4347,4.4347,4.4347,4.4347,0.0,4.3,4.211,4.1679,4.1643,4.1518,0.0,0.0,0.0,0.0,0.0,4.052,4.0244,4.1065,3.9261,3.8695,3.908,3.9465,3.9705,3.9922,4.0667,4.1148,4.1485,4.2014,4.2303,4.2567,4.3457,4.413,4.4491,4.3938,4.3914,4.413,4.4299,4.4467,4.4659,4.5044,4.5357,4.5645,4.5862,4.5766,4.579,4.6535,4.5597,4.478,4.5549,4.5934,4.6319,4.6848,4.7248,4.7409,4.7027,0.0,0.0,4.6496,4.4732,4.3337,4.2947,4.2281,4.1286,3.9726,4.0931,0.0,0.0,0.0,0.0,0.0,0.0,0.0,0.0,0.0,0.0,5.0563,5.1995,5.3057,5.374,5.5287,5.621,5.6876,5.8758,6.0065,6.0901,6.1633,6.1973,6.1973,6.1973,6.1672,6.1041,6.1041,6.0253,5.8837,5.8681,5.6678,5.3964,4.9729,4.9764,5.0278,5.0952,5.0235,4.9646,4.9536,4.8632,4.753,4.6054,4.5453,4.4924,4.4395,4.4347,4.4347,4.4347,4.4347,4.4347,4.4347,4.4347,4.4347,0.0,0.0,4.4082,4.3505,4.3,4.1966,4.0403,0.0,0.0,4.0159,0.0,4.1707,4.0956,4.0931,4.0414,3.9609,3.9585,3.9585,3.9609,3.9609,3.9922,4.0379,4.0403,4.1052,4.2038,4.2567,4.3072,4.3577,4.4154,4.4683,4.5044,4.4515,4.3962,4.3625,4.4178,4.4732,4.5116,4.514,4.591,4.6559,4.6054,4.6319,4.6704,4.6704,4.5886,4.5116,4.514,4.5982,4.6872,4.7401,4.7906,4.8098,4.7569,0.0,0.0,4.6078,4.5453,4.457,4.3234,4.2176,4.1525,4.1496,4.1854,0.0,0.0,0.0,0.0,0.0,0.0,0.0,4.5306,4.6487,0.0,4.9023,5.0513,5.1873,5.3125,5.3715,5.5022,5.6876,5.9176,6.0222,6.03,6.1476,6.1973,6.1973,6.1973,6.1973,6.1973,6.1973,6.1521,6.0584,5.9817,5.7005,5.3471,5.384,5.3553,5.2956,5.1942,5.0665,4.9527,4.884,4.8112,4.7389,4.6559,4.5821,4.532,4.49,4.4563,4.4347,0.0,4.4347,4.4347,0.0,4.4347,4.4347,4.4347,4.4347,4.4082,4.3529,4.2663,4.1798,4.0932,0.0,0.0,0.0,4.1538,4.131,4.0561,4.0561,4.0144,3.9609,3.9609,3.9609,3.9633,3.9994,4.0234,4.0427,4.0787,4.1148,4.1557,4.2447,4.2856,4.3144,4.4034,4.4467,4.4563,4.4395,4.4732,4.5188,4.5357,4.5285,4.5213,4.5573,4.591,4.6223,4.6415,4.6583,4.68,4.7161,4.6704,4.6319,4.668,4.6728,4.6992,4.7882,4.7882,4.781,4.8002,4.7425,0.0,4.6992,4.5285,4.3771,4.2971,4.1958,4.1208,4.0765,4.1971,0.0,0.0,0.0,0.0,0.0,0.0,0.0,0.0,4.6835,0.0,4.8802,5.0074,5.0964,5.1644,5.3117,5.4594,5.5853,5.7909,5.9101,5.954,6.0762,6.1607,6.1973,6.1973,6.1973,6.1973,6.1973,6.1495,6.0737,6.0431,5.808,5.474,5.4728,5.4498,5.3778,5.1781,5.0669,4.9704,4.8724,4.8281,4.775,4.7088,4.6335,4.5881,4.5845,4.532,0.0,4.4371,4.4347,4.4347,4.4347,4.4347,4.4347,4.4347,4.4347,4.4178,4.3842,4.2976,0.0,4.1774,4.1038,4.0795,4.1139,4.1139,4.1135,4.098,4.0787,4.0619,4.0475,4.0282,4.0186,4.0234,4.0571,4.0691,4.0739,4.1268,4.1605,4.1894,4.2735,4.3168,4.3457,4.413,4.4491,4.4635,4.4635,4.5237,4.5838,4.5453,4.5237,4.5261,4.579,4.6078,4.6343,4.6872,4.7016,4.704,4.7185,4.7112,4.7112,4.7425,4.7545,4.793,4.8988,4.9084,4.9036,4.9181,4.8459,4.7738,4.7281,4.5261,4.3602,4.3017,4.205,4.1281,0.0,4.2384,4.3183,0.0,0.0,0.0,0.0,0.0,0.0,4.6213,4.6934,4.7881,4.9096,4.9633,5.0308,5.128,5.3203,5.4361,5.5064,5.6979,5.8187,5.9096,5.9959,6.0826,6.1973,6.1672,6.1672,6.1973,6.1973,6.1672,6.1041,6.0431,5.8138,5.5183,5.3633,5.3524,5.3011,0.0,5.0707,0.0,4.9253,4.8995,4.8597,4.769,4.6916,4.6688,4.7045,4.6528,4.5697,4.4443,0.0,0.0,0.0,4.4347,4.4347,4.4347,4.4347,4.4347,4.4347,4.3794,4.3265,4.276,4.1293,4.0571,4.0619,4.0643,4.1172,4.2062,4.1605,4.1629,4.199,4.1509,4.1268,4.1244,4.1268,4.1268,4.1293,4.1822,4.2327,4.2832,4.3337,4.3842,4.4299,4.4323,4.4683,4.5068,4.5068,4.5429,4.5645,4.4732,4.478,4.5237,4.5742,4.6247,4.6776,4.7305,4.7497,4.7425,4.6944,4.7209,4.7569,4.7593,4.8387,4.9397,5.0455,5.1056,5.1225,5.072,5.0167,4.9084,4.6968,4.5381,4.4086,4.3234,0.0,0.0,4.2322,4.2959,4.3214,0.0,0.0,0.0,0.0,0.0,4.5166,4.6191,4.6865,4.8026,4.9558,4.9334,5.0028,5.1771,5.3587,5.4394,5.4445,5.6047,5.7545,5.8871,5.8832,5.9845,6.177,6.1041,6.1193,6.1973,6.1973,6.1973,6.1823,6.0278,5.7643,5.4812,0.0,0.0,5.4113,5.4184,5.2198,5.0596,5.0335,4.9655,4.898,4.8724,4.7689,4.6948,4.6834,4.6768,4.6284,4.5372,4.5548,4.5502,4.511,4.5086,4.4963,4.4717,4.4717,4.4594,4.4347,4.3794,4.3265,4.276,4.2375,4.2399,4.2784,4.3216,4.3313,4.3168,4.3457,4.3216,4.2567,4.2447,4.2158,4.1822,4.223,4.2158,4.1846,4.2375,4.2639,4.2832,4.3337,4.3601,4.377,4.4202,4.4443,4.4539,4.4539,4.4635,4.4828,4.5381,4.5357,4.5164,4.5285,4.5718,4.6247,4.6776,4.7497,4.8074,4.7954,4.8002,4.8219,4.8628,4.8892,4.9277,4.995,5.0167,5.0215,5.0095,4.9614,4.8531,4.6415,4.579,4.4804,4.3022,4.3289,4.3554,4.3216,4.3699,4.4038,0.0,0.0,0.0,4.5061,4.5448,4.6287,4.7728,4.8139,4.8616,4.9401,4.9436,5.0052,5.0978,5.2186,5.2841,5.2889,5.4647,5.5931,5.68,5.825,5.9133,5.9516,6.0405,6.0889,6.1041,6.1041,6.1344,6.1973,6.1495,5.9691,5.7059,5.7185,5.6213,5.5226,5.4873,5.3055,5.1419,5.1288,5.0141,4.9286,4.8748,4.8161,4.7743,4.7327,4.7384,4.7351,4.6929,4.6388,4.5871,4.5355,4.5331,4.5208,4.5086,4.5086,4.4963,4.4717,4.428,4.3747,4.3096,4.288,4.3144,4.3748,4.4062,4.4183,4.4257,4.4183,4.3893,4.3312,4.2975,4.2591,4.2351,4.2639,4.2591,4.2399,4.2904,4.3265,4.3553,4.4058,4.4419,4.4659,4.4972,4.49,4.4708,4.4708,4.4539,4.4467,4.5044,4.4996,4.4876,4.5357,4.5694,4.6102,4.6872,4.7497,4.8002,4.8243,4.8652,4.9157,4.971,5.0215,5.0696,5.1225,5.1321,5.1177,5.0696,5.0368,4.9145,4.6247,4.6075,4.5619,4.3986,4.4563,4.514,4.5309,4.5597,4.558,4.5181,4.5302,0.0,4.591,4.6777,4.7725,4.8367,4.8911,4.9421,5.01,5.036,5.0906,5.1441,5.1994,5.2403,5.2668,5.3641,5.4793,5.6027,5.6998,5.7849,5.8704,5.9257,5.9792,6.0125,6.0584,6.0737,6.0889,6.1193,5.9562,5.7132,5.5973,5.6133,5.5972,5.4883,5.3427,5.2266,5.204,5.0752,4.9446,4.8483,4.8488,4.8411,4.7918,4.8158,4.8248,4.8174,4.7156,4.6217,4.5625,4.5576,4.5527,4.5331,4.5331,4.5331,4.5331,4.4963,4.4475,4.3649,4.3337,4.3457,4.4111,4.4208,4.4695,4.5306,4.467,4.4305,4.4087,4.3409,4.3072,4.2999,4.2976,4.2952,4.2928,4.3433,4.3938,4.4395,4.4852,4.5309,4.5694,4.5766,4.5453,4.502,4.5116,4.478,4.4347,4.4347,4.4395,4.4659,4.5549,4.5982,4.6391,4.7377,4.769,4.7858,4.8315,4.9229,5.0143,5.0696,5.161,5.2427,5.286,5.2956,5.2572,5.1585,5.1223,4.9744,4.6432,0.0,4.6412,4.5387,4.6006,4.6872,4.7762,4.7858,4.7521,4.6704,4.7329,4.7569,4.7209,4.8525,4.9133,4.9043,4.9751,5.0517,5.1215,5.1438,5.1826,5.2283,5.2427,5.274,5.3197,5.3341,5.4345,5.5824,5.5751,5.67,5.8245,5.8147,5.8681,5.9328,6.0099,5.9971,5.9637,6.0278,5.8993,5.6885,5.7667,5.6637,5.5815,5.6024,5.3929,5.2253,5.2291,5.0881,4.9704,4.9036,4.8643,4.8136,4.7678,4.7821,4.7996,4.7789,4.7873,4.7606,4.6834,4.6881,4.6559,4.5721,4.5696,4.5574,4.5331,4.4963,4.4669,4.4596,4.4499,4.4499,4.4719,4.5428,4.5552,4.5331,4.5601,4.5503,4.5061,4.4622,4.4184,4.3796,4.4036,4.3818,4.3457,4.401,4.4275,4.4347,4.4443,4.4515,4.4659,4.5116,4.49,4.4539,4.4996,4.478,4.4347,4.4347,4.4659,4.5044,4.5213,4.6247,4.7401,4.8002,4.8507,4.8844,4.894,4.9806,5.072,5.1249,5.185,5.2307,5.2379,5.2403,5.2043,5.1198,5.0141,4.867,4.6508,0.0,4.693,4.591,4.7858,4.9325,4.9469,4.9493,4.9638,4.9926,4.9253,4.8988,4.9349,5.0368,5.0798,5.0864,5.1239,5.1803,5.2571,5.2357,5.2211,5.2283,5.3173,5.363,5.3726,5.464,5.5275,5.5622,5.6619,5.6911,5.6721,5.7702,5.8212,5.8369,5.8525,5.9018,5.9508,5.9637,5.9328,5.878,5.7608,5.7486,5.7356,5.7085,5.568,5.4253,5.3265,5.2054,5.0767,4.9427,4.8899,4.8507,4.7978,4.7931,4.7929,4.7816,4.8441,4.8505,4.7833,4.7357,4.6906,4.6509,4.6234,4.5817,4.5331,4.5331,4.5086,4.447,4.4717,4.484,4.5086,4.5454,4.5699,4.5842,4.5969,4.5797,4.5574,4.5208,4.4817,4.4476,4.4743,4.4425,4.3986,4.4374,4.4639,4.478,4.478,4.4948,4.5237,4.5477,4.5213,4.4804,4.5068,4.478,4.4347,4.4347,4.4924,4.5694,4.6247,4.6944,4.769,4.8507,4.8676,4.8892,4.9758,5.0551,5.1369,5.2163,5.274,5.3029,5.2764,5.2716,5.2429,5.1386,5.023,4.8889,4.7515,4.7621,4.771,4.7569,4.9229,5.0648,5.1513,5.1081,5.096,5.1513,5.0551,5.0191,5.072,5.1386,5.1653,5.1801,5.2087,5.2452,5.2937,5.2545,5.2541,5.2828,5.3306,5.3665,5.4255,5.4736,5.5121,5.5433,5.6454,5.6541,5.6275,5.7255,5.7607,5.7607,5.808,5.8237,5.8261,5.9198,5.8369,5.6813,5.7309,5.7933,5.8418,5.7724,5.6846,5.5759,5.4511,5.3385,5.2017,5.0263,4.9752,4.9217,4.8682,4.8137,4.7894,4.8026,4.8551,4.8719,4.8199,4.7608,4.7208,4.7207,4.6681,4.6088,4.5574,4.5696,4.5331,4.4594,4.484,4.4963,4.5208,4.5331,4.5696,4.618,4.5939,4.5939,4.5939,4.5574,4.5208,4.5086,4.5208,4.4963,4.447,4.4717,4.486,4.4948,4.4948,4.5213,4.5573,4.5694,4.5381,4.4972,4.5092,4.4852,4.4539,4.4539,4.5357,4.6535,4.7569,4.7858,4.8122,4.9181,4.9157,4.9205,5.0576,5.1393,5.2091,5.2908,5.3461,5.3678,5.3149,5.3173,5.2812,5.1801,0.0,4.9646,4.8608,4.8705,4.8876,4.9438,5.0744,5.2091,5.3317,5.2812,5.2572,5.298,5.2018,5.1658,5.2187,5.2357,5.2599,5.298,5.2913,5.2961,5.3072,5.2893,5.3005,5.3409,5.3671,5.4286,5.5001,5.5121,5.5385,5.5794,5.6227,5.6419,5.6444,5.6852,5.7021,5.7021,5.7607,5.7473,5.718,5.8418,5.7266,5.5044,5.7309,5.7255,5.7282,5.7201,5.6394,5.5604,5.5419,5.4259,5.316,5.2593,5.1114,5.0062,4.9511,4.8264,4.763,4.8026,4.8026,4.8069,4.7918,4.7666,4.7523,4.7408,4.6861,4.6462,4.6205,4.5939,4.5574,4.5208,4.5208,4.5086,4.484,4.5453,4.5817,4.5817,4.618,4.6301,4.618,4.5939,4.5696,4.5696,4.5453,4.5086,4.4717,4.484,4.4618,4.4395,4.4395,4.4443,4.4539,4.502,4.4852,4.4491,4.4972,4.5116,4.5068,4.5068,4.6175,4.7617,4.8676,4.8964,4.9229,5.0311,5.0551,5.0672,5.1297,5.2235,5.298,5.3053,5.3461,5.3678,5.3149,5.3461,5.3249,5.1908,0.0,0.0,4.9316,4.9931,5.0596,5.0576,5.2788,5.4375,5.4496,5.488,5.5121,5.5169,5.4183,5.3822,5.4351,5.3918,5.4111,5.5121,5.375,5.3096,5.3171,5.3952,5.4215,5.398,5.5267,5.6083,5.6131,5.6612,5.6852,5.69,5.6949,5.6973,5.6973,5.6997,5.7021,5.7021,5.7021,5.7021,5.7021,5.718,5.7021,5.6518,5.777,5.8042,5.8178,5.7798,5.7455,5.6663,5.5472,5.4811,5.3911,5.2337,5.1295,5.0369,4.9316,4.8439,4.7858,4.7654,4.7894,4.7807,4.7377,4.7353,4.7238,4.7104,4.6858,4.6637,4.6216,4.6192,4.592,4.5331,4.5331,4.5208,4.5086,4.5331,4.5574,4.5817,4.618,4.6301,4.6301,4.618,4.5939,4.5817,4.5939,4.5574,4.5086,4.5086,4.4963,4.4594,4.4347,4.4563,4.4876,4.5068,4.5213,4.5357,4.5549,4.5621,4.5742,4.6415,4.7497,4.8628,4.9373,4.9565,4.983,5.0912,5.1201,5.1417,5.2283,5.2788,5.3149,5.3461,5.3678,5.3678,5.3149,5.3485,5.3611,5.2768,0.0,5.1609,5.1265,5.1151,5.1441,5.2091,5.3317,5.452,5.553,5.5482,5.553,5.589,5.5217,5.488,5.5097,5.4904,5.4823,5.5076,5.4343,5.396,5.3718,5.4062,5.4157,5.4027,5.523,5.5913,5.6251,5.678,5.7021,5.7021,5.7021,5.7021,5.7021,5.7021,5.7021,5.7021,5.7021,5.7021,5.7021,5.7021,5.6334,5.4998,5.8096,5.8259,5.8286,5.7879,5.7798,5.7374,5.5895,5.5656,5.4865,5.2826,5.2346,5.1632,5.0037,4.9401,4.8959,4.8812,4.8264,4.7783,4.7636,4.7053,4.681,4.67,4.6846,4.6826,4.6388,4.634,4.6069,4.533,4.5159,4.5086,4.4963,4.5086,4.5331,4.5696,4.5939,4.618,4.618,4.618,4.6059,4.5817,4.6059,4.5817,4.5331,4.5331,4.5184,4.4836,4.4587,4.4924,4.5381,4.5381,4.5621,4.5958,4.6126,4.6391,4.6872,4.793,4.8748,4.9445,4.9974,5.0383,5.0816,5.1562,5.1874,5.2211,5.3101,5.3293,5.3389,5.375,5.3822,5.3702,5.3365,5.3726,5.3894,5.3389,5.3004,5.2716,5.2548,5.2499,5.2668,5.3245,5.4207,5.5193,5.6131,5.6035,5.6059,5.6444,5.5963,5.5578,5.5255,5.5566,5.553,5.505,5.498,5.4812,5.4658,5.4491,5.4491,5.4503,5.5564,5.6152,5.6492,5.6852,5.7021,5.7021,5.7021,5.7021,5.7021,5.7021,5.7021,5.7021,5.7021,5.7021,5.7021,5.7021,5.6174,5.4835,5.8205,5.7608,5.7201,5.7201,5.7201,5.7201,5.7201,5.6941,5.6278,5.4811,5.4821,5.408,5.1922,5.0969,5.074,5.1419,4.8998,4.7889,4.8584,4.6944,4.6062,4.6421,4.6956,4.7109,4.6953,4.6412,4.5893,4.5643,4.5108,4.4594,4.4347,4.4594,4.4963,4.5331,4.5696,4.5817,4.5817,4.5817,4.5817,4.5817,4.5817,4.5574,4.5331,4.5331,4.5181,4.514,4.514,4.5477,4.5934,4.5934,4.5934,4.603,4.6559,4.7449,4.8507,4.9565,4.9878,4.9998,5.0551,5.1465,5.2283,5.2283,5.2692,5.3197,5.3702,5.3822,5.3822,5.3822,5.3822,5.3822,5.3822,5.4255,5.4423,5.3918,5.3822,5.3654,5.3149,5.3966,5.4423,5.3894,5.5722,5.6804,5.6299,5.6708,5.7021,5.7021,5.654,5.5854,5.4836,5.5811,5.6144,5.5597,5.5573,5.5731,5.6227,5.5674,5.5518,5.5573,5.6598,5.7021,5.7021,5.7021,5.7021,5.7021,5.7021,5.7021,5.7021,5.7021,5.7021,5.7021,5.7021,5.7021,5.7021,5.7021,5.7021,5.6518,5.9209,5.9209,5.9073,5.9073,5.9073,5.8937,5.853,5.8064,5.7266,5.6001,5.5656,5.4655,5.2876,5.2308,5.1586,5.0532,4.9481,4.8238,4.6816,4.6263,4.591,4.6038,4.6569,4.6891,4.7133,4.6963,4.6524,4.6017,4.5597,4.5081,4.4594,4.4717,4.484,4.4963,4.5331,4.5453,4.5453,4.5696,4.5696,4.5453,4.5696,4.5574,4.538,4.5502,4.5497,4.544,4.5549,4.603,4.6487,4.6487,4.6968,4.7666,4.8195,4.8844,4.9469,4.9782,5.0143,5.0503,5.0648,5.1465,5.2283,5.2283,5.2932,5.363,5.3774,5.3822,5.3822,5.3822,5.3822,5.3822,5.3822,5.4255,5.4423,5.3918,5.476,5.5193,5.4279,5.5073,5.5698,5.553,5.6083,5.654,5.6756,5.6925,5.7021,5.7021,5.6876,5.655,5.593,5.6534,5.647,5.564,5.5922,5.608,5.6327,5.6094,5.5902,5.607,5.6756,5.7021,5.7021,5.7021,5.7021,5.7021,5.7021,5.7021,5.7021,5.7021,5.7021,5.7021,5.7021,5.7021,5.7021,5.7021,5.7021,5.6518,5.9697,5.9697,5.9534,5.9534,5.9534,5.9426,5.9073,5.8476,5.7728,5.6686,5.6452,5.5814,5.4233,5.3818,5.3398,5.2331,5.158,4.9977,4.7439,4.6895,4.6591,4.6535,4.6463,4.6737,4.7278,4.7085,4.6682,4.6085,4.5615,4.5126,4.4594,4.4594,4.4717,4.484,4.4963,4.5086,4.5086,4.5331,4.5331,4.5086,4.5331,4.5454,4.5428,4.5497,4.5784,4.6045,4.6126,4.6704,4.7329,4.7329,4.805,4.9012,4.9541,4.995,5.0239,5.0455,5.06,5.0744,5.096,5.1634,5.2283,5.2283,5.3053,5.3822,5.3822,5.3822,5.3822,5.3822,5.3822,5.387,5.4087,5.4231,5.4399,5.4712,5.5241,5.5506,5.5289,5.5818,5.6227,5.6227,5.6419,5.666,5.6997,5.7021,5.7021,5.7021,5.7021,5.6861,5.6405,5.6542,5.6542,5.6037,5.6232,5.6391,5.6702,5.655,5.654,5.654,5.6876,5.7021,5.7021,5.7021,5.7021,5.7021,5.7021,5.7021,5.7021,5.7021,5.7021,5.7021,5.7021,5.7021,5.7021,5.7021,5.7021,5.6518,5.9697,5.9371,5.8992,5.8992,5.9046,5.9073,5.9019,5.8557,5.7971,5.6999,5.7354,5.7201,5.5789,5.5545,5.5537,5.5834,5.4336,5.2289,4.9618,4.851,4.7778,4.7377,4.6511,4.6463,4.7473,4.6968,4.6487,4.6006,4.5453,4.4948,4.4419,4.4419,4.4519,4.4717,4.4717,4.4742,4.479,4.4865,4.4865,4.479,4.4865,4.5157,4.5518,4.5615,4.6166,4.68,4.6848,4.7521,4.8435,4.8483,4.9109,4.9974,5.0527,5.0744,5.0864,5.1345,5.1153,5.0888,5.1417,5.1922,5.2283,5.2331,5.3101,5.3822,5.3822,5.387,5.3894,5.3894,5.3918,5.4087,5.452,5.4255,5.4423,5.5866,5.5337,5.5097,5.6083,5.6275,5.6299,5.6299,5.6732,5.7021,5.7021,5.7021,5.7021,5.7021,5.7021,5.6861,5.6405,5.6405,5.6405,5.6405,5.6405,5.6542,5.6861,5.7021,5.7021,5.7021,5.7021,5.7021,5.7021,5.7021,5.7021,5.7021,5.7021,5.7021,5.7021,5.7021,5.7021,5.7021,5.7021,5.7021,5.7021,5.7021,5.6861,5.6197,5.9073,5.91,5.8992,5.8992,5.9371,5.9534,5.9073,5.929,5.9048,5.7944,5.7883,5.7689,5.6942,5.6631,5.617,5.5491,5.3688,5.1736,4.9643,4.8887,4.8001,4.6872,4.6655,4.6848,4.7497,4.6968,4.6655,4.6535,4.6006,4.5477,4.4972,4.4972,4.4732,4.447,4.447,4.4688,4.5073,4.4887,4.4836,4.5049,4.4887,4.4908,4.5363,4.6183,4.6776,4.7377,4.781,4.8628,4.9589,5.0022,5.0046,4.9974,5.0527,5.0984,5.1345,5.1465,5.1417,5.1441,5.197,5.2187,5.2379,5.2788,5.3365,5.3822,5.3822,5.4135,5.4447,5.4447,5.476,5.4952,5.4664,5.4856,5.5025,5.4977,5.5482,5.5963,5.6203,5.6588,5.6852,5.6852,5.6949,5.7021,5.7021,5.7021,5.7021,5.7021,5.7021,5.7021,5.6861,5.6861,5.6702,5.6405,5.6726,5.6702,5.6566,5.6861,5.7021,5.7021,5.7021,5.7021,5.7021,5.7021,5.7021,5.7021,5.7021,5.7021,5.7021,5.7021,5.7021,5.7021,5.7021,5.7021,5.7021,5.7021,5.6174,5.4324,5.8883,5.8992,5.8992,5.8992,5.948,5.9697,5.91,5.9263,5.9236,5.8585,5.8015,5.7635,5.7608,5.7194,5.6595,5.5618,5.4313,5.2533,5.0436,4.9494,4.8447,4.7088,4.6848,4.6968,4.7497,4.6968,4.6704,4.6704,4.6439,4.591,4.514,4.5405,4.5237,4.4732,4.4996,4.5261,4.5501,4.5339,4.5387,4.5477,4.5339,4.5532,4.5958,4.6511,4.7185,4.7954,4.8483,4.9349,5.0383,5.1177,5.1105,5.0744,5.1273,5.1634,5.1922,5.2163,5.2067,5.197,5.2524,5.2668,5.2788,5.3293,5.3822,5.4135,5.387,5.4039,5.4231,5.4231,5.4664,5.5001,5.4977,5.5217,5.5482,5.5722,5.6035,5.6323,5.6564,5.6852,5.7021,5.7021,5.7021,5.7021,5.7021,5.7021,5.7021,5.7021,5.7021,5.7021,5.7021,5.7021,5.6861,5.6702,5.6861,5.6861,5.6702,5.6861,5.7021,5.7021,5.7021,5.7021,5.7021,5.7021,5.7021,5.7021,5.7021,5.7021,5.7021,5.7021,5.7021,5.7021,5.7021,5.7021,5.7021,5.7021,5.5345,5.2658,5.8585,5.8693,5.872,5.8829,5.9344,5.9534,5.8937,5.9019,5.9046,5.872,5.7906,5.7499,5.7879,5.7602,5.705,5.6292,5.5545,5.41,5.1758,5.0843,4.9486,4.787,4.7458,4.7303,4.7497,4.7064,4.6848,4.6848,4.6752,4.6271,4.5405,4.5862,4.5766,4.5285,4.5718,4.5982,4.6054,4.5958,4.5982,4.6054,4.6054,4.6367,4.6872,4.704,4.7714,4.8603,4.906,4.9782,5.0744,5.1898,5.1874,5.1441,5.1874,5.2139,5.2379,5.2812,5.2692,5.2548,5.3173,5.3269,5.3341,5.3942,5.4423,5.464,5.4183,5.4159,5.4231,5.4231,5.464,5.5121,5.5482,5.5602,5.5938,5.6756,5.6588,5.6516,5.6949,5.7021,5.7021,5.7021,5.7021,5.7021,5.7021,5.7021,5.7021,5.7021,5.7021,5.7021,5.7021,5.7021,5.7021,5.7021,5.7021,5.7021,5.7021,5.7021,5.7021,5.7021,5.7021,5.7021,5.7021,5.7021,5.7021,5.7021,5.7021,5.7021,5.7021,5.7021,5.7021,5.7021,5.7021,5.7021,5.6861,5.6358,5.4184,5.1347,5.7418,5.7418,5.7581,5.8096,5.872,5.891,5.8286,5.91,5.9209,5.7635,5.7743,5.777,5.7363,5.7486,5.7633,5.7469,5.7075,5.6221,5.4512,5.3699,5.204,4.9411,4.9182,4.8558,4.7497,4.7425,4.7401,4.7401,4.6944,4.6631,4.6511,4.6583,4.6319,4.5814,4.5886,4.6175,4.6583,4.6126,4.6199,4.6607,4.6607,4.692,4.7497,4.8411,4.9133,4.9662,4.9734,4.9854,5.0215,5.1754,5.1634,5.0816,5.0888,5.1537,5.2283,5.2379,5.2668,5.3173,5.4135,5.4063,5.3942,5.4928,5.5241,5.5265,5.5193,5.5554,5.5914,5.5914,5.6323,5.6588,5.6179,5.6492,5.6708,5.6395,5.666,5.6949,5.7021,5.7021,5.7021,5.7021,5.7021,5.7021,5.7021,5.7021,5.7021,5.7021,5.7021,5.7021,5.7021,5.7021,5.7021,5.7021,5.7021,5.7021,5.7021,5.7021,5.7021,5.7021,5.7021,5.7021,5.7021,5.7021,5.7021,5.7021,5.7021,5.7021,5.7021,5.7021,5.7021,5.7021,5.7021,5.7021,5.6678,5.3505,5.2182,5.1179,5.7174,5.7445,5.777,5.8015,5.8856,5.929,5.8693,5.9046,5.8992,5.7825,5.7608,5.7472,5.7201,5.7303,5.7295,5.6968,5.6584,5.5821,5.4654,5.3774,5.2746,5.1717,5.0507,4.9706,4.9076,4.8306,4.781,4.7497,4.7257,4.6992,4.6728,4.7016,4.6872,4.6367,4.668,4.6944,4.7136,4.6896,4.7112,4.7569,4.7281,4.7473,4.7954,4.8122,4.87,4.9541,5.0455,5.096,5.1273,5.1706,5.173,5.1586,5.1586,5.2307,5.3197,5.3485,5.375,5.4087,5.4832,5.488,5.488,5.5674,5.5866,5.5938,5.6227,5.6492,5.6419,5.5506,5.5987,5.6419,5.5866,5.6444,5.6949,5.6708,5.6876,5.7021,5.7021,5.7021,5.7021,5.7021,5.7021,5.7021,5.7021,5.7021,5.7021,5.7021,5.718,5.718,5.7021,5.718,5.718,5.7021,5.7021,5.7021,5.7021,5.7021,5.7021,5.7021,5.7021,5.7021,5.7021,5.7021,5.7021,5.7021,5.7021,5.7021,5.7021,5.7021,5.7021,5.7021,5.7021,5.6358,5.5183,5.268,5.1162,5.0207]},{"header":{"parameterUnit":"m.s-1","parameterCategory":1,"la1":30.6,"la2":28.766,"lo1":-90.7593,"lo2":-88.6598,"dy":0.0162,"dx":0.0183,"nx":116,"ny":114,"refTime":"2023-04-28T18:00:00:Z","depth":0,"parameterNumber":3,"parameterNumberName":"V-component_of_WINDS"},"data":[0.0,0.0,0.0,0.0,0.0,0.0,0.0,0.0,0.0,0.0,0.0,0.0,0.0,0.0,0.0,0.0,0.0,0.0,0.0,0.0,0.0,0.0,0.0,0.0,0.0,0.0,0.0,0.0,0.0,0.0,0.0,0.0,0.0,0.0,0.0,0.0,0.0,0.0,0.0,0.0,0.0,0.0,0.0,0.0,0.0,0.0,0.0,0.0,0.0,0.0,0.0,0.0,0.0,0.0,0.0,0.0,0.0,0.0,0.0,0.0,0.0,0.0,0.0,0.0,0.0,0.0,0.0,0.0,0.0,0.0,0.0,0.0,0.0,0.0,0.0,0.0,0.0,0.0,0.0,0.0,0.0,0.0,0.0,0.0,0.0,0.0,0.0,0.0,0.0,0.0,0.0,0.0,0.0,0.0,0.0,0.0,0.0,0.0,0.0,0.0,0.0,0.0,0.0,0.0,0.0,0.0,0.0,0.0,0.0,0.0,0.0,0.0,0.0,0.0,0.0,0.0,0.0,0.0,0.0,0.0,0.0,0.0,0.0,0.0,0.0,0.0,0.0,0.0,0.0,0.0,0.0,0.0,0.0,0.0,0.0,0.0,0.0,0.0,0.0,0.0,0.0,0.0,0.0,0.0,0.0,0.0,0.0,0.0,0.0,0.0,0.0,0.0,0.0,0.0,0.0,0.0,0.0,0.0,0.0,0.0,0.0,0.0,0.0,0.0,0.0,0.0,0.0,0.0,0.0,0.0,0.0,0.0,0.0,0.0,0.0,0.0,0.0,0.0,0.0,0.0,0.0,0.0,0.0,0.0,0.0,0.0,0.0,0.0,0.0,0.0,0.0,0.0,0.0,0.0,0.0,0.0,0.0,0.0,0.0,0.0,0.0,0.0,0.0,0.0,0.0,0.0,0.0,0.0,0.0,0.0,0.0,0.0,0.0,0.0,0.0,0.0,0.0,0.0,0.0,0.0,0.0,0.0,0.0,0.0,0.0,0.0,0.0,0.0,0.0,0.0,0.0,0.0,0.0,0.0,0.0,0.0,0.0,0.0,0.0,0.0,0.0,0.0,0.0,0.0,0.0,0.0,0.0,0.0,0.0,0.0,0.0,0.0,0.0,0.0,0.0,0.0,0.0,0.0,0.0,0.0,0.0,0.0,0.0,0.0,0.0,0.0,0.0,0.0,0.0,0.0,0.0,0.0,0.0,0.0,0.0,0.0,0.0,0.0,0.0,0.0,0.0,0.0,0.0,0.0,0.0,0.0,0.0,0.0,0.0,0.0,0.0,0.0,0.0,0.0,0.0,0.0,0.0,0.0,0.0,0.0,0.0,0.0,0.0,0.0,0.0,0.0,0.0,0.0,0.0,0.0,0.0,0.0,0.0,0.0,0.0,0.0,0.0,0.0,0.0,0.0,0.0,0.0,0.0,0.0,0.0,0.0,0.0,0.0,0.0,0.0,0.0,0.0,0.0,0.0,0.0,0.0,0.0,0.0,0.0,0.0,0.0,0.0,0.0,0.0,0.0,0.0,0.0,0.0,0.0,0.0,0.0,0.0,0.0,0.0,0.0,0.0,0.0,0.0,0.0,0.0,0.0,0.0,0.0,0.0,0.0,0.0,0.0,0.0,0.0,0.0,0.0,0.0,0.0,0.0,0.0,0.0,0.0,0.0,0.0,0.0,0.0,0.0,0.0,0.0,0.0,0.0,0.0,0.0,0.0,0.0,0.0,0.0,0.0,0.0,0.0,0.0,0.0,0.0,0.0,0.0,0.0,0.0,0.0,0.0,0.0,0.0,0.0,0.0,0.0,0.0,0.0,0.0,0.0,0.0,0.0,0.0,0.0,0.0,0.0,0.0,0.0,0.0,0.0,0.0,0.0,0.0,0.0,0.0,0.0,0.0,0.0,0.0,0.0,0.0,0.0,0.0,0.0,0.0,0.0,0.0,0.0,0.0,0.0,0.0,0.0,0.0,0.0,0.0,0.0,0.0,0.0,0.0,0.0,0.0,0.0,0.0,0.0,0.0,0.0,0.0,0.0,0.0,0.0,0.0,0.0,0.0,0.0,0.0,0.0,0.0,0.0,0.0,0.0,0.0,0.0,0.0,0.0,0.0,0.0,0.0,0.0,0.0,0.0,0.0,0.0,0.0,0.0,0.0,0.0,0.0,0.0,0.0,0.0,0.0,0.0,0.0,0.0,0.0,0.0,0.0,0.0,0.0,0.0,0.0,0.0,0.0,0.0,0.0,0.0,0.0,0.0,0.0,0.0,0.0,0.0,0.0,0.0,0.0,0.0,0.0,0.0,0.0,0.0,0.0,0.0,0.0,0.0,0.0,0.0,0.0,0.0,0.0,0.0,0.0,0.0,0.0,0.0,0.0,0.0,0.0,0.0,0.0,0.0,0.0,0.0,0.0,0.0,0.0,0.0,0.0,0.0,0.0,0.0,0.0,0.0,0.0,0.0,0.0,0.0,0.0,0.0,0.0,0.0,0.0,0.0,0.0,0.0,0.0,0.0,0.0,0.0,0.0,0.0,0.0,0.0,0.0,0.0,0.0,0.0,0.0,0.0,0.0,0.0,0.0,0.0,0.0,0.0,0.0,0.0,0.0,0.0,0.0,0.0,0.0,0.0,0.0,0.0,0.0,0.0,0.0,0.0,0.0,0.0,0.0,0.0,0.0,0.0,0.0,0.0,0.0,0.0,0.0,0.0,0.0,0.0,0.0,0.0,0.0,0.0,0.0,0.0,0.0,0.0,0.0,0.0,0.0,0.0,0.0,0.0,0.0,0.0,0.0,0.0,0.0,0.0,0.0,0.0,0.0,0.0,0.0,0.0,0.0,0.0,0.0,0.0,0.0,0.0,0.0,0.0,0.0,0.0,0.0,0.0,0.0,0.0,0.0,0.0,0.0,0.0,0.0,0.0,0.0,0.0,0.0,0.0,0.0,0.0,0.0,0.0,0.0,0.0,0.0,0.0,0.0,0.0,0.0,0.0,0.0,0.0,0.0,0.0,0.0,0.0,0.0,0.0,0.0,0.0,0.0,0.0,0.0,0.0,0.0,0.0,0.0,0.0,0.0,0.0,0.0,0.0,0.0,0.0,0.0,0.0,0.0,0.0,0.0,0.0,0.0,0.0,0.0,0.0,0.0,0.0,0.0,0.0,0.0,0.0,0.0,0.0,0.0,0.0,0.0,0.0,0.0,0.0,0.0,0.0,0.0,0.0,0.0,0.0,0.0,0.0,0.0,0.0,0.0,0.0,0.0,0.0,0.0,0.0,0.0,0.0,0.0,0.0,0.0,0.0,0.0,0.0,0.0,0.0,0.0,0.0,0.0,0.0,0.0,0.0,0.0,0.0,0.0,0.0,0.0,0.0,0.0,0.0,0.0,0.0,0.0,0.0,0.0,0.0,0.0,0.0,0.0,0.0,0.0,0.0,0.0,0.0,0.0,0.0,0.0,0.0,0.0,0.0,0.0,0.0,0.0,0.0,0.0,0.0,0.0,0.0,0.0,0.0,0.0,0.0,0.0,0.0,0.0,0.0,0.0,0.0,0.0,0.0,0.0,0.0,0.0,0.0,0.0,0.0,0.0,0.0,0.0,0.0,0.0,0.0,0.0,0.0,0.0,0.0,0.0,0.0,0.0,0.0,0.0,0.0,0.0,0.0,0.0,0.0,0.0,0.0,0.0,0.0,0.0,0.0,0.0,0.0,0.0,0.0,0.0,0.0,0.0,0.0,0.0,0.0,0.0,0.0,0.0,0.0,0.0,0.0,0.0,0.0,0.0,0.0,0.0,0.0,0.0,0.0,0.0,0.0,0.0,0.0,0.0,0.0,0.0,0.0,0.0,0.0,0.0,0.0,0.0,0.0,0.0,0.0,0.0,0.0,0.0,0.0,0.0,0.0,0.0,0.0,0.0,0.0,0.0,0.0,0.0,0.0,0.0,0.0,0.0,0.0,0.0,0.0,0.0,0.0,0.0,0.0,0.0,0.0,0.0,0.0,0.0,0.0,0.0,0.0,0.0,0.0,0.0,0.0,0.0,0.0,0.0,0.0,0.0,0.0,0.0,0.0,0.0,0.0,0.0,0.0,0.0,0.0,0.0,0.0,0.0,0.0,0.0,0.0,0.0,0.0,0.0,0.0,0.0,0.0,0.0,0.0,0.0,0.0,0.0,0.0,0.0,0.0,0.0,0.0,0.0,0.0,0.0,0.0,0.0,0.0,0.0,0.0,0.0,0.0,0.0,0.0,0.0,0.0,0.0,0.0,0.0,0.0,0.0,0.0,0.0,0.0,0.0,0.0,0.0,0.0,0.0,0.0,0.0,0.0,0.0,0.0,0.0,0.0,0.0,0.0,0.0,0.0,0.0,0.0,0.0,0.0,0.0,0.0,0.0,0.0,0.0,0.0,0.0,0.0,0.0,0.0,0.0,0.0,0.0,0.0,0.0,0.0,0.0,0.0,0.0,0.0,0.0,0.0,0.0,0.0,0.0,0.0,0.0,0.0,0.0,0.0,0.0,0.0,0.0,0.0,0.0,0.0,0.0,0.0,0.0,0.0,0.0,0.0,0.0,0.0,0.0,0.0,0.0,0.0,0.0,0.0,0.0,0.0,0.0,0.0,0.0,0.0,0.0,0.0,0.0,0.0,0.0,0.0,0.0,0.0,0.0,0.0,0.0,0.0,0.0,0.0,0.0,0.0,0.0,0.0,0.0,0.0,0.0,0.0,0.0,0.0,0.0,0.0,0.0,0.0,0.0,0.0,0.0,0.0,0.0,0.0,0.0,0.0,0.0,0.0,0.0,0.0,0.0,0.0,0.0,0.0,0.0,0.0,0.0,0.0,0.0,0.0,0.0,0.0,0.0,0.0,0.0,0.0,0.0,0.0,0.0,0.0,0.0,0.0,0.0,0.0,0.0,0.0,0.0,0.0,0.0,0.0,0.0,0.0,0.0,0.0,0.0,0.0,0.0,0.0,0.0,0.0,0.0,0.0,0.0,0.0,0.0,0.0,0.0,0.0,0.0,0.0,0.0,0.0,0.0,0.0,0.0,0.0,0.0,0.0,0.0,0.0,0.0,0.0,0.0,0.0,0.0,0.0,0.0,0.0,0.0,0.0,0.0,0.0,0.0,0.0,0.0,0.0,0.0,0.0,0.0,0.0,0.0,0.0,0.0,0.0,0.0,0.0,0.0,0.0,0.0,0.0,0.0,0.0,0.0,0.0,0.0,0.0,0.0,0.0,0.0,0.0,0.0,0.0,0.0,0.0,0.0,0.0,0.0,0.0,0.0,0.0,0.0,0.0,0.0,0.0,0.0,0.0,0.0,0.0,0.0,0.0,0.0,0.0,0.0,0.0,0.0,0.0,0.0,0.0,0.0,0.0,0.0,0.0,0.0,0.0,0.0,0.0,0.0,0.0,0.0,0.0,0.0,0.0,0.0,0.0,0.0,0.0,0.0,0.0,0.0,0.0,0.0,0.0,0.0,0.0,0.0,0.0,0.0,0.0,0.0,0.0,0.0,0.0,0.0,0.0,0.0,0.0,0.0,0.0,0.0,0.0,0.0,0.0,0.0,0.0,0.0,0.0,0.0,0.0,0.0,0.0,0.0,0.0,0.0,0.0,0.0,0.0,0.0,0.0,0.0,0.0,0.0,0.0,0.0,0.0,0.0,0.0,0.0,0.0,0.0,0.0,0.0,0.0,0.0,0.0,0.0,0.0,0.0,0.0,0.0,0.0,0.0,0.0,0.0,0.0,0.0,0.0,0.0,0.0,0.0,0.0,0.0,0.0,0.0,0.0,0.0,0.0,0.0,0.0,0.0,0.0,0.0,0.0,0.0,0.0,0.0,0.0,0.0,0.0,0.0,0.0,0.0,0.0,0.0,0.0,0.0,0.0,0.0,0.0,0.0,0.0,0.0,0.0,0.0,0.0,0.0,0.0,0.0,0.0,0.0,0.0,0.0,0.0,0.0,0.0,0.0,0.0,0.0,0.0,0.0,0.0,0.0,0.0,0.0,0.0,0.0,0.0,0.0,0.0,0.0,0.0,0.0,0.0,0.0,0.0,0.0,0.0,0.0,0.0,0.0,0.0,0.0,0.0,0.0,-4.0405,0.0,0.0,0.0,0.0,0.0,0.0,0.0,0.0,0.0,0.0,0.0,0.0,0.0,0.0,0.0,0.0,0.0,0.0,0.0,0.0,0.0,0.0,0.0,0.0,0.0,0.0,0.0,0.0,0.0,0.0,0.0,0.0,0.0,0.0,0.0,0.0,0.0,0.0,0.0,0.0,0.0,0.0,0.0,0.0,0.0,0.0,0.0,0.0,0.0,0.0,0.0,0.0,0.0,0.0,0.0,0.0,0.0,0.0,0.0,0.0,0.0,0.0,0.0,0.0,0.0,0.0,0.0,0.0,0.0,0.0,0.0,0.0,0.0,0.0,0.0,0.0,0.0,0.0,0.0,0.0,0.0,0.0,0.0,0.0,0.0,0.0,0.0,0.0,0.0,0.0,0.0,0.0,0.0,0.0,0.0,0.0,0.0,0.0,0.0,0.0,0.0,0.0,0.0,0.0,0.0,0.0,0.0,0.0,0.0,0.0,0.0,0.0,0.0,0.0,0.0,0.0,-4.2911,0.0,0.0,0.0,0.0,0.0,0.0,0.0,0.0,0.0,0.0,0.0,0.0,0.0,0.0,0.0,0.0,0.0,0.0,0.0,0.0,0.0,0.0,0.0,0.0,0.0,0.0,0.0,0.0,0.0,0.0,0.0,0.0,0.0,0.0,0.0,0.0,0.0,0.0,0.0,0.0,0.0,0.0,0.0,0.0,0.0,0.0,0.0,0.0,0.0,0.0,0.0,0.0,0.0,0.0,0.0,0.0,0.0,0.0,0.0,0.0,0.0,0.0,0.0,0.0,0.0,0.0,0.0,0.0,0.0,0.0,0.0,0.0,0.0,0.0,0.0,0.0,0.0,0.0,0.0,0.0,0.0,0.0,0.0,0.0,0.0,0.0,0.0,0.0,0.0,0.0,0.0,0.0,0.0,0.0,0.0,0.0,0.0,0.0,0.0,0.0,0.0,0.0,0.0,0.0,0.0,0.0,0.0,0.0,0.0,-4.8794,-4.9182,-4.9283,-5.0667,-5.2846,-5.0441,-4.8895,-4.7873,0.0,0.0,0.0,0.0,0.0,0.0,0.0,0.0,0.0,0.0,0.0,0.0,0.0,0.0,0.0,0.0,0.0,0.0,0.0,0.0,0.0,0.0,0.0,0.0,0.0,0.0,0.0,0.0,0.0,0.0,0.0,0.0,0.0,0.0,0.0,0.0,0.0,0.0,0.0,0.0,0.0,0.0,0.0,0.0,0.0,0.0,0.0,0.0,0.0,0.0,0.0,0.0,0.0,0.0,0.0,0.0,0.0,0.0,0.0,0.0,0.0,0.0,0.0,0.0,0.0,0.0,0.0,0.0,0.0,0.0,0.0,0.0,0.0,0.0,0.0,0.0,0.0,0.0,0.0,0.0,0.0,0.0,0.0,0.0,0.0,0.0,0.0,-4.4343,-4.4027,0.0,0.0,0.0,0.0,0.0,0.0,0.0,0.0,0.0,0.0,0.0,0.0,0.0,0.0,-4.8765,-5.1101,-5.2167,-5.2029,-5.3708,-5.4451,-5.4145,-5.4946,-5.5473,-5.5907,-5.6154,0.0,-5.1819,-4.9307,0.0,0.0,0.0,0.0,0.0,0.0,0.0,0.0,0.0,0.0,0.0,0.0,0.0,0.0,0.0,0.0,0.0,0.0,0.0,0.0,0.0,0.0,0.0,0.0,0.0,0.0,0.0,0.0,0.0,0.0,0.0,0.0,0.0,0.0,0.0,0.0,0.0,0.0,0.0,0.0,0.0,0.0,0.0,0.0,0.0,0.0,0.0,0.0,0.0,0.0,0.0,0.0,0.0,0.0,0.0,0.0,0.0,0.0,0.0,0.0,0.0,0.0,0.0,0.0,0.0,0.0,0.0,0.0,0.0,0.0,0.0,0.0,0.0,0.0,0.0,0.0,0.0,0.0,0.0,0.0,0.0,0.0,0.0,0.0,0.0,-4.5364,-4.5654,-4.4418,-4.506,-4.4235,0.0,0.0,0.0,0.0,0.0,0.0,0.0,0.0,0.0,-4.9957,-5.1339,-5.2587,-5.3512,-5.5736,-5.6868,-5.7059,-5.8338,-5.9061,-5.9456,-5.9294,-5.968,-6.049,-6.0129,-5.9271,-5.79,-5.3161,-4.9609,-4.7121,0.0,0.0,0.0,0.0,0.0,-4.3915,0.0,0.0,0.0,0.0,0.0,0.0,0.0,0.0,0.0,0.0,0.0,0.0,0.0,0.0,0.0,0.0,0.0,0.0,0.0,0.0,0.0,0.0,0.0,0.0,0.0,0.0,0.0,0.0,0.0,0.0,0.0,0.0,0.0,0.0,0.0,0.0,0.0,0.0,0.0,0.0,0.0,0.0,0.0,0.0,0.0,0.0,0.0,0.0,0.0,0.0,0.0,0.0,0.0,0.0,0.0,0.0,0.0,0.0,0.0,0.0,0.0,0.0,0.0,0.0,0.0,0.0,0.0,0.0,0.0,0.0,0.0,0.0,0.0,0.0,0.0,0.0,0.0,-4.6791,0.0,-4.4959,-4.7126,-4.6894,0.0,0.0,0.0,0.0,0.0,0.0,-5.0442,-5.1778,-5.3039,-5.3996,-5.6108,-5.7442,-5.8091,-5.9787,-6.069,-6.0897,-6.1752,-6.2441,-6.3071,-6.2549,-6.2901,-6.368,-6.2761,-6.2328,-6.1991,-5.6629,-5.3346,-5.1511,-5.0065,-4.8805,-4.7788,-4.7938,-4.7997,-4.8087,0.0,0.0,0.0,0.0,0.0,0.0,0.0,0.0,0.0,0.0,0.0,0.0,0.0,0.0,0.0,0.0,0.0,0.0,0.0,0.0,0.0,0.0,0.0,0.0,0.0,0.0,0.0,0.0,0.0,0.0,0.0,0.0,0.0,0.0,0.0,0.0,0.0,0.0,0.0,0.0,0.0,0.0,0.0,0.0,0.0,0.0,0.0,0.0,0.0,0.0,0.0,0.0,0.0,0.0,0.0,0.0,0.0,0.0,0.0,0.0,0.0,0.0,0.0,0.0,0.0,0.0,0.0,0.0,0.0,0.0,0.0,0.0,0.0,0.0,0.0,0.0,0.0,0.0,0.0,-4.6621,-5.1259,0.0,0.0,0.0,0.0,-4.9385,-5.0964,-5.2773,-5.4704,-5.578,-5.7081,-5.8554,-6.0276,-6.1503,-6.2362,-6.3111,-6.3307,-6.299,-6.384,-6.3965,-6.381,-6.4457,-6.4505,-6.4212,-6.3857,-6.2979,-6.173,-5.9942,-5.7479,-5.4748,-5.3131,-5.112,-4.9224,-5.0695,-5.1086,-5.1088,0.0,0.0,0.0,0.0,0.0,0.0,0.0,0.0,0.0,0.0,0.0,0.0,0.0,0.0,0.0,0.0,0.0,0.0,0.0,0.0,0.0,0.0,0.0,0.0,0.0,0.0,0.0,0.0,0.0,0.0,0.0,0.0,0.0,0.0,0.0,0.0,0.0,0.0,0.0,0.0,0.0,0.0,0.0,0.0,0.0,0.0,0.0,0.0,0.0,0.0,0.0,0.0,0.0,0.0,0.0,0.0,0.0,0.0,0.0,0.0,0.0,0.0,0.0,0.0,0.0,0.0,0.0,0.0,0.0,0.0,0.0,0.0,0.0,0.0,0.0,0.0,0.0,0.0,0.0,-5.084,-5.4201,0.0,0.0,-5.283,-5.3973,-5.3614,-5.5456,-5.7378,-5.8881,-6.0106,-6.1294,-6.261,-6.4071,-6.5227,-6.5901,-6.6381,-6.6433,-6.6215,-6.6244,-6.6035,-6.5811,-6.5831,-6.5914,-6.5923,-6.5668,-6.5279,-6.498,-6.3595,-6.1082,-5.804,-5.7531,-5.6751,-5.603,-5.6138,-5.6449,-5.6629,0.0,0.0,0.0,0.0,0.0,0.0,0.0,0.0,0.0,0.0,0.0,0.0,0.0,0.0,0.0,0.0,0.0,0.0,0.0,0.0,0.0,0.0,0.0,0.0,0.0,0.0,0.0,0.0,0.0,0.0,0.0,0.0,0.0,0.0,0.0,0.0,0.0,0.0,0.0,0.0,0.0,0.0,-4.0841,0.0,0.0,0.0,0.0,0.0,0.0,0.0,0.0,0.0,0.0,0.0,0.0,0.0,0.0,0.0,0.0,0.0,0.0,0.0,0.0,0.0,0.0,0.0,0.0,0.0,0.0,0.0,0.0,0.0,0.0,0.0,0.0,0.0,0.0,0.0,-5.4381,-5.3623,-5.7139,-5.8501,-5.5634,-5.7453,-5.864,-5.8524,-6.0536,-6.2133,-6.304,-6.427,-6.5288,-6.6027,-6.7183,-6.7762,-6.7837,-6.8092,-6.8013,-6.7454,-6.7559,-6.7456,-6.7143,-6.7212,-6.7212,-6.7258,-6.6997,-6.6874,-6.6858,-6.5934,-6.4118,-6.1779,-6.1071,-6.0824,-6.0732,-6.0055,-5.9932,-5.9963,0.0,0.0,0.0,0.0,0.0,0.0,0.0,0.0,0.0,0.0,0.0,0.0,0.0,0.0,0.0,0.0,0.0,0.0,0.0,0.0,0.0,0.0,0.0,0.0,0.0,0.0,0.0,0.0,0.0,0.0,0.0,0.0,0.0,0.0,0.0,0.0,0.0,0.0,0.0,0.0,0.0,0.0,-4.809,0.0,0.0,0.0,0.0,0.0,0.0,0.0,0.0,0.0,0.0,0.0,0.0,0.0,0.0,0.0,0.0,0.0,0.0,0.0,0.0,0.0,0.0,0.0,0.0,0.0,0.0,0.0,0.0,0.0,0.0,0.0,0.0,0.0,-4.9429,-5.522,-5.8264,-5.491,-6.0206,-6.2839,-5.9668,-6.295,-6.4855,-6.4243,-6.604,-6.7095,-6.6888,-6.8137,-6.8907,-6.8798,-6.9398,-6.9288,-6.8328,-6.8296,-6.7821,-6.695,-6.7941,-6.8051,-6.7617,-6.8495,-6.8551,-6.7966,-6.7966,-6.7596,-6.6981,-6.695,-6.6581,-6.578,-6.3718,-6.2918,-6.2825,-6.2148,-6.1471,-6.0763,0.0,0.0,0.0,0.0,0.0,0.0,0.0,0.0,0.0,0.0,0.0,0.0,0.0,0.0,0.0,0.0,0.0,0.0,0.0,0.0,0.0,0.0,0.0,0.0,0.0,0.0,0.0,0.0,0.0,0.0,0.0,0.0,0.0,0.0,0.0,0.0,0.0,0.0,0.0,0.0,0.0,0.0,-4.8415,0.0,0.0,0.0,0.0,0.0,0.0,0.0,0.0,0.0,0.0,0.0,0.0,0.0,0.0,0.0,0.0,0.0,0.0,0.0,0.0,0.0,0.0,0.0,0.0,0.0,0.0,0.0,0.0,0.0,0.0,0.0,0.0,-5.6537,-5.4887,-5.8095,-6.1036,-6.1942,-6.4925,-6.637,-6.4904,-6.7573,-6.8845,-6.7759,-6.9056,-6.9716,-6.9074,-6.9845,-7.0339,-7.0266,-7.018,-7.0262,-7.0463,-6.9506,-6.8913,-6.8683,-6.8753,-6.8612,-6.8495,-6.8797,-6.8797,-6.8612,-6.8612,-6.852,-6.8304,-6.7843,-6.7812,-6.7873,-6.5842,-6.5072,-6.498,-6.4303,-6.3287,-6.224,0.0,0.0,0.0,0.0,0.0,0.0,0.0,0.0,0.0,0.0,0.0,0.0,0.0,0.0,0.0,0.0,0.0,0.0,0.0,0.0,0.0,0.0,0.0,0.0,0.0,0.0,0.0,0.0,0.0,0.0,0.0,0.0,0.0,0.0,0.0,0.0,0.0,0.0,0.0,0.0,0.0,0.0,-5.2661,-5.091,-4.9672,-4.8679,-4.6833,-4.5109,-4.3677,-4.3337,0.0,0.0,0.0,0.0,0.0,0.0,0.0,0.0,0.0,0.0,0.0,0.0,0.0,0.0,0.0,0.0,0.0,0.0,0.0,0.0,0.0,0.0,0.0,0.0,-5.9287,-6.215,-6.2334,-6.3546,-6.491,-6.6456,-6.8423,-6.9519,-6.9062,-7.0738,-7.1533,-7.071,-7.1653,-7.1764,-7.0694,-7.1284,-7.1509,-7.1111,-7.1101,-7.1227,-7.1401,-7.0645,-7.0224,-6.9988,-6.9561,-6.932,-6.9289,-6.9012,-6.8889,0.0,-6.8889,-6.8889,-6.8858,-6.8489,-6.8551,0.0,0.0,0.0,0.0,0.0,-6.5042,-6.4057,0.0,0.0,0.0,0.0,0.0,0.0,0.0,0.0,0.0,0.0,0.0,0.0,0.0,0.0,0.0,0.0,0.0,0.0,0.0,0.0,0.0,0.0,0.0,0.0,0.0,0.0,0.0,0.0,0.0,0.0,0.0,0.0,0.0,0.0,0.0,0.0,0.0,0.0,0.0,0.0,0.0,0.0,-5.8662,-5.3793,-5.3034,-5.4135,-4.9722,-4.8218,-4.8223,-4.7313,0.0,0.0,0.0,0.0,0.0,0.0,0.0,0.0,0.0,0.0,0.0,0.0,0.0,0.0,0.0,0.0,0.0,0.0,0.0,0.0,0.0,0.0,0.0,0.0,-6.4135,-6.7332,-6.9896,-6.9772,-6.9432,-6.9284,-7.0887,-7.1997,-7.1875,-7.2697,-7.316,-7.3107,-7.3678,-7.3376,-7.2127,0.0,0.0,0.0,0.0,-7.2026,-7.1526,-7.1433,-7.1162,-7.089,-7.0305,-6.9997,-6.9997,-6.932,-6.9012,-6.9012,-6.892,-6.8889,-6.8889,-6.8889,-6.8889,-6.8828,-6.8274,-6.8027,-6.7966,-6.735,-6.6704,-6.6057,0.0,0.0,0.0,0.0,0.0,0.0,0.0,0.0,0.0,0.0,0.0,0.0,0.0,0.0,0.0,0.0,0.0,0.0,0.0,0.0,0.0,0.0,0.0,0.0,0.0,0.0,0.0,0.0,0.0,0.0,0.0,0.0,0.0,0.0,0.0,0.0,0.0,0.0,0.0,0.0,0.0,0.0,-5.9967,-5.8929,-5.8644,-5.8447,-5.6388,-5.4974,-5.3776,-5.2379,-5.066,-4.9028,-4.8429,0.0,0.0,0.0,0.0,0.0,0.0,0.0,0.0,0.0,0.0,0.0,0.0,0.0,0.0,0.0,0.0,0.0,0.0,0.0,0.0,-6.3854,-6.7211,-6.9672,-7.1323,-7.2151,-7.2283,-7.1412,-7.2145,-7.2483,-7.1997,-7.3495,-7.4514,-7.4593,-7.4366,-7.4168,-7.3892,-7.3271,0.0,-7.2651,-7.1977,-7.18,-7.2207,-7.144,-7.089,-7.089,0.0,0.0,-7.0675,-6.9997,-6.969,-6.9659,-6.9105,-6.8889,-6.8889,-6.8889,-6.8889,-6.8889,-6.8735,-6.8705,-6.8674,-6.8551,-6.8089,-6.7504,0.0,0.0,0.0,0.0,0.0,0.0,0.0,0.0,0.0,0.0,0.0,0.0,0.0,0.0,0.0,0.0,0.0,0.0,0.0,0.0,0.0,0.0,0.0,0.0,0.0,0.0,0.0,0.0,0.0,0.0,0.0,0.0,0.0,0.0,0.0,0.0,0.0,0.0,0.0,0.0,0.0,0.0,-6.3561,-6.2887,-6.2534,-6.224,-6.1563,-6.063,-5.9402,-5.8674,-5.7027,-5.5189,-5.4625,-5.2667,-5.008,0.0,0.0,0.0,0.0,0.0,0.0,0.0,0.0,0.0,0.0,0.0,0.0,0.0,0.0,-5.3039,0.0,0.0,-6.3317,-6.799,-7.0536,-7.2251,-7.3281,-7.3557,-7.3401,-7.2786,-7.3067,-7.3409,-7.3385,-7.437,-7.4957,-7.4965,-7.5089,-7.493,-7.4241,-7.4279,-7.4188,-7.3723,-7.3259,-7.3014,-7.32,-7.2737,-7.2275,-7.1937,-7.1937,-7.1783,-7.1413,-7.0705,-7.0398,-7.0367,-7.0059,-6.969,-6.9351,-6.9012,-6.8889,-6.8889,-6.8889,-6.8889,-6.8889,-6.8889,-6.8674,-6.8366,0.0,0.0,0.0,0.0,0.0,0.0,0.0,0.0,0.0,0.0,0.0,0.0,0.0,0.0,0.0,0.0,0.0,0.0,0.0,0.0,0.0,0.0,0.0,0.0,0.0,0.0,0.0,0.0,0.0,0.0,0.0,0.0,0.0,0.0,0.0,0.0,0.0,0.0,0.0,0.0,0.0,0.0,-6.7465,-6.6262,-6.5615,-6.5368,-6.5245,-6.4615,-6.3933,-6.3964,-6.2676,-6.1024,-6.0294,-5.8122,-5.5234,-5.1716,-5.0615,0.0,0.0,0.0,0.0,0.0,0.0,0.0,0.0,0.0,-4.9432,-5.4326,-5.5704,-5.7488,-6.2281,-6.4894,-6.7662,-7.1572,-7.3312,-7.4404,-7.509,-7.456,-7.3967,-7.3803,-7.3995,-7.4404,-7.5121,-7.5184,-7.5246,-7.5371,-7.5652,-7.5465,-7.4468,-7.5372,-7.5308,-7.4345,-7.45,-7.4374,-7.3999,-7.4122,-7.3907,-7.3383,-7.326,-7.2891,-7.2337,-7.1506,-7.1105,-7.1105,-7.0828,-7.0459,-7.0028,-6.9228,-6.8951,-6.9074,-6.8951,-6.8889,-6.8889,-6.8889,-6.8889,-6.8797,0.0,0.0,0.0,0.0,0.0,0.0,0.0,0.0,0.0,0.0,0.0,0.0,0.0,0.0,0.0,0.0,0.0,0.0,0.0,0.0,0.0,0.0,0.0,0.0,0.0,0.0,0.0,0.0,0.0,0.0,0.0,0.0,0.0,0.0,0.0,0.0,0.0,0.0,0.0,0.0,0.0,0.0,-6.9976,-6.9201,-6.8148,-6.697,-6.6603,-6.5839,-6.4999,-6.524,-6.4816,-6.4026,-6.3963,-6.1806,-5.8719,-5.4878,0.0,-4.8317,-4.5309,0.0,0.0,-5.0717,-5.0938,-5.2455,0.0,0.0,-5.9875,-6.4707,-6.5985,-6.6786,-6.85,-7.031,-7.1959,-7.3409,-7.4373,-7.5121,-7.5808,-7.506,-7.4594,-7.5215,-7.506,-7.5153,-7.5839,-7.5901,-7.6151,-7.6775,-7.6055,-7.5805,-7.6143,-7.5486,-7.4803,-7.3999,-7.4584,-7.4615,-7.3999,-7.4584,-7.4861,-7.4769,-7.4153,-7.3845,-7.3722,-7.2429,-7.1844,-7.1783,-7.0551,-7.0305,-7.0705,-6.9413,-6.9228,-6.972,-6.9105,-6.8889,-6.8889,-6.8889,-6.8889,-6.8889,0.0,0.0,0.0,0.0,0.0,0.0,0.0,0.0,0.0,0.0,0.0,0.0,0.0,0.0,0.0,0.0,0.0,0.0,0.0,0.0,0.0,0.0,0.0,0.0,0.0,0.0,0.0,0.0,0.0,0.0,0.0,0.0,0.0,0.0,0.0,0.0,0.0,0.0,0.0,0.0,0.0,0.0,-6.9525,-6.9364,-6.7889,-6.5779,-6.5308,-6.482,0.0,0.0,-6.3299,-6.2762,-6.2972,-6.146,-5.8877,-5.5113,-5.2903,0.0,-5.1296,0.0,0.0,0.0,-5.6701,-5.8522,-6.2641,-6.267,-6.3281,-6.7812,-6.9654,-7.0733,-7.2024,-7.3787,-7.5362,0.0,-7.6882,-7.7439,-7.7748,-7.6721,-7.598,-7.5857,-7.5366,-7.5211,-7.5892,-7.6325,-7.6511,-7.6418,-7.6721,-7.6783,-7.6289,-7.6252,-7.6061,-7.5754,-7.5661,-7.5446,-7.5169,-7.5446,-7.5384,-7.5015,-7.4707,-7.4368,-7.3968,-7.3014,-7.2552,-7.2491,-7.1075,-7.0644,-7.0798,-6.9443,-6.9043,-6.9289,-6.9012,-6.8889,-6.8889,-6.8889,-6.8889,-6.8889,0.0,0.0,0.0,0.0,0.0,0.0,0.0,0.0,0.0,0.0,0.0,0.0,0.0,0.0,0.0,0.0,0.0,0.0,0.0,0.0,0.0,0.0,0.0,0.0,0.0,0.0,0.0,0.0,0.0,0.0,0.0,0.0,0.0,0.0,0.0,0.0,0.0,0.0,0.0,0.0,0.0,0.0,-6.8914,-6.8289,-6.6709,-6.4714,-6.4016,-6.3209,0.0,0.0,-6.1087,-6.0769,-6.0987,-5.979,-5.774,-5.4529,-5.2869,-5.2596,-5.4694,0.0,0.0,-5.9461,-6.1768,-6.3954,-6.4942,-6.5534,-6.7096,-7.1199,-7.2952,-7.4061,-7.5415,-7.7016,0.0,-7.8555,-7.9047,-7.9386,-7.9386,-7.8001,-7.6831,-7.6338,-7.5538,-7.5199,-7.5692,-7.6338,-7.6708,-7.6585,-7.7477,-7.76,-7.6746,-7.7046,-7.7139,-7.6869,-7.6431,-7.6215,-7.6,-7.6184,-7.6031,-7.5569,-7.5353,-7.4922,-7.4245,-7.3383,-7.2983,-7.2922,-7.1721,-7.1198,-7.1105,-6.972,-6.9259,-6.9413,-6.9043,-6.9012,-6.9135,-6.8951,-6.8889,-6.8889,0.0,0.0,0.0,0.0,0.0,0.0,0.0,0.0,0.0,0.0,0.0,0.0,0.0,0.0,0.0,0.0,0.0,0.0,0.0,0.0,0.0,0.0,0.0,0.0,0.0,0.0,0.0,0.0,0.0,0.0,0.0,0.0,0.0,0.0,0.0,0.0,0.0,0.0,0.0,0.0,0.0,0.0,-6.8962,-6.6077,-6.4816,-6.4621,-6.3861,0.0,0.0,0.0,-5.8997,-5.9002,-5.8529,-5.7239,0.0,-5.3638,-5.0609,0.0,0.0,0.0,-5.7523,-6.1637,-6.5257,-6.8458,-7.1105,-7.2214,-7.366,-7.7077,-7.7816,-7.8278,-7.9663,-8.0494,-8.074,-8.0155,-8.0063,-8.0094,-8.0094,-7.8308,-7.7016,-7.6985,-7.5815,-7.5015,0.0,-7.5661,-7.6585,-7.7877,-7.8001,-7.8164,-7.8529,-7.8133,-7.7517,-7.6577,-7.6777,-7.6677,-7.6031,-7.6646,-7.6985,-7.6954,-7.6277,-7.563,-7.4922,-7.3599,-7.2983,-7.2952,-7.2244,-7.1937,-7.1844,-7.0428,-7.0244,-7.0705,-6.9413,-6.9289,-6.9782,-6.9135,-6.8889,-6.8889,0.0,0.0,0.0,0.0,0.0,0.0,0.0,0.0,0.0,0.0,0.0,0.0,0.0,0.0,0.0,0.0,0.0,0.0,0.0,0.0,0.0,0.0,0.0,0.0,0.0,0.0,0.0,0.0,0.0,0.0,0.0,0.0,0.0,0.0,0.0,0.0,0.0,0.0,0.0,0.0,0.0,-6.5814,-6.5157,-6.4026,-6.165,-5.875,0.0,0.0,0.0,0.0,0.0,0.0,-5.3465,0.0,0.0,-4.9171,-5.0474,-5.3024,0.0,0.0,-6.3718,-6.7812,-7.009,-7.1875,-7.4153,-7.5538,-7.6646,-7.7785,-7.6975,-7.5962,-7.5527,-7.5589,-7.5962,-7.655,-7.8575,-8.0402,-8.1294,-8.0432,-7.9047,-7.7231,-7.6215,0.0,0.0,0.0,0.0,-7.6677,-7.797,-7.8555,-7.8195,-7.8031,-7.8031,-7.8195,-7.7816,-7.7816,-7.8062,-7.7816,-7.7693,-7.7662,-7.6092,-7.4738,-7.366,-7.3199,-7.2983,-7.2952,-7.2275,-7.1967,-7.1906,-7.0952,-7.0428,-7.0182,-6.972,-6.9413,-6.9259,-6.9474,-6.9566,-6.9505,0.0,0.0,0.0,0.0,0.0,0.0,0.0,0.0,0.0,0.0,0.0,0.0,0.0,0.0,0.0,0.0,0.0,0.0,0.0,0.0,0.0,0.0,0.0,0.0,0.0,0.0,0.0,0.0,0.0,0.0,0.0,0.0,0.0,0.0,0.0,0.0,0.0,0.0,0.0,0.0,-6.3845,-6.2718,-6.1796,-6.0978,-5.8514,0.0,0.0,0.0,0.0,0.0,0.0,0.0,0.0,-4.8748,-4.8345,-4.8984,-5.194,-5.5904,0.0,-6.4087,-6.7835,-7.2275,-7.4091,-7.5199,-7.6739,-7.797,-7.877,-7.877,-7.6603,-7.4655,-7.4214,-7.3254,-7.2973,-7.42,-7.6646,-7.8914,-8.013,-7.9563,-7.8658,-7.7508,-7.6338,0.0,0.0,0.0,0.0,-7.6369,-7.8062,-7.8893,-7.8565,-7.8862,-7.9109,-7.9243,-7.8647,-7.8647,-7.9109,-7.8401,-7.7908,-7.7662,-7.5846,-7.4553,-7.3691,-7.3199,-7.2983,-7.2952,-7.2521,-7.2214,-7.1967,-7.1752,-7.1259,-7.0644,-7.0644,-7.0367,-7.0028,-7.0182,-7.0244,-7.0182,0.0,0.0,0.0,0.0,0.0,0.0,0.0,0.0,0.0,0.0,0.0,0.0,0.0,0.0,0.0,0.0,0.0,0.0,0.0,0.0,0.0,0.0,0.0,0.0,0.0,0.0,0.0,0.0,0.0,0.0,0.0,0.0,0.0,0.0,0.0,0.0,0.0,0.0,0.0,-6.204,-6.0162,-5.9295,-5.8949,-5.7197,0.0,0.0,0.0,0.0,0.0,0.0,0.0,0.0,0.0,0.0,-4.8159,-5.2856,-5.4934,-5.749,-6.5561,-6.821,-6.9896,-7.4953,-7.72,-7.8278,-7.8986,-7.9632,-8.0063,-7.9878,-7.6684,-7.4159,0.0,0.0,-7.1987,-7.2768,-7.4397,-7.6022,-7.7212,-7.6522,-7.6351,0.0,0.0,0.0,0.0,0.0,0.0,-7.6985,0.0,-7.9213,-7.9707,-8.0508,-8.0631,-7.98,-7.9305,-7.917,-7.9201,-7.8462,-7.7724,-7.7016,-7.5661,-7.4984,-7.4892,-7.3599,-7.2983,-7.2983,-7.2983,-7.2614,-7.2091,-7.2706,-7.2614,-7.2029,-7.1998,-7.1967,-7.1906,-7.1198,-7.0952,-7.0952,0.0,0.0,0.0,0.0,0.0,0.0,0.0,0.0,0.0,0.0,0.0,0.0,0.0,0.0,0.0,0.0,0.0,0.0,0.0,0.0,0.0,0.0,0.0,0.0,0.0,0.0,0.0,0.0,0.0,0.0,0.0,0.0,0.0,0.0,0.0,0.0,0.0,0.0,-6.0469,-5.9777,0.0,-5.732,-5.6005,0.0,0.0,0.0,0.0,0.0,0.0,0.0,0.0,0.0,0.0,0.0,-5.4298,-5.7978,-6.134,-6.4777,-6.9909,-7.3014,-7.5507,-7.8924,-7.9293,-7.9139,-8.0278,-8.0309,-7.9521,-7.7548,-7.3923,-7.0458,0.0,0.0,0.0,-7.0552,-7.4435,0.0,-8.1169,-8.1248,0.0,0.0,0.0,-7.8924,-7.7416,-7.7262,0.0,0.0,-7.8585,-7.9509,-8.0662,-8.1032,-8.114,-8.1433,-8.0371,-8.0063,-8.0555,-7.9417,-7.8216,-7.7016,-7.5661,-7.4738,-7.4214,-7.3383,-7.2983,-7.2983,-7.2983,-7.2891,-7.2737,-7.2922,-7.2891,-7.2675,-7.2183,-7.1967,-7.1967,-7.1783,-7.169,-7.1783,0.0,0.0,0.0,0.0,0.0,0.0,0.0,0.0,0.0,0.0,0.0,0.0,0.0,0.0,0.0,0.0,0.0,0.0,0.0,0.0,0.0,0.0,0.0,0.0,0.0,0.0,0.0,0.0,0.0,0.0,0.0,0.0,0.0,0.0,0.0,0.0,0.0,0.0,0.0,0.0,0.0,0.0,0.0,0.0,0.0,0.0,0.0,0.0,0.0,0.0,0.0,-5.4383,-5.6154,-5.7617,-5.9394,-6.3409,0.0,-6.9878,-7.3838,-7.6823,-7.9293,-8.1417,-8.1387,-8.0494,-7.9274,-7.8442,-7.682,-7.2589,-6.8406,0.0,0.0,0.0,0.0,0.0,0.0,0.0,-8.0544,-8.12,-8.1741,0.0,-8.1664,0.0,-7.9478,-7.9109,-7.9201,0.0,0.0,-8.0278,-8.1017,-8.191,-8.2433,-8.2525,-8.151,-8.0709,-8.0217,-7.9478,-7.8401,-7.7016,-7.5661,-7.4799,-7.4399,-7.3414,-7.2983,-7.2983,0.0,-7.3137,-7.3414,-7.3414,-7.3414,-7.3383,-7.3014,-7.2675,-7.2429,-7.2429,-7.2429,-7.246,0.0,0.0,0.0,0.0,0.0,0.0,0.0,0.0,0.0,0.0,0.0,0.0,0.0,0.0,0.0,0.0,0.0,0.0,0.0,0.0,0.0,0.0,0.0,0.0,0.0,0.0,0.0,0.0,0.0,0.0,0.0,0.0,0.0,0.0,0.0,0.0,0.0,0.0,0.0,0.0,0.0,0.0,0.0,0.0,0.0,0.0,0.0,0.0,0.0,0.0,-5.809,-5.7245,-6.0568,-6.2518,-6.4615,-6.9356,-7.187,-7.3878,-7.7754,-8.0124,-8.1787,-8.3141,-8.3203,-8.1756,-7.7432,-7.5613,-7.3104,-6.7211,0.0,0.0,-6.2063,0.0,-6.2714,-6.5984,0.0,-7.5619,-7.8455,-7.9685,-8.1045,-8.3203,-8.2464,-8.1694,-8.1602,-8.1017,-8.111,-8.2248,-8.1817,-8.1479,-8.1479,-8.3141,-8.3757,-8.2987,-8.2218,-8.1017,-7.9386,-7.9109,-7.8401,-7.7293,-7.5815,-7.5138,-7.5076,-7.3722,-7.3106,-7.3106,0.0,0.0,-7.3845,-7.3845,-7.3968,-7.4122,-7.3937,-7.3599,-7.3229,-7.3045,-7.2983,-7.2983,0.0,0.0,0.0,0.0,0.0,0.0,0.0,0.0,0.0,0.0,-4.2877,-4.3365,0.0,0.0,0.0,0.0,0.0,0.0,0.0,0.0,0.0,0.0,0.0,0.0,0.0,0.0,0.0,0.0,0.0,0.0,0.0,0.0,0.0,0.0,0.0,0.0,0.0,0.0,0.0,0.0,0.0,0.0,0.0,0.0,0.0,0.0,0.0,0.0,0.0,0.0,-6.1846,-6.4426,-6.8764,-7.0901,-7.2573,-7.6577,-7.7802,-7.8585,-8.2095,-8.3295,-8.388,-8.5265,-8.3911,-8.1433,-7.7926,-7.4625,0.0,0.0,0.0,-6.1225,-6.075,0.0,0.0,-6.9588,0.0,0.0,0.0,0.0,-8.4434,0.0,0.0,0.0,0.0,0.0,0.0,0.0,0.0,0.0,-8.3572,-8.3911,-8.3541,-8.2279,-8.1079,-8.0555,-8.074,-7.9047,-7.8401,-7.8709,-7.6769,-7.5846,-7.5784,-7.443,-7.3814,-7.3783,0.0,0.0,-7.3168,-7.3168,-7.3814,-7.4707,-7.3599,-7.3783,-7.4522,-7.3383,-7.2983,-7.2983,0.0,0.0,0.0,0.0,0.0,0.0,0.0,-4.0532,-4.1046,-4.201,-4.2257,-4.2788,-4.3837,-4.3516,-4.37,0.0,0.0,0.0,0.0,0.0,0.0,0.0,0.0,0.0,0.0,0.0,0.0,0.0,0.0,0.0,0.0,0.0,0.0,0.0,0.0,0.0,0.0,0.0,0.0,0.0,0.0,0.0,0.0,0.0,0.0,0.0,0.0,0.0,0.0,0.0,-6.0897,-6.6262,-7.1298,-7.4404,-7.6807,-7.9375,-8.0502,-8.1278,-8.3449,-8.4896,-8.5696,-8.5604,-8.4095,-8.0939,-7.4377,0.0,0.0,0.0,0.0,-5.7441,-5.8507,0.0,0.0,0.0,0.0,0.0,0.0,0.0,0.0,0.0,0.0,0.0,0.0,0.0,0.0,0.0,0.0,0.0,-8.3603,-8.3572,-8.311,-8.2125,-8.111,-8.0586,-8.0586,-7.9263,-7.8585,-7.8524,-7.7169,-7.6338,-7.5969,-7.4984,-7.4522,-7.4491,-7.3814,0.0,-7.3968,-7.326,-7.3568,-7.4368,-7.3383,-7.3383,-7.3876,-7.3229,-7.2983,-7.2983,0.0,0.0,0.0,0.0,0.0,0.0,0.0,-4.0554,-4.0852,-4.1758,-4.1805,-4.2108,-4.3183,-4.2271,-4.2088,0.0,0.0,0.0,0.0,0.0,0.0,0.0,0.0,0.0,0.0,0.0,0.0,0.0,0.0,0.0,0.0,0.0,0.0,0.0,0.0,0.0,0.0,0.0,0.0,0.0,0.0,0.0,0.0,0.0,0.0,0.0,0.0,0.0,0.0,0.0,-5.8416,-6.447,-6.9746,-7.388,-7.7085,-7.8945,-8.0415,-8.1803,-8.3757,-8.5819,-8.702,-8.548,-8.388,-8.0292,-7.1267,-6.7387,0.0,0.0,0.0,0.0,0.0,0.0,0.0,0.0,0.0,0.0,0.0,0.0,0.0,0.0,0.0,0.0,0.0,0.0,0.0,0.0,0.0,0.0,0.0,-8.3233,-8.2833,-8.231,-8.1356,-8.0679,-8.0309,-7.9509,-7.8893,-7.8462,-7.7631,-7.6954,-7.64,-7.56,-7.5199,-7.5169,-7.4491,0.0,0.0,-7.363,-7.3506,-7.3937,-7.326,-7.3076,-7.3199,-7.3045,-7.3076,-7.3168,0.0,0.0,0.0,0.0,0.0,0.0,0.0,-3.9321,-3.9061,-4.1398,-4.1384,-4.1709,-4.312,-4.1576,-4.0962,0.0,0.0,0.0,0.0,0.0,0.0,0.0,0.0,0.0,0.0,0.0,0.0,0.0,0.0,0.0,0.0,0.0,0.0,0.0,0.0,0.0,0.0,0.0,0.0,0.0,0.0,0.0,0.0,0.0,0.0,0.0,0.0,0.0,0.0,0.0,0.0,-5.804,-6.3171,-6.7718,-7.1594,-7.5206,0.0,0.0,-8.3644,-8.6527,-8.7604,-8.5604,-8.3172,-7.9501,-7.247,0.0,0.0,0.0,0.0,-5.6336,-5.813,0.0,0.0,0.0,0.0,-6.9083,0.0,0.0,0.0,0.0,0.0,0.0,0.0,0.0,0.0,0.0,0.0,0.0,0.0,-8.3757,-8.3049,-8.2987,-8.1171,-8.0432,-8.0986,-7.9724,-7.9386,-7.9909,-7.8585,-7.7908,-7.7785,-7.6492,-7.5907,-7.5877,0.0,0.0,0.0,-7.3968,-7.3937,-7.3937,-7.326,-7.3353,-7.3814,-7.3199,-7.3383,-7.3814,0.0,0.0,0.0,0.0,0.0,0.0,-3.9978,-3.8964,-3.8879,-4.1025,-4.0666,-4.0592,-4.1626,-4.0634,-4.0375,-4.1614,0.0,0.0,0.0,0.0,0.0,0.0,0.0,0.0,0.0,0.0,0.0,0.0,0.0,0.0,0.0,0.0,0.0,0.0,0.0,0.0,0.0,0.0,0.0,0.0,0.0,0.0,0.0,0.0,0.0,0.0,0.0,0.0,0.0,0.0,0.0,0.0,-5.4738,-5.7327,0.0,0.0,-7.5001,-7.7607,-8.2265,-8.571,-8.7397,-8.5926,-8.2156,-7.7477,-7.1634,0.0,0.0,0.0,-5.5789,-5.5877,-5.713,-5.727,-5.8221,-6.1498,-6.2735,0.0,0.0,0.0,0.0,0.0,0.0,0.0,0.0,0.0,0.0,0.0,0.0,0.0,0.0,-8.3449,-8.2495,-8.2495,-8.0956,-8.0432,-8.1079,-8.0155,-7.9847,-8.0094,-7.954,-7.9078,-7.8647,-7.7662,-7.7231,-7.7169,0.0,0.0,0.0,-7.4769,-7.4584,-7.4584,-7.4307,-7.4368,-7.4522,-7.3845,-7.403,-7.4461,0.0,0.0,0.0,0.0,0.0,-3.8469,-3.9613,-3.9143,-3.9254,-4.105,-4.0412,-4.0173,-4.1155,-4.0099,-3.9815,-4.1113,-3.9884,0.0,0.0,0.0,0.0,0.0,0.0,0.0,0.0,0.0,0.0,0.0,0.0,0.0,0.0,0.0,0.0,0.0,0.0,0.0,0.0,0.0,0.0,0.0,0.0,0.0,0.0,0.0,0.0,0.0,0.0,0.0,0.0,0.0,0.0,0.0,0.0,0.0,0.0,0.0,-7.0517,-7.4857,-7.8994,-8.3755,-8.7117,-8.5409,-8.1076,-7.5815,0.0,0.0,0.0,0.0,-5.5336,-5.5622,-5.6463,-5.6445,-5.6965,-5.9128,-6.0044,-6.2153,0.0,0.0,0.0,0.0,0.0,0.0,0.0,0.0,0.0,0.0,0.0,0.0,0.0,-8.3572,-8.2587,-8.2372,-8.1079,-8.0617,-8.1079,-8.0617,-8.0402,-8.0402,-8.0001,-7.9663,-7.9355,-7.8247,-7.7847,-7.797,0.0,0.0,0.0,-7.5507,-7.5169,-7.5015,-7.5015,-7.5015,-7.4953,-7.4461,-7.4707,-7.5138,0.0,0.0,0.0,0.0,0.0,0.0,-3.9906,-3.9622,-3.9921,-4.1528,-4.0795,-4.0736,-4.2452,-4.0206,-3.9103,-4.0577,-4.0667,0.0,0.0,0.0,0.0,0.0,0.0,0.0,0.0,0.0,0.0,0.0,0.0,0.0,0.0,0.0,0.0,0.0,0.0,0.0,0.0,0.0,0.0,0.0,0.0,0.0,0.0,0.0,0.0,0.0,0.0,0.0,0.0,0.0,0.0,0.0,0.0,0.0,0.0,0.0,-6.2115,-6.9415,-7.351,-8.0679,-8.6459,-8.3936,-7.9716,-7.4904,0.0,0.0,0.0,0.0,-5.5942,-5.6252,-5.6819,-5.6686,-5.7401,-6.0232,-5.9034,-6.0192,-6.6823,0.0,0.0,0.0,0.0,0.0,0.0,0.0,0.0,0.0,0.0,0.0,0.0,0.0,-8.3757,-8.311,-8.1756,-8.1079,-8.1079,-8.1079,-8.1048,-8.1048,-7.9724,-7.9447,-8.0032,-7.797,-7.7385,0.0,0.0,0.0,0.0,-7.6,-7.56,-7.5015,-7.5015,-7.5015,-7.5015,-7.4984,-7.5415,-7.5907,0.0,0.0,0.0,0.0,0.0,0.0,0.0,-3.8026,-3.7853,-3.8543,-3.8264,-3.841,-3.9536,-3.9788,-3.9718,-3.9249,-3.8453,0.0,0.0,0.0,0.0,0.0,0.0,0.0,0.0,0.0,0.0,0.0,0.0,0.0,0.0,0.0,0.0,0.0,0.0,0.0,0.0,0.0,0.0,0.0,0.0,0.0,0.0,0.0,0.0,0.0,0.0,0.0,0.0,0.0,0.0,0.0,0.0,0.0,0.0,0.0,0.0,0.0,-6.595,-7.0517,-7.3937,-7.259,-6.906,-6.5467,-6.3666,0.0,0.0,0.0,-5.5257,-5.5869,-5.5693,-5.6248,-5.7242,-5.8971,-5.9437,-6.0702,0.0,0.0,0.0,0.0,0.0,0.0,0.0,0.0,0.0,0.0,0.0,0.0,0.0,0.0,-8.3788,-8.311,-8.2218,-8.154,-8.1079,-8.1079,-8.1079,-8.1079,-8.0648,-8.0555,-8.0709,-7.9139,0.0,0.0,0.0,0.0,0.0,-7.6892,-7.6585,-7.6369,-7.6369,-7.6369,-7.6338,-7.5846,-7.6123,-7.6523,0.0,0.0,0.0,0.0,0.0,0.0,0.0,-3.72,-3.7171,-3.7584,-3.6962,-3.7037,-3.8359,-3.9121,-3.9353,-3.888,-3.8352,0.0,0.0,0.0,0.0,0.0,0.0,0.0,0.0,0.0,0.0,-4.0283,-3.94,-3.9354,-3.9974,-3.9408,0.0,0.0,0.0,0.0,0.0,0.0,0.0,0.0,0.0,0.0,-4.2574,0.0,0.0,0.0,0.0,0.0,0.0,0.0,0.0,0.0,0.0,0.0,0.0,0.0,-4.9595,0.0,0.0,-6.4069,-6.7558,-6.6824,-6.3647,0.0,0.0,0.0,0.0,0.0,0.0,-5.5254,-5.4825,-5.5637,-5.6769,-5.7806,-5.8535,-6.0034,-6.2794,0.0,0.0,0.0,0.0,0.0,0.0,0.0,0.0,0.0,0.0,0.0,0.0,0.0,-8.4157,-8.348,-8.2803,-8.2125,-8.1448,-8.1448,-8.1325,-8.1079,-8.0555,-8.0432,-8.0648,-7.9016,0.0,0.0,0.0,0.0,0.0,-7.72,-7.7016,-7.7016,-7.7016,-7.7016,-7.6954,-7.6554,-7.6646,-7.6892,0.0,0.0,0.0,0.0,0.0,0.0,0.0,-3.7211,-3.7487,-3.8104,-3.6778,-3.6442,-3.839,-3.8265,-3.8419,-3.9253,0.0,0.0,0.0,0.0,0.0,0.0,0.0,0.0,0.0,-3.7769,-3.8208,-3.9408,-3.8502,-3.8604,-3.9635,-3.9166,-3.9121,-3.9408,0.0,0.0,0.0,0.0,0.0,0.0,0.0,0.0,0.0,0.0,0.0,0.0,0.0,0.0,0.0,0.0,0.0,0.0,0.0,0.0,0.0,0.0,0.0,0.0,0.0,0.0,0.0,0.0,0.0,0.0,0.0,0.0,0.0,0.0,0.0,0.0,0.0,-5.4946,-5.5992,-5.7019,-5.7082,-5.8583,0.0,0.0,0.0,0.0,0.0,0.0,0.0,0.0,0.0,0.0,0.0,0.0,0.0,0.0,-8.4803,-8.4126,-8.348,-8.2803,-8.2095,-8.2033,-8.1694,-8.1048,-7.9786,-7.9509,-8.0032,-7.8124,0.0,0.0,0.0,0.0,0.0,-7.7108,-7.7046,-7.7016,-7.7016,-7.7016,-7.7016,-7.7016,-7.7016,-7.7016,0.0,0.0,0.0,0.0,0.0,0.0,0.0,0.0,0.0,0.0,-3.641,-3.5929,-3.5812,-3.7329,-3.8331,0.0,0.0,0.0,0.0,0.0,0.0,0.0,0.0,0.0,0.0,-3.8532,-3.8413,-3.8283,-3.819,-3.8069,-3.7901,-3.7758,-3.7911,-3.8254,-3.8735,0.0,0.0,0.0,0.0,0.0,0.0,0.0,0.0,0.0,0.0,0.0,-4.1411,-4.2287,0.0,0.0,0.0,0.0,0.0,0.0,0.0,0.0,-4.5232,-4.5692,-4.7815,0.0,-5.2181,-5.2487,0.0,0.0,0.0,0.0,0.0,0.0,0.0,0.0,0.0,0.0,-5.5591,-5.819,-5.7892,-5.8893,0.0,0.0,0.0,0.0,0.0,0.0,0.0,0.0,0.0,0.0,0.0,0.0,0.0,0.0,-8.4803,-8.4126,-8.3941,-8.3295,-8.2095,-8.1571,-8.1233,-8.1079,-8.074,-8.0432,-8.0094,-7.9601,0.0,0.0,0.0,0.0,-7.8555,-7.8031,-7.7477,-7.7016,-7.7016,-7.7016,-7.7016,-7.7016,-7.7016,-7.7016,0.0,0.0,0.0,0.0,0.0,0.0,0.0,0.0,0.0,0.0,0.0,0.0,0.0,0.0,0.0,0.0,0.0,0.0,0.0,0.0,0.0,0.0,0.0,0.0,0.0,-3.7623,-3.7551,-3.7184,-3.7405,-3.7548,-3.7625,-3.7471,-3.7672,-3.8052,-3.8427,0.0,0.0,0.0,0.0,0.0,-3.8397,0.0,0.0,0.0,0.0,0.0,-4.0842,-4.1666,0.0,-4.3629,-4.4211,-4.4758,0.0,0.0,0.0,0.0,-4.4527,-4.4594,-4.5901,-4.6827,-4.7679,-4.8395,-4.8453,0.0,0.0,0.0,0.0,0.0,0.0,0.0,0.0,0.0,0.0,0.0,-5.8552,0.0,0.0,0.0,0.0,0.0,0.0,0.0,0.0,0.0,0.0,0.0,0.0,0.0,0.0,0.0,-8.4465,-8.4095,-8.348,-8.2833,-8.2095,-8.1725,-8.1387,-8.1079,-8.0771,-8.0278,-7.9632,-7.9632,-7.9478,0.0,0.0,0.0,-7.8585,-7.8185,-7.7631,-7.7016,-7.7016,-7.7016,-7.7016,-7.7016,-7.7016,-7.7016,0.0,0.0,0.0,0.0,0.0,0.0,0.0,0.0,0.0,0.0,0.0,0.0,0.0,0.0,0.0,0.0,0.0,0.0,0.0,0.0,0.0,0.0,0.0,0.0,-3.6678,-3.6693,-3.6519,-3.6172,-3.6633,-3.7114,-3.7566,-3.7539,-3.7749,-3.8202,-3.8649,0.0,0.0,0.0,0.0,0.0,-3.8062,0.0,0.0,0.0,0.0,0.0,0.0,0.0,0.0,-4.3398,-4.3934,-4.4186,-4.4734,0.0,0.0,0.0,0.0,0.0,-4.5608,-4.6771,-4.77,-4.8451,-4.8593,-4.859,0.0,0.0,0.0,0.0,0.0,0.0,0.0,0.0,0.0,0.0,0.0,0.0,0.0,0.0,0.0,0.0,0.0,0.0,0.0,0.0,0.0,0.0,0.0,0.0,0.0,0.0,0.0,-8.3788,-8.2679,-8.2033,-8.1941,-8.1941,-8.1633,-8.1079,-8.0525,-7.9847,-7.9109,-7.9293,-7.8955,0.0,0.0,0.0,-7.8185,-7.8185,-7.7724,-7.7016,-7.7016,-7.7016,-7.7016,-7.7016,-7.7016,-7.7016,0.0,0.0,0.0,0.0,0.0,0.0,0.0,0.0,0.0,0.0,0.0,0.0,0.0,0.0,0.0,0.0,0.0,0.0,0.0,0.0,0.0,0.0,0.0,-3.9031,-3.8644,-3.8036,-3.6974,-3.552,-3.6646,-3.6703,-3.5804,-3.6473,-3.7366,-3.8202,-3.8797,-3.8943,-3.8797,0.0,0.0,0.0,0.0,0.0,0.0,0.0,0.0,0.0,0.0,0.0,0.0,-4.2338,-4.3133,-4.3953,-4.4514,0.0,0.0,0.0,0.0,0.0,-4.5172,-4.7064,-4.8723,-4.8958,-4.8609,0.0,0.0,0.0,0.0,0.0,0.0,0.0,0.0,0.0,0.0,0.0,0.0,0.0,0.0,0.0,0.0,0.0,0.0,0.0,0.0,0.0,0.0,0.0,0.0,0.0,0.0,0.0,0.0,-8.2402,-8.2187,-8.1817,-8.1233,-8.1233,-8.1171,-8.1079,-8.0986,-8.0278,-7.9139,-8.0248,-8.0094,0.0,0.0,-8.0063,-7.8924,-7.8924,-7.8185,-7.7016,-7.7016,-7.7016,-7.7016,-7.7016,-7.7016,-7.7016,0.0,0.0,0.0,0.0,0.0,0.0,0.0,0.0,0.0,0.0,0.0,0.0,0.0,0.0,0.0,0.0,0.0,0.0,0.0,0.0,0.0,0.0,-3.9335,-3.9078,-3.8887,-3.7755,-3.6852,-3.6183,-3.6023,-3.5947,-3.6059,-3.6929,-3.7443,-3.7596,-3.8649,-3.887,-3.8501,-3.8575,0.0,0.0,0.0,0.0,0.0,0.0,0.0,0.0,0.0,0.0,0.0,0.0,-4.3296,-4.416,-4.4252,0.0,0.0,0.0,0.0,0.0,-4.5016,-4.6107,-4.7516,-4.935,-5.0529,0.0,0.0,0.0,0.0,0.0,0.0,0.0,0.0,0.0,0.0,0.0,0.0,0.0,0.0,0.0,0.0,0.0,0.0,0.0,0.0,0.0,0.0,0.0,0.0,0.0,0.0,0.0,0.0,0.0,-8.1725,-8.1387,-8.1079,-8.1079,-8.1079,-8.1079,-8.1079,-8.0371,-7.9139,-8.0094,-8.0032,-7.9139,0.0,-7.9663,-7.9078,-7.8678,-7.7939,-7.7016,-7.7016,-7.7016,-7.7016,-7.7016,-7.7016,-7.6954,0.0,0.0,0.0,0.0,0.0,0.0,0.0,0.0,0.0,0.0,0.0,0.0,0.0,0.0,0.0,0.0,0.0,0.0,0.0,0.0,-3.8919,-3.92,-3.9228,-3.9117,-3.9006,-3.7637,-3.6833,-3.686,-3.5836,-3.5654,-3.635,-3.7289,-3.7443,-3.7134,-3.8427,-3.8723,-3.8352,-3.8649,-3.8575,-3.8277,0.0,0.0,0.0,0.0,0.0,0.0,0.0,0.0,0.0,0.0,0.0,0.0,0.0,0.0,0.0,-4.5595,-4.5068,-4.4676,-4.5018,-4.5684,-4.6839,0.0,0.0,0.0,0.0,0.0,0.0,0.0,0.0,0.0,0.0,0.0,0.0,0.0,0.0,0.0,0.0,0.0,0.0,0.0,0.0,0.0,0.0,0.0,0.0,0.0,0.0,0.0,0.0,0.0,0.0,0.0,-8.1263,-8.1079,-8.1079,-8.1079,-8.0986,-8.0832,-8.097,-8.0353,-7.9109,-7.9768,-7.9706,-7.9109,-7.9109,-7.9016,-7.8801,-7.8247,-7.7631,-7.7016,-7.7016,-7.7016,-7.6985,-7.6831,-7.6769,-7.6838,0.0,0.0,0.0,0.0,0.0,0.0,0.0,0.0,0.0,0.0,0.0,0.0,0.0,0.0,0.0,0.0,0.0,0.0,0.0,0.0,-3.9062,-4.0204,-4.0059,-3.9944,-3.9858,-3.8531,-3.7529,-3.6907,-3.6907,-3.6361,-3.5467,-3.6587,-3.7134,-3.7289,-3.8127,-3.8649,-3.8723,-3.8575,-3.8501,-3.8456,-3.8081,0.0,0.0,0.0,0.0,0.0,0.0,0.0,0.0,0.0,0.0,0.0,0.0,0.0,-4.5117,-4.6345,-4.5873,-4.5046,-4.511,-4.71,-4.8833,0.0,0.0,0.0,0.0,0.0,0.0,0.0,0.0,0.0,0.0,0.0,0.0,0.0,0.0,0.0,0.0,0.0,0.0,0.0,0.0,0.0,0.0,0.0,0.0,0.0,0.0,0.0,0.0,0.0,0.0,0.0,0.0,-8.1079,-8.1079,-8.1079,-8.0771,-8.0186,-8.0428,-8.0057,-7.9109,-7.9542,-7.9409,-7.9109,-7.9109,-7.8709,-7.8093,-7.8062,-7.7631,-7.7016,-7.7016,-7.7016,-7.6954,-7.6308,-7.632,-7.6449,0.0,0.0,0.0,0.0,0.0,0.0,0.0,0.0,0.0,0.0,0.0,0.0,0.0,0.0,0.0,0.0,0.0,0.0,0.0,0.0,-3.9003,-3.948,-3.9397,-3.9676,-4.043,-3.8449,-3.7454,-3.7703,-3.7482,-3.6796,-3.579,-3.69,-3.7084,-3.6615,-3.7672,-3.7825,-3.7289,-3.7596,-3.7672,-3.7596,-3.7548,-3.7596,0.0,0.0,0.0,0.0,0.0,0.0,0.0,0.0,-4.1677,-4.2772,-4.3636,-4.4351,-4.5252,-4.6466,-4.6085,-4.5321,-4.5321,-4.687,0.0,0.0,0.0,0.0,0.0,0.0,0.0,0.0,0.0,0.0,0.0,0.0,0.0,0.0,0.0,0.0,0.0,0.0,0.0,0.0,0.0,0.0,0.0,0.0,0.0,0.0,0.0,0.0,0.0,0.0,0.0,0.0,0.0,-7.9847,-7.9847,-7.9847,-7.9509,-7.8832,-7.9829,-7.9644,-7.8432,-7.8565,-7.8565,-7.8401,-7.8001,-7.7877,-7.8001,-7.757,-7.7262,-7.6985,-7.6814,-7.6629,-7.6598,-7.6351,-7.6236,-7.6211,0.0,0.0,0.0,0.0,0.0,0.0,0.0,0.0,0.0,0.0,0.0,0.0,0.0,0.0,0.0,0.0,0.0,0.0,0.0,-3.8608,-3.8861,-3.8861,-3.9255,-3.9564,-3.9816,-3.8338,-3.7841,-3.8256,-3.7481,-3.6603,-3.571,-3.6744,-3.685,-3.6246,-3.7211,-3.7211,-3.6615,-3.7084,-3.7211,-3.7211,-3.7394,-3.7672,0.0,0.0,0.0,0.0,0.0,0.0,0.0,0.0,-4.1677,-4.2654,-4.3167,-4.4026,-4.5132,-4.6114,-4.5941,-4.5652,-4.6007,-4.6936,0.0,0.0,0.0,0.0,0.0,0.0,0.0,0.0,0.0,0.0,0.0,0.0,0.0,0.0,0.0,0.0,0.0,0.0,0.0,0.0,0.0,0.0,0.0,0.0,0.0,0.0,0.0,0.0,0.0,0.0,0.0,0.0,0.0,-7.8432,-7.8565,-7.8647,-7.8401,-7.7856,-7.8812,-7.875,-7.7825,-7.7825,-7.7825,-7.7794,-7.7231,-7.7169,-7.7486,-7.7108,-7.6892,-7.6777,-7.6572,-7.6488,-7.6301,-7.6084,-7.6118,-7.6275,0.0,0.0,0.0,0.0,0.0,0.0,0.0,0.0,0.0,0.0,0.0,0.0,0.0,0.0,0.0,0.0,0.0,0.0,0.0,-3.9591,-3.8833,-3.8861,-4.0013,-3.9788,-3.7962,-3.8552,-3.8779,-3.8476,-3.6849,-3.571,-3.5168,-3.5978,-3.6405,-3.6405,-3.685,-3.6978,-3.6978,-3.7211,-3.7394,-3.7653,-3.7806,-3.7882,-3.7968,0.0,0.0,0.0,0.0,0.0,0.0,0.0,-4.1677,-4.266,-4.281,-4.3567,-4.4583,-4.5321,-4.5533,-4.583,-4.7195,0.0,0.0,0.0,0.0,0.0,0.0,0.0,0.0,0.0,0.0,0.0,0.0,0.0,0.0,0.0,0.0,0.0,0.0,0.0,0.0,0.0,0.0,0.0,0.0,0.0,0.0,0.0,0.0,0.0,0.0,0.0,0.0,0.0,0.0,-7.7116,-7.7507,-7.7794,-7.7794,-7.7507,-7.7507,-7.7507,-7.7507,-7.7507,-7.7507,-7.7507,-7.7116,-7.6746,-7.6546,-7.6869,-7.6876,-7.6515,-7.6484,-7.6335,-7.5933,-7.5246,-7.5839,-7.6898,0.0,0.0,0.0,0.0,0.0,0.0,0.0,0.0,0.0,0.0,0.0,0.0,0.0,0.0,0.0,0.0,0.0,0.0,0.0,-4.0069,-3.9899,-3.8889,-3.8517,-3.8404,-3.8524,-3.9142,-3.8751,-3.7195,-3.6383,-3.6111,-3.6429,-3.6587,-3.6536,-3.6405,-3.6693,-3.6508,-3.6111,-3.6377,-3.7195,-3.8299,-3.838,-3.9321,-4.0712,0.0,0.0,0.0,0.0,0.0,0.0,0.0,0.0,0.0,-4.2885,-4.3743,-4.4556,-4.5893,-4.6232,-4.6102,-4.6024,0.0,0.0,0.0,0.0,0.0,0.0,0.0,0.0,0.0,0.0,0.0,0.0,0.0,0.0,0.0,0.0,0.0,0.0,0.0,0.0,0.0,0.0,0.0,0.0,0.0,0.0,0.0,0.0,0.0,0.0,0.0,0.0,0.0,-7.5507,-7.5728,-7.6081,-7.5913,-7.5913,-7.6081,-7.6081,-7.6232,-7.6407,-7.617,-7.5954,-7.5759,-7.6092,-7.6184,-7.6191,-7.6999,-7.7006,-7.6453,-7.6494,-7.6119,-7.5493,-7.5274,-7.5738,-7.6364,0.0,0.0,0.0,0.0,0.0,0.0,0.0,0.0,0.0,0.0,0.0,0.0,0.0,0.0,0.0,0.0,0.0,0.0,0.0,0.0,-3.9901,-3.7972,-3.7878,-3.7962,-3.8196,-3.8422,-3.7896,-3.6629,-3.6548,-3.6438,-3.635,-3.635,-3.6191,-3.6138,-3.627,-3.6111,-3.571,-3.6138,-3.7149,-3.8394,-3.8417,-3.9779,-4.1616,0.0,0.0,0.0,0.0,0.0,0.0,0.0,0.0,0.0,-4.19,-4.33,-4.4738,-4.5652,-4.6074,-4.6316,0.0,0.0,0.0,0.0,0.0,0.0,0.0,0.0,0.0,0.0,0.0,0.0,0.0,0.0,0.0,0.0,0.0,0.0,0.0,0.0,0.0,0.0,0.0,0.0,0.0,0.0,0.0,0.0,0.0,0.0,0.0,0.0,0.0,0.0,-7.4214,-7.431,-7.4687,-7.4587,-7.4837,-7.534,-7.562,-7.5836,-7.5985,-7.5805,-7.5619,-7.5428,-7.598,-7.6283,-7.6431,-7.6944,-7.7015,-7.6708,-7.6401,-7.6241,-7.5923,-7.5357,-7.5756,-7.6419,0.0,0.0,0.0,0.0,0.0,0.0,0.0,0.0,0.0,0.0,0.0,0.0,0.0,0.0,0.0,0.0,0.0,0.0,0.0,0.0,-3.9172,-3.6571,-3.7838,-3.8144,-3.7342,-3.7126,-3.6905,-3.6687,-3.7071,-3.6661,-3.5467,-3.5629,-3.571,-3.579,-3.579,-3.5872,-3.5873,-3.654,-3.7368,-3.8338,-3.8412,-3.9555,-4.1368,-4.0517,0.0,0.0,0.0,0.0,0.0,0.0,0.0,0.0,-4.0463,-4.2479,-4.5024,-4.502,-4.5457,0.0,0.0,0.0,0.0,0.0,0.0,0.0,0.0,0.0,0.0,0.0,0.0,0.0,0.0,0.0,0.0,0.0,0.0,0.0,0.0,0.0,0.0,0.0,0.0,0.0,0.0,0.0,0.0,0.0,0.0,0.0,0.0,0.0,0.0,0.0,-7.3107,-7.3231,-7.3632,-7.3849,-7.4252,0.0,-7.5589,-7.5901,-7.5839,-7.5964,-7.6057,-7.6026,-7.6364,-7.6629,-7.6985,-7.6727,-7.6705,-7.6835,-7.6338,-7.6431,-7.6825,-7.5561,-7.5908,-7.7172,0.0,0.0,0.0,0.0,0.0,0.0,0.0,0.0,0.0,0.0,0.0,0.0,0.0,0.0,0.0,0.0,0.0,0.0,0.0,0.0,-3.9339,-3.7178,-3.7896,-3.8061,-3.7504,-3.867,-3.8776,-3.759,-3.6849,-3.6389,0.0,-3.6031,-3.6058,-3.6218,-3.6587,-3.6902,-3.7121,-3.7289,-3.8533,-4.0387,-3.9837,-4.074,-4.2185,-4.0998,-4.1199,0.0,0.0,0.0,0.0,0.0,0.0,0.0,-4.0998,-4.2908,-4.4833,-4.4783,-4.6268,0.0,0.0,0.0,0.0,0.0,0.0,0.0,0.0,0.0,0.0,0.0,0.0,0.0,0.0,0.0,0.0,0.0,0.0,0.0,0.0,0.0,0.0,0.0,0.0,0.0,0.0,0.0,0.0,0.0,0.0,0.0,0.0,0.0,0.0,-7.3661,-7.3661,-7.3936,-7.4178,-7.4061,-7.4154,0.0,-7.4995,-7.5057,-7.4801,-7.5867,-7.6401,-7.6426,-7.6196,-7.64,-7.7016,-7.7222,-7.698,-7.6612,-7.6742,-7.6714,-7.6584,-7.6269,-7.6833,-7.7899,0.0,0.0,0.0,0.0,0.0,0.0,0.0,0.0,0.0,0.0,0.0,0.0,0.0,0.0,0.0,0.0,0.0,0.0,0.0,0.0,0.0,-3.7181,-3.6576,-3.6548,-3.7071,-3.7758,-3.7923,-3.7427,-3.7016,0.0,0.0,0.0,0.0,-3.7703,-3.8145,-3.82,-3.8106,-3.82,-3.9222,-4.0611,-4.0156,-4.1263,-4.2907,-4.1993,-4.2008,-4.2479,-4.1594,0.0,0.0,0.0,0.0,0.0,0.0,0.0,-4.3999,-4.4752,-4.5825,0.0,0.0,0.0,0.0,0.0,0.0,0.0,0.0,0.0,0.0,0.0,0.0,0.0,0.0,0.0,0.0,0.0,0.0,0.0,0.0,0.0,0.0,0.0,0.0,0.0,0.0,0.0,0.0,0.0,0.0,0.0,0.0,-7.3974,-7.3942,-7.3905,-7.3905,-7.4026,-7.4178,-7.4026,-7.4026,-7.4419,-7.502,-7.5334,-7.5667,-7.6301,-7.662,-7.6802,-7.6887,-7.6969,-7.7016,-7.7377,-7.7321,-7.6949,-7.6767,-7.7024,-7.7152,-7.6495,-7.6931,-7.7841,0.0,0.0,0.0,0.0,0.0,0.0,0.0,0.0,0.0,0.0,0.0,0.0,0.0,0.0,0.0,0.0,0.0,0.0,0.0,0.0,0.0,-3.6935,-3.5782,-3.562,-3.6661,-3.6688,-3.6823,-3.6935,0.0,0.0,0.0,0.0,0.0,-3.9026,-3.9436,-3.9486,-3.9207,0.0,0.0,-4.0613,-4.0282,-4.1335,-4.3041,-4.2694,-4.2544,-4.264,-4.2439,-4.0912,-3.8894,-3.9134,0.0,0.0,0.0,0.0,-4.3084,-4.4588,-4.5142,0.0,0.0,0.0,0.0,0.0,0.0,0.0,0.0,0.0,0.0,0.0,0.0,0.0,0.0,0.0,0.0,0.0,0.0,0.0,0.0,0.0,0.0,0.0,0.0,0.0,0.0,0.0,0.0,0.0,0.0,0.0,-7.4439,-7.4439,-7.4314,-7.4057,-7.4026,-7.4026,-7.4026,-7.4026,-7.4147,-7.4539,-7.5137,-7.5951,-7.6861,-7.6612,-7.665,-7.7087,-7.7773,-7.7667,-7.7147,-7.7408,-7.7507,-7.7605,-7.6887,-7.7299,-7.7929,-7.6648,-7.6838,-7.7591,0.0,0.0,0.0,0.0,0.0,0.0,0.0,0.0,0.0,0.0,0.0,0.0,0.0,0.0,0.0,0.0,0.0,0.0,-3.7111,0.0,0.0,-3.6935,-3.7868,-3.7951,-3.6989,-3.8505,-3.8505,-3.6962,0.0,0.0,0.0,0.0,0.0,-3.851,0.0,0.0,-4.0767,0.0,0.0,0.0,0.0,-4.1223,-4.1301,-4.1708,-4.1723,-4.1407,-4.0701,-4.0371,-4.0294,-3.9445,-3.9363,0.0,0.0,0.0,-4.3342,-4.3748,-4.5316,0.0,0.0,0.0,0.0,0.0,0.0,0.0,0.0,0.0,0.0,0.0,0.0,0.0,0.0,0.0,0.0,0.0,0.0,0.0,0.0,0.0,0.0,0.0,0.0,0.0,0.0,0.0,0.0,0.0,0.0,0.0,-7.4456,-7.4456,-7.4514,-7.4778,-7.4778,-7.4778,-7.4778,-7.4778,-7.4778,-7.4897,-7.4992,-7.5599,-7.6615,-7.6261,-7.6458,-7.7087,-7.7357,-7.7507,-7.7377,-7.7507,-7.7667,-7.7925,-7.7543,-7.7703,-7.8054,-7.745,-7.7579,-7.8057,0.0,0.0,0.0,0.0,0.0,0.0,0.0,0.0,0.0,0.0,0.0,0.0,0.0,0.0,0.0,-3.7339,-3.6999,-3.6598,-3.6449,-3.5945,-3.6006,-3.6661,-3.7126,-3.7236,-3.6962,-3.7645,-3.756,0.0,0.0,0.0,0.0,-3.8865,-3.9284,0.0,0.0,0.0,0.0,0.0,0.0,0.0,0.0,0.0,0.0,-4.2297,-4.2425,-4.2777,-4.1987,-4.1235,-4.0432,-4.0322,-4.0012,-3.9872,-4.0259,0.0,0.0,0.0,0.0,0.0,0.0,0.0,0.0,0.0,0.0,0.0,0.0,0.0,0.0,0.0,0.0,0.0,0.0,0.0,0.0,0.0,0.0,0.0,0.0,0.0,0.0,0.0,0.0,0.0,0.0,0.0,0.0,0.0,0.0,-7.4742,-7.4985,-7.4985,-7.4639,-7.4092,-7.4589,-7.4589,-7.4092,-7.4589,-7.4897,-7.4897,-7.4897,-7.5094,-7.5572,-7.5667,-7.6021,-7.6494,-7.718,-7.7334,-7.698,-7.7641,-7.7925,-7.8085,-7.7667,-7.7636,-7.7667,-7.7408,-7.7408,-7.7797,0.0,0.0,0.0,0.0,0.0,0.0,0.0,0.0,0.0,0.0,0.0,0.0,0.0,0.0,0.0,0.0,-3.6895,-3.6463,-3.5934,-3.5296,-3.5245,-3.6196,-3.609,-3.6252,-3.6525,-3.6764,0.0,0.0,0.0,0.0,-3.8422,-3.9229,-4.0092,0.0,-4.1723,0.0,0.0,0.0,0.0,0.0,0.0,0.0,0.0,0.0,-4.3469,-4.3938,-4.3245,-4.1965,-4.074,-4.0915,-4.0576,-4.0013,-4.0265,-4.0859,0.0,0.0,0.0,0.0,0.0,0.0,0.0,0.0,0.0,0.0,0.0,0.0,0.0,0.0,0.0,0.0,0.0,0.0,0.0,0.0,0.0,0.0,0.0,0.0,0.0,0.0,0.0,0.0,0.0,0.0,0.0,0.0,0.0,-7.5294,-7.5294,-7.5294,-7.4822,-7.3816,-7.4494,-7.4526,-7.3785,-7.4526,-7.4897,-7.4897,-7.4897,-7.4897,-7.4897,-7.5074,-7.5365,-7.5527,-7.6651,-7.6744,-7.6298,-7.7524,-7.7932,-7.7804,-7.7734,-7.7636,-7.7507,-7.7147,-7.7147,-7.7377,0.0,0.0,0.0,0.0,0.0,0.0,0.0,0.0,0.0,0.0,0.0,0.0,0.0,-3.7991,-3.7912,-3.5755,-3.6632,-3.6948,-3.5987,-3.5571,-3.5331,-3.5194,-3.5868,0.0,-3.5466,0.0,0.0,0.0,0.0,0.0,-3.82,-3.8808,-3.9747,-4.0935,-4.1542,-4.1938,-4.2234,0.0,0.0,0.0,0.0,-4.4116,0.0,0.0,0.0,0.0,0.0,0.0,-4.1562,-4.0884,-4.0516,-4.043,-4.0802,-4.1794,-4.2471,0.0,0.0,0.0,0.0,0.0,0.0,0.0,0.0,0.0,0.0,0.0,0.0,0.0,0.0,0.0,0.0,0.0,0.0,0.0,0.0,0.0,0.0,0.0,0.0,0.0,0.0,0.0,0.0,0.0,0.0,0.0,0.0,-7.496,-7.496,-7.496,-7.4897,-7.4834,-7.4866,-7.4866,-7.4834,-7.4866,-7.4897,-7.4897,-7.4897,-7.4897,-7.4897,-7.4571,-7.4241,-7.4092,-7.5465,-7.5932,-7.5585,-7.7027,-7.7308,-7.7118,-7.7804,-7.7797,-7.7507,-7.7147,-7.7016,-7.7016,0.0,0.0,0.0,0.0,0.0,0.0,0.0,0.0,0.0,0.0,0.0,0.0,0.0,-3.8191,-3.7462,-3.6659,-3.6319,-3.6131,-3.5903,-3.5574,-3.5182,-3.4673,-3.5437,-3.5764,-3.5548,0.0,0.0,0.0,0.0,-3.7703,-3.8061,-3.9723,-4.0785,-4.1202,-4.1485,-4.1672,-4.157,-4.1666,0.0,0.0,-4.3144,-4.3758,-4.3824,0.0,0.0,0.0,0.0,0.0,0.0,-4.1905,-4.1559,-4.1491,-4.0796,-4.0938,-4.1362,-4.1538,-4.2219,-4.3588,0.0,0.0,0.0,0.0,0.0,0.0,0.0,0.0,0.0,0.0,0.0,0.0,0.0,0.0,0.0,0.0,0.0,0.0,0.0,0.0,0.0,0.0,0.0,0.0,0.0,0.0,0.0,0.0,0.0,0.0,-7.4897,-7.4897,-7.4557,-7.3997,-7.4526,-7.4897,-7.4897,-7.4897,-7.4897,-7.4897,-7.4897,-7.4897,-7.4897,-7.4268,-7.4026,-7.3936,-7.4221,-7.4594,-7.4998,-7.6089,-7.662,-7.6682,-7.7245,-7.7271,-7.7175,-7.6992,-7.7016,-7.7016,0.0,0.0,0.0,0.0,0.0,0.0,0.0,0.0,0.0,0.0,0.0,0.0,0.0,0.0,-3.8038,-3.7764,-3.683,-3.62,-3.6294,-3.6223,-3.5852,-3.534,-3.596,-3.6547,-3.682,0.0,0.0,0.0,0.0,0.0,0.0,0.0,-4.1052,-4.1696,-4.1653,0.0,0.0,0.0,0.0,-4.2043,0.0,-4.4442,-4.4271,0.0,0.0,0.0,0.0,0.0,0.0,0.0,-4.3763,-4.3144,-4.2157,-4.1135,-4.0709,-4.2619,-4.3041,-4.3285,-4.4805,0.0,0.0,0.0,0.0,0.0,0.0,0.0,0.0,0.0,0.0,0.0,0.0,0.0,0.0,0.0,0.0,0.0,0.0,0.0,0.0,0.0,0.0,0.0,0.0,0.0,0.0,0.0,0.0,0.0,-7.4508,-7.4508,-7.4319,-7.3879,-7.4526,-7.4897,-7.4897,-7.4897,-7.4897,-7.4897,-7.4897,-7.4897,-7.4897,-7.4147,-7.3905,-7.3905,-7.3478,-7.3602,-7.4066,-7.5247,-7.5808,-7.6057,-7.6617,-7.6926,-7.7046,-7.6992,-7.6892,-7.6708,0.0,0.0,0.0,0.0,0.0,0.0,0.0,0.0,0.0,0.0,0.0,0.0,0.0,0.0,0.0,-3.9045,-3.8035,-3.7379,-3.7211,-3.7373,-3.7438,-3.7108,-3.7479,-3.8167,-3.8935,0.0,0.0,0.0,0.0,0.0,0.0,0.0,-4.054,0.0,-4.2122,-4.2722,-4.416,0.0,-4.4523,-4.3492,0.0,-4.6452,-4.4668,0.0,0.0,0.0,-4.7381,-4.6442,0.0,0.0,0.0,0.0,-4.4787,-4.2559,-4.0813,-4.3793,-4.3613,-4.2609,0.0,0.0,0.0,0.0,0.0,0.0,0.0,0.0,0.0,0.0,0.0,0.0,0.0,0.0,0.0,0.0,0.0,0.0,0.0,0.0,0.0,0.0,0.0,0.0,0.0,0.0,0.0,0.0,0.0,-7.317,-7.3783,-7.3905,-7.4147,-7.4897,-7.4897,-7.4897,-7.4897,-7.4897,-7.4897,-7.4897,-7.4897,-7.4897,-7.4897,-7.4147,-7.3905,-7.3905,-7.32,-7.2983,-7.3169,-7.4438,-7.4967,-7.5015,-7.6077,-7.6629,-7.6954,-7.7016,-7.6585,-7.6092,0.0,0.0,0.0,0.0,0.0,0.0,0.0,0.0,0.0,0.0,0.0,0.0,0.0,0.0,-3.9144,-3.9702,-3.8616,-3.7862,-3.7789,-3.8151,-3.8075,-3.716,-3.8235,-3.8863,-3.9024,-3.9656,0.0,0.0,0.0,0.0,0.0,0.0,0.0,0.0,-4.3473,-4.4405,-4.5621,-4.4553,0.0,0.0,-4.5785,-4.6272,0.0,0.0,0.0,0.0,0.0,-4.7299,0.0,0.0,-4.6281,-4.2789,0.0,0.0,-4.3702,-4.2213,-4.281,-4.3692,-4.2516,0.0,0.0,0.0,0.0,0.0,0.0,0.0,0.0,0.0,0.0,0.0,0.0,0.0,0.0,0.0,0.0,0.0,0.0,0.0,0.0,0.0,0.0,0.0,0.0,0.0,0.0,0.0,-7.2517,-7.3046,-7.317,-7.3661,-7.4147,-7.4897,-7.4897,-7.4897,-7.4897,-7.4897,-7.4897,-7.4897,-7.4897,-7.4897,-7.4897,-7.4147,-7.3905,-7.3905,-7.32,-7.2983,-7.3014,-7.3695,-7.3881,-7.4035,-7.5306,-7.5895,-7.6046,-7.6777,-7.6585,-7.6031,0.0,0.0,0.0,0.0,0.0,0.0,0.0,0.0,0.0,0.0,0.0,0.0,0.0,0.0,-3.9373,-3.9725,-3.9069,-3.8818,-3.8894,-3.9219,-3.9111,-3.8736,-3.9468,-3.9887,-3.9945,-4.0275,-4.0581,0.0,0.0,0.0,0.0,0.0,0.0,0.0,0.0,0.0,0.0,0.0,0.0,0.0,-4.6413,0.0,0.0,-4.8389,-4.9149,0.0,0.0,0.0,-4.8559,-5.0854,-4.8661,0.0,0.0,0.0,0.0,-4.2777,-4.337,-4.4132,-4.2278,0.0,0.0,0.0,0.0,0.0,0.0,0.0,0.0,0.0,0.0,0.0,0.0,0.0,0.0,0.0,0.0,0.0,0.0,0.0,0.0,0.0,0.0,0.0,0.0,0.0,0.0,-7.1111,-7.1522,-7.1895,-7.2391,-7.3416,-7.3901,-7.4099,-7.462,-7.4771,-7.4486,-7.4739,-7.4897,-7.4897,-7.4897,-7.4897,-7.4897,-7.4147,-7.3905,-7.3905,-7.32,-7.2983,-7.2983,-7.3231,-7.3417,-7.3756,-7.4528,-7.5177,-7.5764,-7.6437,-7.6338,-7.6061,0.0,0.0,0.0,0.0,0.0,0.0,0.0,0.0,0.0,0.0,0.0,0.0,0.0,0.0,0.0,-3.9365,-3.9544,-3.9853,-3.9982,-4.0084,-4.0262,-4.0689,-4.0675,-4.0736,-4.1106,-4.0719,-4.0995,-4.17,0.0,0.0,0.0,0.0,0.0,0.0,0.0,0.0,0.0,0.0,0.0,-4.5706,-4.7863,-4.8218,0.0,0.0,-5.0514,0.0,-5.2387,-5.2073,-5.0869,-5.3298,-5.1896,0.0,0.0,0.0,0.0,0.0,-4.4696,0.0,0.0,-4.3464,-4.4321,0.0,0.0,0.0,-4.6828,-4.8661,0.0,0.0,0.0,0.0,0.0,0.0,0.0,0.0,0.0,0.0,0.0,0.0,0.0,0.0,0.0,0.0,0.0,-6.8944,-6.9273,-6.9931,-6.9991,-7.0427,-7.1516,-7.2675,-7.3133,-7.2782,-7.3917,-7.4368,-7.3917,-7.4431,-7.4778,-7.4897,-7.4897,-7.4897,-7.4778,-7.4147,-7.3905,-7.3783,-7.32,-7.2983,-7.2983,-7.2983,-7.3322,-7.3907,-7.3968,-7.4769,-7.5907,-7.5907,-7.5938,-7.6092,-3.747,0.0,0.0,0.0,-3.8462,0.0,0.0,0.0,0.0,0.0,0.0,0.0,0.0,0.0,0.0,-3.9297,-3.9728,-3.988,-3.9725,-3.9899,-3.9891,-3.9816,-4.0156,-4.0576,-4.0777,-4.0935,-4.1039,-4.124,0.0,0.0,0.0,0.0,0.0,0.0,0.0,0.0,0.0,0.0,0.0,-4.5881,-4.8297,0.0,-4.8635,-5.0623,-5.1461,-5.1661,-5.28,-5.1587,-4.9281,0.0,-4.9004,-5.0183,0.0,0.0,0.0,0.0,0.0,0.0,0.0,0.0,0.0,0.0,0.0,0.0,-4.5531,-4.6706,0.0,0.0,0.0,0.0,0.0,0.0,0.0,0.0,0.0,0.0,0.0,0.0,0.0,0.0,0.0,0.0,0.0,-6.8675,-6.9273,-6.9931,-6.9704,-6.9496,-6.9556,-6.9778,-7.0464,-7.1676,-7.1965,-7.2639,-7.3917,-7.4074,-7.4388,-7.4897,-7.4897,-7.4778,-7.4539,-7.4026,-7.3814,-7.3601,-7.3107,-7.2983,-7.2983,-7.2983,-7.3076,-7.3229,-7.3783,-7.4491,-7.5199,-7.5199,-7.5538,-7.5938,-3.7632,0.0,0.0,0.0,-3.8365,-3.8367,0.0,0.0,0.0,0.0,0.0,0.0,0.0,0.0,0.0,-4.0592,-4.044,-4.0262,-4.0282,-4.0356,-4.0426,-4.0363,-4.0658,-4.076,-4.0569,-4.0094,-3.9822,-3.9822,0.0,0.0,0.0,0.0,0.0,0.0,0.0,0.0,0.0,0.0,-4.5928,-4.6615,-4.8184,0.0,-4.9303,-5.1106,-5.2204,-5.2725,-5.3054,-5.2562,-5.1439,-4.9498,-4.9963,0.0,0.0,-4.7911,-4.7963,0.0,-4.5338,-4.5981,0.0,0.0,0.0,-4.3194,0.0,0.0,0.0,-4.4862,0.0,0.0,0.0,0.0,0.0,0.0,0.0,0.0,0.0,0.0,0.0,0.0,0.0,0.0,0.0,0.0,0.0,-6.7384,-6.7802,-6.8661,-6.8891,-6.8793,-6.8564,-6.8788,-6.9235,-6.9641,-7.0585,-7.1292,-7.1609,-7.2977,-7.3718,-7.3886,-7.4382,-7.4539,-7.4419,-7.3936,-7.3601,-7.3509,-7.3107,-7.2983,-7.2983,-7.2983,-7.2983,-7.3014,-7.3353,-7.3907,-7.4522,-7.4892,-7.5415,-7.5969,-3.7814,0.0,0.0,0.0,-3.8241,-3.8116,-3.7917,-3.9323,0.0,0.0,0.0,0.0,0.0,0.0,0.0,0.0,-4.1256,-4.1041,0.0,0.0,0.0,-4.1255,-4.1214,-4.087,-4.0298,-3.9362,-3.8819,-3.858,0.0,0.0,0.0,0.0,0.0,0.0,0.0,0.0,0.0,0.0,0.0,-4.741,0.0,-4.876,-4.9509,-5.1409,-5.2353,-5.2718,-5.2815,-5.3324,-5.3773,-5.1965,0.0,-5.0623,-4.9956,-4.8756,0.0,0.0,0.0,0.0,0.0,0.0,0.0,0.0,0.0,-4.3418,0.0,0.0,0.0,0.0,0.0,0.0,0.0,0.0,0.0,0.0,0.0,0.0,0.0,0.0,0.0,0.0,0.0,0.0,0.0,-6.6191,-6.658,-6.704,-6.7939,-6.8072,-6.757,-6.7923,-6.8035,-6.7593,-6.9351,-6.994,-6.9365,-7.1752,-7.2799,-7.2755,-7.3714,-7.4178,-7.4178,-7.3723,-7.3509,-7.3386,-7.3107,-7.2983,-7.2983,-7.2983,-7.2983,-7.2983,-7.2983,-7.3383,-7.403,-7.4461,-7.5199,-7.6,-3.7889,-3.8316,0.0,0.0,-3.9701,-3.9829,-3.8818,-4.0287,0.0,0.0,0.0,0.0,0.0,0.0,0.0,0.0,0.0,0.0,-4.2571,0.0,-4.1599,-4.1338,-4.1258,-4.0808,-3.9679,-3.9986,-3.9721,-3.8699,0.0,0.0,0.0,0.0,0.0,0.0,-4.4237,0.0,0.0,0.0,-4.6599,0.0,-4.8379,-4.8738,0.0,-5.0875,-5.1227,-5.0899,-5.125,-5.2247,-5.2808,0.0,-4.8987,-4.9062,0.0,-4.7782,-4.8588,-4.6338,0.0,0.0,0.0,0.0,0.0,0.0,-4.2953,0.0,0.0,0.0,0.0,0.0,0.0,0.0,0.0,0.0,0.0,0.0,0.0,0.0,0.0,0.0,0.0,0.0,0.0,0.0,0.0,0.0,-6.7155,-6.5793,-6.7111,-6.7278,-6.5836,-6.5582,-6.5777,-6.6506,-6.7432,-6.8139,-6.8972,-7.038,-7.1425,-7.1997,-7.2707,-7.32,-7.3632,-7.3509,-7.3355,-7.3107,-7.2983,-7.2983,-7.2983,-7.2983,-7.2983,-7.2983,-7.2983,-7.3383,-7.3937,-7.3414,-7.4399,-7.5938,-3.826,-3.8567,0.0,0.0,-3.98,-3.9803,-3.8944,-3.9624,0.0,0.0,0.0,0.0,0.0,0.0,0.0,0.0,0.0,0.0,0.0,0.0,-4.2018,-4.1603,0.0,0.0,-4.0817,-4.0578,-4.0017,-3.9233,-4.1444,0.0,0.0,0.0,0.0,0.0,-4.4828,0.0,-4.6614,0.0,0.0,0.0,0.0,0.0,0.0,-5.069,-5.1106,-5.1006,-5.1553,-5.2127,-5.2426,0.0,-5.0088,0.0,0.0,0.0,0.0,0.0,0.0,0.0,0.0,0.0,0.0,0.0,0.0,0.0,-4.2442,0.0,-4.2047,0.0,0.0,0.0,0.0,0.0,0.0,0.0,-5.0846,0.0,0.0,0.0,0.0,0.0,0.0,0.0,0.0,0.0,0.0,0.0,-6.4656,-6.5029,-6.4143,-6.4367,-6.4716,-6.5572,-6.6224,-6.6803,-6.7397,-6.8742,-6.9909,-7.0759,-7.1688,-7.2304,-7.2828,-7.3107,-7.3107,-7.2983,-7.2983,-7.2983,-7.2983,-7.2983,-7.2983,-7.2983,-7.2983,-7.3168,-7.3414,-7.3537,-7.4091,-7.4799,-3.8409,0.0,0.0,0.0,0.0,0.0,-3.9649,-3.9496,0.0,0.0,0.0,0.0,-4.444,-4.4647,0.0,0.0,0.0,-4.4439,0.0,0.0,-4.3013,0.0,0.0,0.0,0.0,-4.1419,-4.0697,-3.9834,-4.1452,0.0,0.0,0.0,0.0,0.0,0.0,-4.6462,-4.7693,0.0,0.0,-4.9108,-5.0025,-4.9968,-4.9423,-5.0353,-5.0956,-5.1259,-5.1558,-5.1887,-5.2157,-5.1786,-5.0943,0.0,-5.2586,0.0,0.0,0.0,0.0,0.0,-4.5531,0.0,0.0,0.0,0.0,0.0,0.0,0.0,0.0,0.0,0.0,0.0,0.0,0.0,-4.6813,-4.9144,0.0,-5.0854,0.0,0.0,0.0,0.0,0.0,0.0,0.0,0.0,0.0,-6.2231,-6.303,-6.3432,-6.2942,-6.3428,-6.4067,-6.4706,-6.5519,-6.5967,-6.6049,-6.7353,-6.8516,-6.9347,-7.032,-7.1248,-7.2043,-7.2326,-7.2578,-7.2703,-7.2703,-7.2828,-7.2983,-7.2983,-7.2983,-7.2983,-7.2983,-7.2983,-7.3045,-7.3537,-7.3845,-7.3999,-3.8409,-3.9297,0.0,0.0,0.0,0.0,0.0,0.0,0.0,0.0,0.0,0.0,0.0,0.0,0.0,0.0,0.0,-4.862,-4.7514,0.0,-4.4744,0.0,0.0,0.0,0.0,0.0,-4.2108,-4.0383,-4.2034,0.0,0.0,0.0,0.0,0.0,0.0,-4.6756,-4.7587,-4.7213,-4.7998,-4.9404,-4.86,-4.8997,-5.0117,0.0,-5.0288,-5.1139,-5.0511,0.0,0.0,-5.0677,-5.0661,0.0,0.0,0.0,0.0,0.0,0.0,0.0,0.0,0.0,0.0,-4.5289,0.0,0.0,0.0,0.0,-4.1877,0.0,0.0,0.0,-4.4296,-4.4787,-4.5533,-4.6874,-4.8851,0.0,0.0,0.0,0.0,0.0,0.0,0.0,0.0,0.0,0.0,-6.2574,-6.3172,-6.3328,-6.2637,-6.2884,-6.3399,-6.4038,-6.5286,-6.5635,-6.5025,-6.6244,-6.7276,-6.7924,-6.8732,-6.9613,-7.0889,-7.0919,-7.1277,-7.1886,-7.1886,-7.2296,-7.2983,-7.2983,-7.2983,-7.2983,-7.2983,-7.2983,-7.2983,-7.3014,-7.3414,-7.3999,0.0,0.0,0.0,0.0,0.0,0.0,0.0,-4.0542,0.0,0.0,0.0,0.0,0.0,0.0,-4.8751,0.0,0.0,-4.9179,-4.8457,-4.665,0.0,0.0,0.0,-4.3677,0.0,0.0,0.0,0.0,0.0,0.0,0.0,0.0,0.0,0.0,0.0,-4.7292,0.0,0.0,0.0,0.0,0.0,-4.9626,-4.9963,0.0,0.0,-5.1768,-5.1109,-5.1439,0.0,-5.2673,-5.1748,-5.1013,-5.3976,-5.2847,-5.0854,-5.3692,-5.307,0.0,0.0,0.0,-5.1356,-4.8477,0.0,0.0,0.0,0.0,0.0,0.0,0.0,0.0,0.0,-4.4237,-4.4613,-4.6018,-4.6766,-4.7521,0.0,0.0,0.0,0.0,0.0,0.0,0.0,0.0,0.0,-5.9014,-5.9634,-6.0033,-5.9714,-6.1019,-6.2325,-6.337,-6.4241,-6.4967,-6.5606,-6.5635,-6.6403,-6.7918,-6.8077,-6.8938,-7.0265,-7.0658,-7.1277,-7.1886,-7.1886,-7.2296,-7.2983,-7.2983,-7.2983,-7.2983,-7.2983,-7.2983,-7.2983,-7.2983,-7.3137,-7.3445,-3.9136,0.0,0.0,0.0,0.0,0.0,0.0,0.0,0.0,0.0,-4.6083,0.0,-4.996,0.0,-5.0685,0.0,-5.1403,-5.0584,-4.9059,-4.8121,0.0,-4.5898,-4.5091,0.0,0.0,0.0,0.0,0.0,0.0,-4.6229,0.0,0.0,0.0,0.0,0.0,0.0,0.0,0.0,-4.888,0.0,0.0,-4.9434,0.0,0.0,-5.0862,-5.1743,0.0,-5.1678,-5.2127,-5.3952,-5.3238,-5.2201,-5.5807,-5.4696,-5.2505,-5.531,-5.453,-5.2897,-5.2991,-5.3555,0.0,-5.073,-4.9514,0.0,-4.6864,0.0,-4.4852,0.0,0.0,0.0,-4.6667,-4.4995,-4.4181,-4.6491,-4.5898,-4.5631,0.0,-4.7881,0.0,0.0,0.0,0.0,0.0,0.0,-5.6735,-5.6631,-5.7093,-5.7503,0.0,0.0,-6.0758,-6.2035,-6.3138,-6.4212,-6.5257,-6.5083,-6.5722,-6.7173,-6.7494,-6.8093,-6.9148,-6.9884,-7.0498,-7.1118,-7.1118,-7.1789,-7.2578,-7.2578,-7.2703,-7.2983,-7.2983,-7.2983,-7.2983,-7.2983,-7.3137,-7.3476,0.0,0.0,0.0,0.0,-3.9522,0.0,0.0,0.0,-4.3127,0.0,-4.7322,-4.7929,-5.0848,-5.2128,-5.2515,-5.1874,-5.3266,0.0,-4.9618,-4.9981,0.0,0.0,-4.6671,-4.6571,-4.604,0.0,0.0,0.0,0.0,0.0,0.0,0.0,0.0,0.0,-4.7279,0.0,-4.8143,-4.7377,-4.7561,-4.8618,-4.8385,-4.8716,-4.9374,-5.0002,-5.055,-5.1092,-5.1869,-5.1768,-5.1678,-5.4251,-5.47,-5.45,-5.6083,-5.6576,-5.6526,-5.6252,-5.6464,-5.6486,-5.4551,-5.467,-5.467,-5.1916,-5.1414,0.0,0.0,0.0,-4.9069,0.0,0.0,0.0,-5.0246,-4.6786,-4.4501,-4.7905,-4.6256,-4.4442,-4.4239,-4.565,-4.6461,0.0,0.0,0.0,0.0,-5.5327,-5.5999,-5.5678,-5.5701,0.0,0.0,0.0,-5.8842,-6.0119,-6.2006,-6.3312,-6.398,-6.4619,-6.5257,-6.5896,-6.6564,-6.7231,-6.7899,-6.8538,-6.9203,-6.9869,-6.9869,-7.0629,-7.1886,-7.1886,-7.2296,-7.2983,-7.2983,-7.2983,-7.2983,-7.2983,-7.3445,-7.403,-4.111,-4.0556,-3.9745,0.0,-3.9748,-4.044,0.0,0.0,0.0,0.0,-5.0169,-5.1889,-5.3925,-5.4462,-5.4303,-5.3657,-5.4052,0.0,0.0,0.0,0.0,-5.0116,-4.8522,-4.8134,-4.9194,-4.7587,0.0,-4.9014,0.0,0.0,-4.8535,0.0,0.0,0.0,0.0,0.0,-4.8172,-4.7999,-4.8248,-4.888,-4.8823,-4.9134,0.0,0.0,-5.0926,-5.152,-5.1458,-5.1678,-5.2217,-5.3892,-5.4111,-5.4157,-5.6576,-5.694,-5.6602,-5.7525,-5.7358,-5.6843,-5.68,-5.6617,-5.5999,-5.4352,-5.3555,-5.2792,0.0,0.0,0.0,0.0,0.0,0.0,0.0,-4.6462,-4.4996,-4.4938,-4.4438,-4.4259,-4.4908,-4.5747,0.0,-4.5382,0.0,-5.1404,-5.2427,-5.2222,-5.2634,-5.4391,-5.4422,0.0,0.0,0.0,0.0,-5.948,-6.0932,-6.2209,-6.3312,-6.3951,-6.459,-6.5228,-6.636,-6.7231,-6.7899,-6.8538,-6.9203,-6.9869,-6.9869,-7.0397,-7.1148,-7.1631,-7.2013,-7.2296,-7.2828,-7.2983,-7.2983,-7.2983,-7.3722,-7.4738,-4.0905,0.0,0.0,-3.8711,0.0,0.0,-4.1839,0.0,0.0,-4.8938,-5.0735,0.0,-5.4147,-5.5394,-5.5768,-5.5086,-5.5096,0.0,0.0,0.0,0.0,-5.1362,-5.0556,-5.0319,-5.0692,-4.8603,0.0,-4.9558,0.0,0.0,-4.8377,0.0,0.0,0.0,0.0,-4.7438,0.0,-4.8043,-4.8531,-4.8952,-4.8944,0.0,0.0,-5.0397,-5.106,-5.1413,-5.1539,-5.175,-5.2197,-5.3849,-5.4067,-5.3983,-5.6334,-5.6785,-5.6623,-5.7488,-5.7248,-5.6854,-5.7223,-5.7069,-5.6669,-5.598,-5.5389,-5.4739,-5.3561,-5.2852,-5.2552,0.0,-5.1613,-5.0828,0.0,0.0,-4.4909,-4.2767,-4.2714,-4.2953,-4.3177,-4.4541,0.0,0.0,-4.655,-4.8555,-5.0035,-5.0649,-5.1372,-5.2397,-5.2782,0.0,0.0,0.0,0.0,-5.8198,-6.047,-6.1803,-6.2267,-6.398,-6.4764,-6.459,-6.6128,-6.7086,-6.7463,-6.8392,-6.9098,-6.947,-6.947,-6.9869,-7.0498,-7.1148,-7.1631,-7.2013,-7.2703,-7.2983,-7.2983,-7.2983,-7.419,-7.5808,0.0,0.0,0.0,0.0,0.0,0.0,0.0,-4.4001,0.0,-4.962,0.0,-5.1868,-5.3395,-5.5663,-5.6735,-5.6047,0.0,-5.498,-5.2675,-5.4559,-5.461,-5.1759,-5.2569,-5.2548,-5.1364,-4.8865,0.0,0.0,0.0,0.0,0.0,0.0,0.0,0.0,0.0,0.0,0.0,-4.7906,-4.8357,-4.8775,-4.8914,-4.9053,-4.9357,-5.0512,-5.106,-5.1303,-5.1789,-5.194,-5.2087,-5.3929,-5.4231,-5.4147,-5.5877,-5.647,-5.647,-5.6761,-5.6761,-5.6761,-5.6761,-5.6761,-5.6761,-5.6761,-5.6761,-5.6511,-5.5481,-5.5262,-5.5262,-5.5262,-5.3615,-5.2995,-5.5888,0.0,-4.5167,-4.2103,-4.2158,-4.2415,0.0,0.0,0.0,-4.4364,-4.5053,0.0,-4.7229,-4.9512,-5.0751,-5.0324,0.0,0.0,0.0,0.0,0.0,-5.6676,-5.9975,-6.16,-6.1309,0.0,-6.4996,-6.4183,-6.5838,-6.6738,-6.6912,-6.816,-6.8741,-6.8828,-6.8828,-6.9203,-6.9869,-7.0528,-7.1277,-7.2013,-7.2703,-7.2983,-7.2983,-7.2983,-7.4747,-7.7099,0.0,0.0,0.0,0.0,0.0,-4.4606,-4.67,-4.918,-5.1305,-5.2717,-5.4185,-5.5264,-5.5619,-5.6034,-5.6017,-5.5359,-5.531,0.0,0.0,0.0,0.0,-5.4458,-5.4014,-5.3641,-5.3398,-5.0395,-4.9064,0.0,0.0,0.0,0.0,0.0,0.0,0.0,0.0,0.0,-4.7876,-4.7762,0.0,-4.8638,-4.8683,-4.9412,-5.0371,-5.0411,-5.1264,-5.2365,-5.2124,-5.2336,-5.2849,-5.3758,-5.4557,-5.5237,-5.6128,-5.6567,-5.6761,-5.6761,-5.6761,-5.6761,-5.6761,-5.6761,-5.6761,-5.6761,-5.6761,-5.673,-5.6511,-5.648,-5.648,-5.648,-5.6199,-5.5481,-5.443,0.0,0.0,-4.6101,-4.6842,0.0,0.0,0.0,0.0,-4.7465,-4.8357,-4.7762,-4.4464,-4.5376,-4.7164,0.0,0.0,0.0,0.0,0.0,0.0,0.0,-5.861,0.0,0.0,0.0,-6.3457,-6.4822,-6.517,-6.5867,-6.6912,-6.7696,-6.8334,-6.8828,-6.8828,-6.8828,-6.9098,-6.9737,-7.0759,-7.2013,-7.2703,-7.2983,-7.2983,-7.2983,-7.5326,-7.8345,0.0,0.0,0.0,0.0,0.0,0.0,0.0,-5.3407,0.0,-5.3373,-5.3976,-5.4522,-5.4522,-5.5688,-5.6425,-5.6093,-5.6031,-5.5849,-5.5521,-5.5849,-5.5849,-5.5521,-5.5074,0.0,-5.4324,-5.1394,-4.9972,-4.9948,0.0,0.0,0.0,0.0,0.0,0.0,0.0,-4.7985,0.0,0.0,0.0,-4.9509,-4.9266,-4.9558,-5.0236,-5.0857,-5.1533,-5.2236,-5.2305,-5.2795,-5.3407,-5.3619,-5.4413,-5.552,-5.5923,-5.6357,-5.6761,-5.6761,-5.6761,-5.6761,-5.6761,-5.6761,-5.6761,-5.6761,-5.6761,-5.6854,-5.7192,-5.7008,-5.6854,-5.7223,-5.7008,-5.6046,-5.3637,-5.2077,0.0,0.0,0.0,0.0,0.0,0.0,-5.0125,-4.8865,-4.8745,-4.7644,-4.4984,-4.4379,0.0,0.0,0.0,0.0,0.0,0.0,0.0,0.0,0.0,0.0,0.0,0.0,0.0,-6.3486,-6.4502,-6.5315,-6.5954,-6.7289,-6.8044,-6.8363,-6.8683,-6.8828,-6.8828,-6.9604,-7.0759,-7.1886,-7.2296,-7.2703,-7.2983,-7.2983,-7.5194,-7.8208,0.0,-4.1325,0.0,0.0,-4.7957,0.0,-5.3337,-5.6161,-5.7021,-5.4345,-5.3814,-5.3852,-5.3852,-5.5671,-5.6838,-5.6838,-5.6874,-5.6537,-5.6115,-5.6537,-5.6567,-5.6115,-5.5862,-5.5407,-5.473,-5.2206,-5.0487,0.0,-4.7963,-4.6928,0.0,-4.6998,0.0,0.0,0.0,0.0,0.0,0.0,-4.889,-4.9851,-4.9549,-4.9651,-5.002,-5.1097,-5.1652,-5.2021,-5.2698,-5.3345,-5.3837,-5.3622,-5.4357,-5.5306,-5.5743,-5.6207,-5.6577,-5.673,-5.6761,-5.6761,-5.6761,-5.6854,-5.6946,-5.6792,-5.6884,-5.7131,-5.7654,-5.7254,-5.6946,-5.7623,-5.7346,-5.623,-5.3663,-5.3416,0.0,0.0,0.0,0.0,0.0,0.0,-5.1389,-5.0456,-4.9164,-4.7941,-4.6808,0.0,0.0,0.0,0.0,0.0,0.0,0.0,0.0,0.0,0.0,-5.8871,-5.9423,0.0,-6.2412,-6.2325,-6.3719,-6.459,-6.5025,-6.6564,-6.7492,-6.7899,-6.8392,-6.8712,-6.8828,-6.9604,-7.0498,-7.1503,-7.1631,-7.217,-7.2703,-7.2703,-7.4948,-7.8031,0.0,0.0,0.0,0.0,0.0,0.0,0.0,-5.5921,-5.8393,-5.7463,-5.6782,-5.6445,-5.6445,-5.6664,-5.6854,-5.6854,-5.6792,-5.6761,-5.6761,-5.6761,-5.6761,-5.6761,-5.6084,-5.5407,-5.473,-5.2667,-5.051,0.0,-4.7804,-4.6297,0.0,-4.6017,0.0,0.0,0.0,0.0,0.0,-4.7718,-4.7752,-4.7937,-4.8512,-4.9466,-5.0605,-5.0759,-5.1559,-5.2698,-5.3375,-5.4052,-5.4637,-5.4544,-5.4636,-5.4944,-5.6269,-5.6269,-5.593,-5.6577,-5.6761,-5.6761,-5.6761,-5.7192,-5.7531,-5.6915,-5.7223,-5.7685,-5.7746,-5.7254,-5.6946,-5.7623,-5.7715,-5.7113,-5.527,-5.626,-5.6739,0.0,0.0,0.0,0.0,-5.6889,-5.6453,-5.3823,-5.2124,-5.0573,-4.9104,-4.8119,0.0,0.0,-4.8805,0.0,0.0,0.0,0.0,-5.5649,0.0,-5.7619,-5.9596,-6.0179,-6.1309,-6.2993,-6.2558,-6.3283,-6.4996,-6.517,-6.6215,-6.787,-6.7957,-6.8276,-6.8828,-6.9604,-7.0002,-7.0134,-7.0759,-7.1405,-7.2013,-7.2013,-7.4836,-7.8615,0.0,0.0,0.0,0.0,0.0,0.0,0.0,-5.7608,-5.8393,-5.7315,-5.6946,-5.6761,-5.6761,-5.6761,-5.6761,-5.6761,-5.6761,-5.6761,-5.6761,-5.6761,-5.6761,-5.6761,-5.6484,-5.5838,-5.476,-5.3129,-5.1361,0.0,0.0,0.0,0.0,0.0,0.0,0.0,0.0,-4.812,-4.9223,-4.8536,-4.8446,-4.8912,-4.9589,-5.0205,-5.079,-5.159,-5.2236,-5.279,-5.3468,-5.3899,-5.4237,-5.5037,-5.5592,-5.5961,-5.6084,-5.6207,-5.6392,-5.6669,-5.6761,-5.6854,-5.7254,-5.7562,-5.7808,-5.7931,-5.7869,-5.7993,-5.8793,-5.7839,-5.7069,-5.8146,-5.8362,-5.8324,-5.8014,-5.7821,-5.776,-5.7912,0.0,0.0,0.0,-5.7135,-5.5622,-5.4541,-5.2826,-5.0908,-4.8762,-4.8536,0.0,0.0,0.0,0.0,0.0,0.0,0.0,-5.4923,0.0,-5.7643,-6.0452,-5.9975,-6.0675,-6.2553,-6.2686,-6.3109,-6.3893,-6.5025,-6.6389,-6.7899,-6.8276,-6.8596,-6.8828,-6.9098,-6.947,-6.9869,-7.0265,-7.1018,-7.1886,-7.1886,-7.3787,-7.6603,-5.2386,0.0,-5.4013,0.0,-5.8384,-5.861,-5.8765,-5.9042,-5.8785,-5.7531,-5.7192,-5.6977,-5.6792,-5.6761,-5.6761,-5.6761,-5.6761,-5.6761,-5.6761,-5.6761,-5.6761,-5.6761,-5.6761,0.0,-5.5037,-5.3899,-5.2398,-5.0517,-4.9044,0.0,0.0,0.0,0.0,0.0,-4.8505,-4.9038,-5.0486,-4.958,-4.9528,-5.002,-5.0513,-5.082,-5.1097,-5.2052,-5.2667,-5.3098,-5.3775,-5.4145,-5.4483,-5.5622,-5.6484,-5.6946,-5.6238,-5.6207,-5.6484,-5.67,-5.6915,-5.7161,-5.7654,-5.8054,-5.8423,-5.8701,-5.8577,-5.8608,-5.9562,-5.8362,-5.7315,-5.83,-5.8793,-5.9285,-5.9963,-5.9399,-5.907,-5.9922,0.0,0.0,-5.9246,-5.7254,-5.522,-5.4234,-5.2917,-5.1212,-4.9057,-4.9433,0.0,0.0,0.0,0.0,0.0,0.0,0.0,0.0,0.0,0.0,-6.0526,-6.0077,-6.0499,-6.1821,-6.2491,-6.2978,-6.3167,-6.5257,-6.6709,-6.7638,-6.845,-6.8828,-6.8828,-6.8828,-6.9098,-6.9604,-6.9604,-7.0236,-7.1375,-7.1503,-7.32,-7.5655,-5.6456,-5.6996,-5.7584,-6.0454,-6.1759,-6.1582,-5.9297,-5.9789,-6.0022,-5.8947,-5.8177,-5.75,-5.6823,-5.6761,-5.6761,-5.6761,-5.6761,-5.6761,-5.6761,-5.6761,-5.6761,0.0,0.0,-5.6423,-5.5684,-5.5037,-5.3714,-5.1713,0.0,0.0,-4.8501,0.0,-4.8832,-4.9463,-4.9433,-4.9907,-5.0697,-5.0667,-5.0667,-5.0697,-5.0697,-5.1097,-5.1682,-5.1713,-5.2544,-5.3806,-5.4483,-5.513,-5.5776,-5.6515,-5.7192,-5.7654,-5.6977,-5.6269,-5.5838,-5.6546,-5.7254,-5.7746,-5.7777,-5.8762,-5.9593,-5.8947,-5.9285,-5.9778,-5.9778,-5.8731,-5.7746,-5.7777,-5.8854,-5.9993,-6.0671,-6.1317,-6.1563,-6.0886,0.0,0.0,-5.8978,-5.8177,-5.6537,-5.3152,-5.2551,-5.1971,-5.0789,-5.1455,0.0,0.0,0.0,0.0,0.0,0.0,0.0,-5.5948,-5.6143,0.0,-5.9469,-6.0466,-6.1005,-6.1114,-6.1792,-6.2465,-6.3167,-6.5722,-6.6883,-6.697,-6.8276,-6.8828,-6.8828,-6.8828,-6.8828,-6.8828,-6.8828,-6.9232,-7.0002,-7.0658,-7.3292,-7.672,-5.7737,-5.8957,-6.012,-6.1357,-6.2566,-6.2825,-6.1126,-6.0757,-6.0383,-5.9593,-5.8385,-5.7488,-5.7469,-5.7038,-5.6761,0.0,-5.6761,-5.6761,0.0,-5.6761,-5.6761,-5.6761,-5.6761,-5.6423,-5.5715,-5.4607,-5.3498,-5.239,0.0,0.0,0.0,-4.9945,-5.0336,-5.0992,-5.0992,-5.0923,-5.0697,-5.0697,-5.0697,-5.0728,-5.119,-5.1498,-5.1744,-5.2206,-5.2667,-5.3191,-5.433,-5.4853,-5.5222,-5.6361,-5.6915,-5.7038,-5.6823,-5.7254,-5.7839,-5.8054,-5.7962,-5.7869,-5.8331,-5.8762,-5.9162,-5.9408,-5.9624,-5.9901,-6.0363,-5.9778,-5.9285,-5.9747,-5.9809,-6.0147,-6.1286,-6.1286,-6.1194,-6.144,-6.0701,0.0,-6.0147,-5.7962,-5.5773,-5.4265,-5.3224,-5.2273,-5.1478,-5.2765,0.0,0.0,0.0,0.0,0.0,0.0,0.0,0.0,-5.6564,0.0,-6.0806,-6.0475,-6.1006,-6.2371,-6.3023,-6.3921,-6.5107,-6.6323,-6.7096,-6.7594,-6.8078,-6.8421,-6.8828,-6.8828,-6.8828,-6.8828,-6.8828,-6.9203,-6.9869,-7.0134,-7.2043,-7.4999,-5.9205,-6.0262,-6.1322,-6.2815,-6.3415,-6.3333,-6.2364,-6.152,-6.0844,-6.027,-5.8776,-5.794,-5.8416,-5.7488,0.0,-5.6792,-5.6761,-5.6761,-5.6761,-5.6761,-5.6761,-5.6761,-5.6761,-5.6546,-5.6115,-5.5007,0.0,-5.3468,-5.1361,-5.0603,-5.1029,-5.1029,-5.1483,-5.2452,-5.2206,-5.199,-5.1805,-5.1559,-5.1436,-5.1498,-5.1929,-5.2082,-5.2144,-5.2821,-5.3252,-5.3622,-5.4699,-5.5253,-5.5622,-5.6484,-5.6946,-5.7131,-5.7131,-5.79,-5.867,-5.8177,-5.79,-5.7931,-5.8608,-5.8978,-5.9316,-5.9993,-6.0178,-6.0209,-6.0393,-6.0301,-6.0301,-6.0701,-6.0855,-6.1348,-6.2702,-6.2825,-6.2764,-6.2948,-6.2025,-6.1101,-6.0517,-5.7931,-5.5558,-5.4079,-5.3101,-5.2365,0.0,-5.3284,-5.4046,0.0,0.0,0.0,0.0,0.0,0.0,-5.5812,-5.7444,-5.9392,-6.1722,-6.1291,-6.1849,-6.3325,-6.397,-6.4784,-6.5622,-6.6714,-6.753,-6.7983,-6.837,-6.8752,-6.8828,-6.9098,-6.9098,-6.8828,-6.8828,-6.9098,-6.9604,-7.0134,-7.1795,-7.4236,-6.0355,-6.0765,-6.1522,0.0,-6.4034,0.0,-6.3041,-6.215,-6.137,-6.104,-5.9512,-5.8695,-5.941,-5.7973,-5.6938,-5.6884,0.0,0.0,0.0,-5.6761,-5.6761,-5.6761,-5.6761,-5.6761,-5.6761,-5.6053,-5.5376,-5.473,-5.2852,-5.1929,-5.199,-5.2021,-5.2698,-5.3837,-5.3252,-5.3283,-5.3745,-5.3129,-5.2821,-5.279,-5.2821,-5.2821,-5.2852,-5.3529,-5.4176,-5.4822,-5.5468,-5.6115,-5.67,-5.673,-5.7192,-5.7685,-5.7685,-5.8146,-5.8423,-5.7254,-5.7315,-5.79,-5.8547,-5.9193,-5.987,-6.0547,-6.0794,-6.0701,-6.0086,-6.0424,-6.0886,-6.0917,-6.1933,-6.3225,-6.458,-6.5349,-6.5565,-6.4918,-6.421,-6.2825,-6.0116,-5.8085,-5.5923,-5.3152,0.0,0.0,-5.2031,-5.3526,-5.4571,0.0,0.0,0.0,0.0,0.0,-5.4548,-5.7041,-5.8655,-6.0377,-6.2303,-6.258,-6.3176,-6.3932,-6.4718,-6.5113,-6.5173,-6.7091,-6.7975,-6.8023,-6.9189,-6.9453,-6.8905,-6.9604,-6.947,-6.8828,-6.8828,-6.8828,-6.8963,-7.0265,-7.2143,-7.4414,0.0,0.0,-6.1704,-6.2884,-6.3887,-6.447,-6.4426,-6.3271,-6.2411,-6.2364,-6.0494,-5.9287,-5.9676,-5.8532,-5.7669,-5.7297,-5.7007,-5.6694,-5.6206,-5.6176,-5.6274,-5.647,-5.647,-5.6567,-5.6761,-5.6053,-5.5376,-5.473,-5.4237,-5.4268,-5.476,-5.5315,-5.5438,-5.5253,-5.5622,-5.5315,-5.4483,-5.433,-5.396,-5.3529,-5.4052,-5.396,-5.356,-5.4237,-5.4576,-5.4822,-5.5468,-5.5807,-5.6023,-5.6577,-5.6884,-5.7008,-5.7008,-5.7131,-5.7377,-5.8085,-5.8054,-5.7808,-5.7962,-5.8516,-5.9193,-5.987,-6.0794,-6.1532,-6.1379,-6.144,-6.1717,-6.224,-6.2579,-6.3071,-6.3933,-6.421,-6.4272,-6.4118,-6.3502,-6.2117,-5.9408,-5.8608,-5.7346,-5.4573,-5.5159,-5.5497,-5.4819,-5.5681,-5.5862,0.0,0.0,0.0,-5.6145,-5.5379,-5.5902,-5.8157,-5.9183,-6.0305,-6.1278,-6.215,-6.3207,-6.4666,-6.5902,-6.643,-6.6491,-6.7484,-6.8152,-6.8599,-6.8504,-6.8931,-6.9684,-6.9795,-6.9737,-6.9604,-6.9604,-6.9337,-6.8828,-6.9203,-7.0509,-7.2705,-5.9736,-6.0811,-6.1604,-6.2023,-6.3228,-6.4066,-6.3619,-6.3036,-6.2518,-6.2394,-6.0818,-5.9753,-6.0034,-5.904,-5.8213,-5.7952,-5.7284,-5.6647,-5.6009,-5.5979,-5.6077,-5.6176,-5.6176,-5.6274,-5.647,-5.6168,-5.5743,-5.5161,-5.4884,-5.4974,-5.5494,-5.5892,-5.6046,-5.5888,-5.6046,-5.5678,-5.4941,-5.4759,-5.4514,-5.4206,-5.4576,-5.4514,-5.4268,-5.4914,-5.5376,-5.5745,-5.6392,-5.6854,-5.7161,-5.7562,-5.7469,-5.7223,-5.7223,-5.7008,-5.6915,-5.7654,-5.7592,-5.7438,-5.8054,-5.8485,-5.9008,-5.9993,-6.0794,-6.144,-6.1748,-6.2271,-6.2918,-6.3626,-6.4272,-6.4888,-6.5565,-6.5688,-6.5503,-6.4888,-6.3605,-6.1783,-5.9193,-5.8185,-5.735,-5.63,-5.7038,-5.7777,-5.7993,-5.8362,-5.8078,-5.68,-5.6953,0.0,-5.7717,-5.8024,-5.8412,-5.9199,-5.9864,-6.0758,-6.1868,-6.3312,-6.4574,-6.5842,-6.655,-6.7073,-6.7412,-6.7739,-6.827,-6.888,-6.9145,-6.9556,-6.9961,-7.062,-7.0629,-7.0397,-7.0002,-6.9869,-6.9737,-6.947,-7.0669,-7.2797,-6.0287,-6.0991,-6.1351,-6.1491,-6.2555,-6.3123,-6.2295,-6.2395,-6.2441,-6.2056,-6.0958,-6.0319,-6.0512,-5.947,-5.8791,-5.87,-5.7716,-5.6819,-5.6092,-5.6031,-5.5971,-5.5979,-5.5979,-5.5979,-5.5979,-5.6274,-5.6164,-5.5869,-5.522,-5.5125,-5.5455,-5.5577,-5.5688,-5.5948,-5.5658,-5.545,-5.5424,-5.5064,-5.4882,-5.479,-5.5007,-5.4976,-5.4945,-5.5592,-5.6238,-5.6823,-5.7408,-5.7993,-5.8485,-5.8577,-5.8177,-5.7623,-5.7746,-5.7315,-5.6761,-5.6761,-5.6823,-5.7161,-5.83,-5.8854,-5.9378,-6.064,-6.104,-6.1255,-6.184,-6.301,-6.418,-6.4888,-6.6057,-6.7104,-6.7658,-6.7781,-6.7289,-6.5729,-6.3822,-6.1703,-5.8899,0.0,-5.7314,-5.7832,-5.8885,-5.9993,-6.1132,-6.1255,-6.0824,-5.9778,-6.0578,-6.0886,-6.0424,-6.1278,-6.1493,-6.0563,-6.0893,-6.183,-6.3528,-6.5249,-6.6334,-6.6919,-6.7104,-6.7504,-6.8089,-6.8274,-6.8627,-6.9245,-7.0404,-7.0646,-7.0344,-7.1486,-7.1503,-7.1018,-7.0367,-7.0528,-7.0759,-7.0265,-7.1247,-7.3138,-5.9977,-6.047,-6.0912,-6.1408,-6.2588,-6.3388,-6.3153,-6.3396,-6.3333,-6.2764,-6.1981,-6.1335,-6.0751,-6.039,-5.9801,-5.9014,-5.8594,-5.7751,-5.6312,-5.6119,-5.5981,-5.5711,-5.5681,-5.578,-5.5979,-5.6274,-5.6409,-5.6317,-5.6194,-5.6194,-5.6219,-5.6602,-5.6503,-5.5979,-5.6564,-5.6442,-5.5895,-5.6097,-5.5796,-5.5306,-5.6111,-5.6084,-5.5622,-5.633,-5.6669,-5.6761,-5.6884,-5.6977,-5.7161,-5.7746,-5.7469,-5.7008,-5.7592,-5.7315,-5.6761,-5.6761,-5.7161,-5.7654,-5.7869,-5.9193,-6.0671,-6.144,-6.2086,-6.2517,-6.2641,-6.3749,-6.4918,-6.5596,-6.6365,-6.695,-6.7042,-6.7073,-6.6313,-6.3792,-6.3036,-6.1461,-5.7689,0.0,-5.9799,-5.8762,-6.1255,-6.3133,-6.3318,-6.3349,-6.3533,-6.3903,-6.3041,-6.2702,-6.3164,-6.3605,-6.3862,-6.3659,-6.3558,-6.4258,-6.5796,-6.6414,-6.6827,-6.6919,-6.8058,-6.8643,-6.8766,-6.9936,-7.0431,-7.0556,-7.0861,-7.1228,-7.1628,-7.1895,-7.1886,-7.1759,-7.1631,-7.1277,-7.0919,-7.0759,-7.1018,-7.1624,-5.9654,-6.0313,-6.0705,-6.0155,-6.1299,-6.2411,-6.2642,-6.3146,-6.3537,-6.3549,-6.2871,-6.2086,-6.1409,-6.0801,-6.0255,-5.9845,-5.9289,-5.858,-5.7513,-5.6689,-5.6149,-5.5921,-5.5591,-5.5581,-5.5979,-5.5979,-5.6176,-5.6664,-5.647,-5.6372,-5.6176,-5.6382,-5.6183,-5.5611,-5.6013,-5.6053,-5.578,-5.6077,-5.6091,-5.5914,-5.625,-5.6352,-5.63,-5.6541,-5.6879,-5.7315,-5.7315,-5.7531,-5.79,-5.8208,-5.7869,-5.7346,-5.7685,-5.7315,-5.6761,-5.6761,-5.75,-5.8485,-5.9193,-6.0086,-6.104,-6.2086,-6.2302,-6.2579,-6.3687,-6.4703,-6.575,-6.6765,-6.7504,-6.7873,-6.7535,-6.7473,-6.6805,-6.4891,-6.2866,-6.1187,-5.9735,-5.9601,-5.9979,-6.0886,-6.301,-6.4826,-6.5934,-6.538,-6.5226,-6.5934,-6.4703,-6.4241,-6.4918,-6.4891,-6.5228,-6.5709,-6.5482,-6.5941,-6.7151,-6.7557,-6.7857,-6.8228,-6.8845,-6.9309,-6.9443,-7.0059,-7.0551,-7.0952,-7.1292,-7.1721,-7.2029,-7.2302,-7.2422,-7.2422,-7.2043,-7.1916,-7.1947,-7.1178,-7.1759,-7.3046,-5.9345,-5.9992,-6.023,-5.8997,-6.0166,-6.1386,-6.1613,-6.2231,-6.2822,-6.3189,-6.2547,-6.1875,-6.1202,-6.0788,-6.0481,-6.0377,-5.9955,-5.9365,-5.8731,-5.7497,-5.6762,-5.6509,-5.5879,-5.5661,-5.578,-5.5681,-5.5979,-5.6567,-5.6372,-5.6274,-5.6077,-5.5979,-5.5681,-5.528,-5.5481,-5.5481,-5.5481,-5.578,-5.6077,-5.6176,-5.6077,-5.6274,-5.6664,-5.647,-5.6905,-5.7531,-5.7531,-5.7869,-5.8331,-5.8485,-5.8085,-5.7562,-5.7715,-5.7408,-5.7008,-5.7008,-5.8054,-5.9562,-6.0886,-6.1255,-6.1594,-6.2948,-6.2918,-6.2979,-6.4734,-6.578,-6.6673,-6.772,-6.8427,-6.8705,-6.8027,-6.8058,-6.7596,-6.5709,0.0,-6.1582,-6.166,-6.0685,-6.0898,-6.2995,-6.4949,-6.6673,-6.8243,-6.7596,-6.7289,-6.7812,-6.6581,-6.6119,-6.6796,-6.6414,-6.6721,-6.7812,-6.712,-6.7181,-6.8236,-6.8621,-6.9077,-6.9604,-6.9945,-7.0112,-7.0398,-7.0551,-7.089,-7.1413,-7.1967,-7.2214,-7.2244,-7.2768,-7.2983,-7.2983,-7.2422,-7.2578,-7.2859,-7.1819,-7.2642,-7.4388,-5.9345,-5.9289,-5.9317,-5.9233,-5.9948,-6.0681,-6.0745,-6.0792,-6.0617,-5.9971,-6.0112,-5.9927,-5.9267,-6.0136,-6.069,-6.0377,-6.0377,-5.9893,-5.891,-5.8863,-5.8425,-5.751,-5.6847,-5.6113,-5.531,-5.5481,-5.578,-5.6077,-5.6077,-5.6176,-5.6372,-5.588,-5.5581,-5.5581,-5.528,-5.5179,-5.528,-5.5481,-5.5681,-5.5681,-5.588,-5.6176,-5.647,-5.6372,-5.6598,-5.6823,-5.6823,-5.6884,-5.7008,-5.7623,-5.7408,-5.6946,-5.7562,-5.7746,-5.7685,-5.7685,-5.9101,-6.0948,-6.2302,-6.2671,-6.301,-6.4395,-6.4703,-6.4857,-6.5657,-6.6858,-6.7812,-6.7904,-6.8427,-6.8705,-6.8027,-6.8427,-6.785,-6.4675,0.0,0.0,-6.1446,-6.3054,-6.447,-6.4734,-6.7566,-6.9597,-6.9751,-7.0244,-7.0551,-7.0613,-6.9351,-6.8889,-6.9566,-6.9012,-6.9259,-7.0551,-6.8797,-6.8266,-6.9294,-6.9679,-7.0019,-7.0348,-7.1378,-7.1783,-7.1844,-7.246,-7.2768,-7.2829,-7.2891,-7.2922,-7.2922,-7.2952,-7.2983,-7.2983,-7.2983,-7.2983,-7.2983,-7.2859,-7.2983,-7.3324,-5.9823,-6.0104,-6.0245,-5.9851,-6.0018,-6.0499,-6.0802,-6.0874,-6.1204,-6.2097,-6.195,-6.1649,-6.1446,-6.1445,-6.1255,-6.0721,-6.0481,-6.0102,-5.9295,-5.9265,-5.8857,-5.791,-5.7607,-5.7081,-5.6315,-5.6285,-5.6204,-5.5979,-5.5979,-5.6077,-5.6176,-5.5979,-5.578,-5.5581,-5.528,-5.5179,-5.5179,-5.528,-5.5481,-5.5581,-5.5481,-5.578,-5.6176,-5.6176,-5.6274,-5.6567,-5.6761,-5.7038,-5.7438,-5.7685,-5.7869,-5.8054,-5.83,-5.8393,-5.8547,-5.9408,-6.0794,-6.224,-6.3195,-6.3441,-6.3779,-6.5165,-6.5534,-6.5811,-6.6919,-6.7566,-6.8027,-6.8427,-6.8705,-6.8705,-6.8027,-6.8458,-6.8311,-6.6637,0.0,-6.576,-6.4738,-6.5176,-6.5842,-6.6673,-6.8243,-6.9782,-7.1075,-7.1013,-7.1075,-7.1536,-7.0675,-7.0244,-7.0521,-7.0274,-7.0487,-7.1131,-6.987,-6.9376,-7.0007,-7.0137,-7.0261,-7.041,-7.1653,-7.2212,-7.1998,-7.2675,-7.2983,-7.2983,-7.2983,-7.2983,-7.2983,-7.2983,-7.2983,-7.2983,-7.2983,-7.2983,-7.2983,-7.2983,-7.3416,-7.4325,-6.016,-6.0329,-6.0357,-5.9935,-5.9851,-5.9933,-6.0467,-6.0209,-6.0667,-6.24,-6.1834,-6.1261,-6.1516,-6.1278,-6.073,-5.9743,-6.0136,-6.0071,-5.9088,-5.9154,-5.8848,-5.8187,-5.8369,-5.8085,-5.7284,-5.6971,-5.6637,-5.6481,-5.6267,-5.6176,-5.6274,-5.6176,-5.5979,-5.5681,-5.5481,-5.528,-5.528,-5.528,-5.5381,-5.5581,-5.5381,-5.5581,-5.5979,-5.5979,-5.6298,-5.6874,-5.7069,-5.75,-5.8085,-5.8085,-5.8393,-5.8824,-5.9039,-5.9378,-5.9993,-6.1348,-6.2394,-6.3287,-6.3964,-6.4487,-6.5042,-6.5996,-6.6396,-6.6827,-6.7966,-6.8212,-6.8335,-6.8797,-6.8889,-6.8735,-6.8304,-6.8766,-6.8982,-6.8335,-6.7843,-6.7473,-6.7258,-6.7196,-6.7412,-6.815,-6.9382,-7.0644,-7.1844,-7.1721,-7.1752,-7.2244,-7.1629,-7.1136,-7.1042,-7.1442,-7.1718,-7.1743,-7.1007,-7.0791,-7.0911,-7.0694,-7.0694,-7.103,-7.2086,-7.2521,-7.2306,-7.2768,-7.2983,-7.2983,-7.2983,-7.2983,-7.2983,-7.2983,-7.2983,-7.2983,-7.2983,-7.2983,-7.2983,-7.2983,-7.3539,-7.4445,-6.0273,-5.9654,-5.9233,-5.9233,-5.9233,-5.9233,-5.9233,-5.8451,-5.8278,-5.9554,-5.8532,-5.7994,-5.8688,-5.9414,-5.9148,-5.7358,-5.9439,-5.9936,-5.8158,-5.8491,-5.8693,-5.8359,-5.9032,-5.896,-5.7982,-5.7314,-5.7181,-5.7381,-5.6708,-5.6567,-5.6761,-5.6567,-5.6274,-5.5979,-5.5681,-5.5581,-5.5581,-5.5581,-5.5581,-5.5581,-5.5581,-5.578,-5.5979,-5.5979,-5.68,-5.7777,-5.7777,-5.8208,-5.8793,-5.8793,-5.8793,-5.8916,-5.9593,-6.0732,-6.2086,-6.3441,-6.3841,-6.3995,-6.4703,-6.5873,-6.6919,-6.6919,-6.7442,-6.8089,-6.8735,-6.8889,-6.8889,-6.8889,-6.8889,-6.8889,-6.8889,-6.9443,-6.9659,-6.9012,-6.8889,-6.8674,-6.8027,-6.9074,-6.9659,-6.8982,-7.1321,-7.2706,-7.206,-7.2583,-7.2983,-7.2983,-7.2368,-7.1812,-7.1464,-7.2734,-7.3168,-7.2455,-7.2424,-7.2303,-7.1967,-7.1259,-7.1381,-7.2424,-7.2768,-7.2983,-7.2983,-7.2983,-7.2983,-7.2983,-7.2983,-7.2983,-7.2983,-7.2983,-7.2983,-7.2983,-7.2983,-7.2983,-7.2983,-7.2983,-7.2983,-7.3324,-6.1312,-6.1312,-6.1172,-6.1172,-6.1172,-6.1031,-6.061,-5.9865,-5.9821,-6.0847,-6.0209,-5.9908,-6.0294,-5.9909,-5.9605,-5.9428,-5.9495,-5.9304,-5.8593,-5.8684,-5.8762,-5.8662,-5.9338,-5.9481,-5.899,-5.8777,-5.8227,-5.7081,-5.7068,-5.6929,-5.6567,-5.647,-5.6372,-5.6274,-5.5979,-5.588,-5.588,-5.5681,-5.5681,-5.588,-5.5681,-5.578,-5.6039,-5.6694,-5.7198,-5.7641,-5.83,-5.8916,-5.9501,-5.9501,-6.0116,-6.1009,-6.1686,-6.2517,-6.3318,-6.3718,-6.418,-6.4641,-6.4826,-6.5873,-6.6919,-6.6919,-6.775,-6.8643,-6.8828,-6.8889,-6.8889,-6.8889,-6.8889,-6.8889,-6.8889,-6.9443,-6.9659,-6.9012,-7.009,-7.0644,-6.9474,-7.049,-7.129,-7.1075,-7.1783,-7.2368,-7.2645,-7.286,-7.2983,-7.2983,-7.2798,-7.2707,-7.2889,-7.3015,-7.3262,-7.3503,-7.255,-7.2428,-7.3076,-7.2121,-7.1874,-7.209,-7.2645,-7.2983,-7.2983,-7.2983,-7.2983,-7.2983,-7.2983,-7.2983,-7.2983,-7.2983,-7.2983,-7.2983,-7.2983,-7.2983,-7.2983,-7.2983,-7.2983,-7.3324,-6.1818,-6.1818,-6.165,-6.165,-6.165,-6.1537,-6.1172,-6.0554,-6.0567,-6.1862,-6.0803,-6.0116,-6.0763,-6.0033,-5.9045,-5.8376,-5.779,-5.8001,-5.8845,-5.843,-5.8573,-5.9562,-5.947,-5.9553,-5.9972,-5.9727,-5.895,-5.7678,-5.7603,-5.7242,-5.6567,-5.6567,-5.647,-5.6372,-5.6274,-5.6176,-5.6176,-5.5979,-5.5979,-5.6176,-5.5979,-5.613,-5.6602,-5.7198,-5.7817,-5.8408,-5.9039,-5.9778,-6.0578,-6.0578,-6.1502,-6.2733,-6.341,-6.3933,-6.4303,-6.458,-6.4764,-6.4949,-6.5226,-6.6088,-6.6919,-6.6919,-6.7904,-6.8889,-6.8889,-6.8889,-6.8889,-6.8889,-6.8889,-6.8951,-6.9228,-6.9413,-6.9628,-7.0028,-7.0705,-7.1044,-7.0767,-7.1444,-7.1967,-7.1967,-7.2214,-7.2521,-7.2952,-7.2983,-7.2983,-7.2983,-7.2983,-7.3107,-7.3509,-7.3355,-7.3355,-7.3692,-7.2953,-7.283,-7.3231,-7.2707,-7.2368,-7.2368,-7.2798,-7.2983,-7.2983,-7.2983,-7.2983,-7.2983,-7.2983,-7.2983,-7.2983,-7.2983,-7.2983,-7.2983,-7.2983,-7.2983,-7.2983,-7.2983,-7.2983,-7.3324,-6.1818,-6.1481,-6.1088,-6.1088,-6.1144,-6.1172,-6.1116,-6.0638,-6.0822,-6.2476,-6.0438,-5.9233,-6.0352,-5.9565,-5.8015,-5.559,-5.5535,-5.6566,-5.8871,-5.7812,-5.8217,-6.064,-5.9532,-5.947,-6.0763,-6.0116,-5.9501,-5.8885,-5.8177,-5.7531,-5.6854,-5.6854,-5.6726,-5.647,-5.647,-5.65,-5.6562,-5.6403,-5.6403,-5.6562,-5.6403,-5.677,-5.748,-5.7603,-5.8561,-5.9901,-5.9963,-6.0824,-6.1994,-6.2056,-6.2856,-6.3964,-6.4672,-6.4949,-6.5103,-6.5719,-6.5472,-6.5134,-6.5811,-6.6457,-6.6919,-6.6981,-6.7966,-6.8889,-6.8889,-6.8951,-6.8982,-6.8982,-6.9012,-6.9228,-6.9782,-6.9443,-6.9659,-7.1506,-7.0828,-7.0521,-7.1783,-7.2029,-7.206,-7.206,-7.2614,-7.2983,-7.2983,-7.2983,-7.2983,-7.2983,-7.2983,-7.3107,-7.3509,-7.3509,-7.3509,-7.3509,-7.3509,-7.3355,-7.3107,-7.2983,-7.2983,-7.2983,-7.2983,-7.2983,-7.2983,-7.2983,-7.2983,-7.2983,-7.2983,-7.2983,-7.2983,-7.2983,-7.2983,-7.2983,-7.2983,-7.2983,-7.2983,-7.2983,-7.3107,-7.357,-6.1172,-6.12,-6.1088,-6.1088,-6.1481,-6.165,-6.1172,-6.1397,-6.1413,-6.0794,-6.0202,-5.9739,-5.9482,-5.8643,-5.8165,-5.8221,-5.7826,-5.7965,-5.8901,-5.8261,-5.8489,-5.9993,-5.9716,-5.9963,-6.0794,-6.0116,-5.9716,-5.9562,-5.8885,-5.8208,-5.7562,-5.7562,-5.7254,-5.6664,-5.6664,-5.6941,-5.7433,-5.6684,-5.6874,-5.7402,-5.6684,-5.6966,-5.7801,-5.8846,-5.987,-6.064,-6.1194,-6.224,-6.3472,-6.4026,-6.4057,-6.3964,-6.4672,-6.5257,-6.5719,-6.5873,-6.5811,-6.5842,-6.6519,-6.6796,-6.7042,-6.7566,-6.8304,-6.8889,-6.8889,-6.9289,-6.969,-6.969,-7.009,-7.0336,-6.9967,-7.0213,-7.0428,-7.0367,-7.1013,-7.1629,-7.1937,-7.2429,-7.2768,-7.2768,-7.2891,-7.2983,-7.2983,-7.2983,-7.2983,-7.2983,-7.2983,-7.2983,-7.3107,-7.3107,-7.3231,-7.3509,-7.3262,-7.3231,-7.3386,-7.3107,-7.2983,-7.2983,-7.2983,-7.2983,-7.2983,-7.2983,-7.2983,-7.2983,-7.2983,-7.2983,-7.2983,-7.2983,-7.2983,-7.2983,-7.2983,-7.2983,-7.2983,-7.2983,-7.3539,-7.4771,-6.0975,-6.1088,-6.1088,-6.1088,-6.1593,-6.1818,-6.12,-6.1369,-6.134,-6.0666,-6.0076,-5.9683,-5.9654,-5.8968,-5.8351,-5.8099,-5.799,-5.8089,-5.8276,-5.8465,-5.9032,-6.027,-5.9963,-6.0116,-6.0794,-6.0116,-5.9778,-5.9778,-5.9439,-5.8762,-5.7777,-5.8116,-5.79,-5.7254,-5.7592,-5.7931,-5.8239,-5.7771,-5.7832,-5.8208,-5.7771,-5.8016,-5.8824,-5.9532,-6.0393,-6.1379,-6.2056,-6.3164,-6.4487,-6.5503,-6.5411,-6.4949,-6.5626,-6.6088,-6.6457,-6.6765,-6.6642,-6.6519,-6.7227,-6.7412,-6.7566,-6.8212,-6.8889,-6.9289,-6.8951,-6.9166,-6.9413,-6.9413,-6.9967,-7.0398,-7.0367,-7.0675,-7.1013,-7.1321,-7.1721,-7.2091,-7.2398,-7.2768,-7.2983,-7.2983,-7.2983,-7.2983,-7.2983,-7.2983,-7.2983,-7.2983,-7.2983,-7.2983,-7.2983,-7.2983,-7.3107,-7.3231,-7.3107,-7.3107,-7.3231,-7.3107,-7.2983,-7.2983,-7.2983,-7.2983,-7.2983,-7.2983,-7.2983,-7.2983,-7.2983,-7.2983,-7.2983,-7.2983,-7.2983,-7.2983,-7.2983,-7.2983,-7.2983,-7.2983,-7.4116,-7.5906,-6.0666,-6.0778,-6.0807,-6.0919,-6.1453,-6.165,-6.1031,-6.1116,-6.1144,-6.0807,-5.9964,-5.9542,-5.9935,-5.9388,-5.8563,-5.7283,-5.7519,-5.7762,-5.7736,-5.8232,-5.9237,-6.0451,-5.993,-6.0003,-6.0794,-6.024,-5.9963,-5.9963,-5.9839,-5.9224,-5.8116,-5.8701,-5.8577,-5.7962,-5.8516,-5.8854,-5.8947,-5.8824,-5.8854,-5.8947,-5.8947,-5.9347,-5.9993,-6.0209,-6.1071,-6.221,-6.2794,-6.3718,-6.4949,-6.6427,-6.6396,-6.5842,-6.6396,-6.6735,-6.7042,-6.7596,-6.7442,-6.7258,-6.8058,-6.8181,-6.8274,-6.9043,-6.9659,-6.9936,-6.9351,-6.932,-6.9413,-6.9413,-6.9936,-7.0551,-7.1013,-7.1167,-7.1598,-7.2645,-7.2429,-7.2337,-7.2891,-7.2983,-7.2983,-7.2983,-7.2983,-7.2983,-7.2983,-7.2983,-7.2983,-7.2983,-7.2983,-7.2983,-7.2983,-7.2983,-7.2983,-7.2983,-7.2983,-7.2983,-7.2983,-7.2983,-7.2983,-7.2983,-7.2983,-7.2983,-7.2983,-7.2983,-7.2983,-7.2983,-7.2983,-7.2983,-7.2983,-7.2983,-7.2983,-7.2983,-7.2983,-7.2983,-7.3107,-7.3447,-7.4921,-7.6846,-5.9458,-5.9458,-5.9626,-6.016,-6.0807,-6.1003,-6.0357,-6.12,-6.1312,-5.9683,-5.9795,-5.9823,-5.9402,-5.9011,-5.8648,-5.8481,-5.7827,-5.7461,-5.7696,-5.7334,-5.7797,-5.9147,-5.9135,-5.9698,-6.0794,-6.0701,-6.0671,-6.0671,-6.0086,-5.9686,-5.9532,-5.9624,-5.9285,-5.8639,-5.8731,-5.9101,-5.9624,-5.9039,-5.9131,-5.9655,-5.9655,-6.0055,-6.0794,-6.1963,-6.2887,-6.3564,-6.3656,-6.381,-6.4272,-6.6242,-6.6088,-6.5042,-6.5134,-6.5965,-6.6919,-6.7042,-6.7412,-6.8058,-6.9289,-6.9197,-6.9043,-7.0305,-7.0705,-7.0736,-7.0644,-7.1105,-7.1567,-7.1567,-7.2091,-7.2429,-7.1906,-7.2306,-7.2583,-7.2183,-7.2521,-7.2891,-7.2983,-7.2983,-7.2983,-7.2983,-7.2983,-7.2983,-7.2983,-7.2983,-7.2983,-7.2983,-7.2983,-7.2983,-7.2983,-7.2983,-7.2983,-7.2983,-7.2983,-7.2983,-7.2983,-7.2983,-7.2983,-7.2983,-7.2983,-7.2983,-7.2983,-7.2983,-7.2983,-7.2983,-7.2983,-7.2983,-7.2983,-7.2983,-7.2983,-7.2983,-7.2983,-7.2983,-7.32,-7.5359,-7.6281,-7.6958,-5.9205,-5.9486,-5.9823,-6.0076,-6.0947,-6.1397,-6.0778,-6.1144,-6.1088,-5.9879,-5.9654,-5.9514,-5.9233,-5.908,-5.8815,-5.8479,-5.8851,-5.8823,-5.8099,-5.8172,-5.8581,-5.8972,-5.9398,-5.9765,-6.0334,-6.1002,-6.1194,-6.0794,-6.0486,-6.0147,-5.9809,-6.0178,-5.9993,-5.9347,-5.9747,-6.0086,-6.0332,-6.0024,-6.0301,-6.0886,-6.0517,-6.0763,-6.1379,-6.1594,-6.2333,-6.341,-6.458,-6.5226,-6.5626,-6.618,-6.6211,-6.6027,-6.6027,-6.695,-6.8089,-6.8458,-6.8797,-6.9228,-7.0182,-7.0244,-7.0244,-7.1259,-7.1506,-7.1598,-7.1967,-7.2306,-7.2214,-7.1044,-7.166,-7.2214,-7.1506,-7.2244,-7.2891,-7.2583,-7.2798,-7.2983,-7.2983,-7.2983,-7.2983,-7.2983,-7.2983,-7.2983,-7.2983,-7.2983,-7.2983,-7.2983,-7.2859,-7.2859,-7.2983,-7.2859,-7.2859,-7.2983,-7.2983,-7.2983,-7.2983,-7.2983,-7.2983,-7.2983,-7.2983,-7.2983,-7.2983,-7.2983,-7.2983,-7.2983,-7.2983,-7.2983,-7.2983,-7.2983,-7.2983,-7.2983,-7.2983,-7.3447,-7.4236,-7.5938,-7.7297,-7.8431]}]]